<?xml version="1.0" encoding="UTF-8" standalone="no" ?>
<gpx xmlns="http://www.topografix.com/GPX/1/1" xmlns:xsi="http://www.w3.org/2001/XMLSchema-instance" xsi:schemaLocation="http://www.topografix.com/GPX/1/1 http://www.topografix.com/GPX/1/1/gpx.xsd" version="1.1" creator="VisuGPX - https://www.visugpx.com">
  <metadata>
    <name>Revel-le bourget</name>
    <desc><![CDATA[File with points/tracks from Locus Map/3.39.4]]></desc>
  </metadata>
  <trk>
    <name><![CDATA[2019-09-15 08:26:43]]></name>
    <desc><![CDATA[Bourget]]></desc>
    <trkseg>
      <trkpt lat="45.18376" lon="5.87379">
        <ele>685.05</ele>
        <time>2019-09-15T06:26:44.000Z</time>
      </trkpt>
      <trkpt lat="45.18386" lon="5.87376">
        <ele>686.6</ele>
        <time>2019-09-15T06:27:30.000Z</time>
      </trkpt>
      <trkpt lat="45.18391" lon="5.87364">
        <ele>685.84</ele>
        <time>2019-09-15T06:27:36.000Z</time>
      </trkpt>
      <trkpt lat="45.18397" lon="5.87334">
        <ele>683.57</ele>
        <time>2019-09-15T06:27:41.000Z</time>
      </trkpt>
      <trkpt lat="45.18391" lon="5.87295">
        <ele>680.04</ele>
        <time>2019-09-15T06:27:46.000Z</time>
      </trkpt>
      <trkpt lat="45.18396" lon="5.87245">
        <ele>680.01</ele>
        <time>2019-09-15T06:27:51.000Z</time>
      </trkpt>
      <trkpt lat="45.18419" lon="5.87205">
        <ele>676.07</ele>
        <time>2019-09-15T06:27:56.000Z</time>
      </trkpt>
      <trkpt lat="45.18437" lon="5.8719">
        <ele>672.36</ele>
        <time>2019-09-15T06:28:01.000Z</time>
      </trkpt>
      <trkpt lat="45.18431" lon="5.87172">
        <ele>673.42</ele>
        <time>2019-09-15T06:28:06.000Z</time>
      </trkpt>
      <trkpt lat="45.18408" lon="5.87146">
        <ele>673.41</ele>
        <time>2019-09-15T06:28:11.000Z</time>
      </trkpt>
      <trkpt lat="45.18432" lon="5.87096">
        <ele>672.29</ele>
        <time>2019-09-15T06:28:16.000Z</time>
      </trkpt>
      <trkpt lat="45.18479" lon="5.87085">
        <ele>670.18</ele>
        <time>2019-09-15T06:28:21.000Z</time>
      </trkpt>
      <trkpt lat="45.18507" lon="5.87056">
        <ele>666.9</ele>
        <time>2019-09-15T06:28:26.000Z</time>
      </trkpt>
      <trkpt lat="45.18546" lon="5.87051">
        <ele>665.27</ele>
        <time>2019-09-15T06:28:31.000Z</time>
      </trkpt>
      <trkpt lat="45.1858" lon="5.87016">
        <ele>657.49</ele>
        <time>2019-09-15T06:28:36.000Z</time>
      </trkpt>
      <trkpt lat="45.18595" lon="5.86949">
        <ele>650.19</ele>
        <time>2019-09-15T06:28:41.000Z</time>
      </trkpt>
      <trkpt lat="45.18578" lon="5.86891">
        <ele>650.81</ele>
        <time>2019-09-15T06:28:46.000Z</time>
      </trkpt>
      <trkpt lat="45.18587" lon="5.86863">
        <ele>648.91</ele>
        <time>2019-09-15T06:28:51.000Z</time>
      </trkpt>
      <trkpt lat="45.18609" lon="5.86905">
        <ele>646.12</ele>
        <time>2019-09-15T06:28:56.000Z</time>
      </trkpt>
      <trkpt lat="45.1865" lon="5.86932">
        <ele>639.32</ele>
        <time>2019-09-15T06:29:01.000Z</time>
      </trkpt>
      <trkpt lat="45.18666" lon="5.86875">
        <ele>640.67</ele>
        <time>2019-09-15T06:29:06.000Z</time>
      </trkpt>
      <trkpt lat="45.18688" lon="5.86793">
        <ele>635.93</ele>
        <time>2019-09-15T06:29:11.000Z</time>
      </trkpt>
      <trkpt lat="45.18728" lon="5.8672">
        <ele>632.01</ele>
        <time>2019-09-15T06:29:16.000Z</time>
      </trkpt>
      <trkpt lat="45.18778" lon="5.86654">
        <ele>628.54</ele>
        <time>2019-09-15T06:29:21.000Z</time>
      </trkpt>
      <trkpt lat="45.18802" lon="5.86575">
        <ele>626.83</ele>
        <time>2019-09-15T06:29:26.000Z</time>
      </trkpt>
      <trkpt lat="45.18774" lon="5.86493">
        <ele>624.14</ele>
        <time>2019-09-15T06:29:31.000Z</time>
      </trkpt>
      <trkpt lat="45.18801" lon="5.86448">
        <ele>618.24</ele>
        <time>2019-09-15T06:29:36.000Z</time>
      </trkpt>
      <trkpt lat="45.18856" lon="5.86438">
        <ele>612.16</ele>
        <time>2019-09-15T06:29:41.000Z</time>
      </trkpt>
      <trkpt lat="45.1889" lon="5.86365">
        <ele>608.22</ele>
        <time>2019-09-15T06:29:46.000Z</time>
      </trkpt>
      <trkpt lat="45.18912" lon="5.86275">
        <ele>602.97</ele>
        <time>2019-09-15T06:29:51.000Z</time>
      </trkpt>
      <trkpt lat="45.18923" lon="5.86182">
        <ele>601.39</ele>
        <time>2019-09-15T06:29:56.000Z</time>
      </trkpt>
      <trkpt lat="45.18937" lon="5.86083">
        <ele>591.1</ele>
        <time>2019-09-15T06:30:01.000Z</time>
      </trkpt>
      <trkpt lat="45.18954" lon="5.85988">
        <ele>587.11</ele>
        <time>2019-09-15T06:30:06.000Z</time>
      </trkpt>
      <trkpt lat="45.18949" lon="5.85892">
        <ele>582.64</ele>
        <time>2019-09-15T06:30:11.000Z</time>
      </trkpt>
      <trkpt lat="45.18949" lon="5.85795">
        <ele>574.8</ele>
        <time>2019-09-15T06:30:16.000Z</time>
      </trkpt>
      <trkpt lat="45.18939" lon="5.85697">
        <ele>568.68</ele>
        <time>2019-09-15T06:30:21.000Z</time>
      </trkpt>
      <trkpt lat="45.18947" lon="5.85614">
        <ele>561.46</ele>
        <time>2019-09-15T06:30:26.000Z</time>
      </trkpt>
      <trkpt lat="45.18979" lon="5.85545">
        <ele>552.8</ele>
        <time>2019-09-15T06:30:31.000Z</time>
      </trkpt>
      <trkpt lat="45.1902" lon="5.85489">
        <ele>551.85</ele>
        <time>2019-09-15T06:30:36.000Z</time>
      </trkpt>
      <trkpt lat="45.19087" lon="5.85457">
        <ele>543.6</ele>
        <time>2019-09-15T06:30:41.000Z</time>
      </trkpt>
      <trkpt lat="45.19144" lon="5.85405">
        <ele>537.41</ele>
        <time>2019-09-15T06:30:46.000Z</time>
      </trkpt>
      <trkpt lat="45.19205" lon="5.85364">
        <ele>526.77</ele>
        <time>2019-09-15T06:30:51.000Z</time>
      </trkpt>
      <trkpt lat="45.19278" lon="5.85356">
        <ele>517.8</ele>
        <time>2019-09-15T06:30:56.000Z</time>
      </trkpt>
      <trkpt lat="45.19335" lon="5.85322">
        <ele>514.25</ele>
        <time>2019-09-15T06:31:01.000Z</time>
      </trkpt>
      <trkpt lat="45.1937" lon="5.85374">
        <ele>508.69</ele>
        <time>2019-09-15T06:31:06.000Z</time>
      </trkpt>
      <trkpt lat="45.19379" lon="5.85357">
        <ele>506.68</ele>
        <time>2019-09-15T06:31:11.000Z</time>
      </trkpt>
      <trkpt lat="45.19375" lon="5.85319">
        <ele>502.19</ele>
        <time>2019-09-15T06:31:16.000Z</time>
      </trkpt>
      <trkpt lat="45.19375" lon="5.85254">
        <ele>496.58</ele>
        <time>2019-09-15T06:31:21.000Z</time>
      </trkpt>
      <trkpt lat="45.19396" lon="5.85187">
        <ele>491.83</ele>
        <time>2019-09-15T06:31:26.000Z</time>
      </trkpt>
      <trkpt lat="45.19447" lon="5.85183">
        <ele>488.68</ele>
        <time>2019-09-15T06:31:31.000Z</time>
      </trkpt>
      <trkpt lat="45.19475" lon="5.85147">
        <ele>493.3</ele>
        <time>2019-09-15T06:31:36.000Z</time>
      </trkpt>
      <trkpt lat="45.19489" lon="5.8505">
        <ele>487.61</ele>
        <time>2019-09-15T06:31:41.000Z</time>
      </trkpt>
      <trkpt lat="45.19543" lon="5.84987">
        <ele>482.21</ele>
        <time>2019-09-15T06:31:46.000Z</time>
      </trkpt>
      <trkpt lat="45.19607" lon="5.84943">
        <ele>477.94</ele>
        <time>2019-09-15T06:31:51.000Z</time>
      </trkpt>
      <trkpt lat="45.19656" lon="5.8487">
        <ele>476.05</ele>
        <time>2019-09-15T06:31:56.000Z</time>
      </trkpt>
      <trkpt lat="45.19719" lon="5.84825">
        <ele>468.69</ele>
        <time>2019-09-15T06:32:01.000Z</time>
      </trkpt>
      <trkpt lat="45.19791" lon="5.84785">
        <ele>462.16</ele>
        <time>2019-09-15T06:32:06.000Z</time>
      </trkpt>
      <trkpt lat="45.19844" lon="5.8478">
        <ele>457</ele>
        <time>2019-09-15T06:32:11.000Z</time>
      </trkpt>
      <trkpt lat="45.19849" lon="5.84746">
        <ele>455.42</ele>
        <time>2019-09-15T06:32:16.000Z</time>
      </trkpt>
      <trkpt lat="45.1984" lon="5.84669">
        <ele>452.41</ele>
        <time>2019-09-15T06:32:21.000Z</time>
      </trkpt>
      <trkpt lat="45.19884" lon="5.84604">
        <ele>443.55</ele>
        <time>2019-09-15T06:32:26.000Z</time>
      </trkpt>
      <trkpt lat="45.19932" lon="5.84545">
        <ele>430.99</ele>
        <time>2019-09-15T06:32:31.000Z</time>
      </trkpt>
      <trkpt lat="45.19976" lon="5.84488">
        <ele>420.8</ele>
        <time>2019-09-15T06:32:36.000Z</time>
      </trkpt>
      <trkpt lat="45.2003" lon="5.84459">
        <ele>417.75</ele>
        <time>2019-09-15T06:32:41.000Z</time>
      </trkpt>
      <trkpt lat="45.20089" lon="5.8447">
        <ele>415.2</ele>
        <time>2019-09-15T06:32:46.000Z</time>
      </trkpt>
      <trkpt lat="45.20144" lon="5.84544">
        <ele>407.23</ele>
        <time>2019-09-15T06:32:51.000Z</time>
      </trkpt>
      <trkpt lat="45.20191" lon="5.84621">
        <ele>401.39</ele>
        <time>2019-09-15T06:32:56.000Z</time>
      </trkpt>
      <trkpt lat="45.20229" lon="5.84691">
        <ele>400.39</ele>
        <time>2019-09-15T06:33:01.000Z</time>
      </trkpt>
      <trkpt lat="45.20281" lon="5.84759">
        <ele>398.29</ele>
        <time>2019-09-15T06:33:06.000Z</time>
      </trkpt>
      <trkpt lat="45.20308" lon="5.84849">
        <ele>396.85</ele>
        <time>2019-09-15T06:33:11.000Z</time>
      </trkpt>
      <trkpt lat="45.20357" lon="5.84929">
        <ele>393.95</ele>
        <time>2019-09-15T06:33:16.000Z</time>
      </trkpt>
      <trkpt lat="45.20401" lon="5.8501">
        <ele>386.67</ele>
        <time>2019-09-15T06:33:21.000Z</time>
      </trkpt>
      <trkpt lat="45.20437" lon="5.85069">
        <ele>387.28</ele>
        <time>2019-09-15T06:33:26.000Z</time>
      </trkpt>
      <trkpt lat="45.20452" lon="5.85097">
        <ele>386.48</ele>
        <time>2019-09-15T06:33:31.000Z</time>
      </trkpt>
      <trkpt lat="45.20428" lon="5.8507">
        <ele>375.18</ele>
        <time>2019-09-15T06:33:36.000Z</time>
      </trkpt>
      <trkpt lat="45.20418" lon="5.85032">
        <ele>371.05</ele>
        <time>2019-09-15T06:33:41.000Z</time>
      </trkpt>
      <trkpt lat="45.20402" lon="5.84964">
        <ele>370.74</ele>
        <time>2019-09-15T06:33:46.000Z</time>
      </trkpt>
      <trkpt lat="45.20374" lon="5.84887">
        <ele>367.55</ele>
        <time>2019-09-15T06:33:51.000Z</time>
      </trkpt>
      <trkpt lat="45.20345" lon="5.8481">
        <ele>362.81</ele>
        <time>2019-09-15T06:33:56.000Z</time>
      </trkpt>
      <trkpt lat="45.20346" lon="5.84754">
        <ele>358.48</ele>
        <time>2019-09-15T06:34:01.000Z</time>
      </trkpt>
      <trkpt lat="45.20332" lon="5.84689">
        <ele>348.26</ele>
        <time>2019-09-15T06:34:06.000Z</time>
      </trkpt>
      <trkpt lat="45.20309" lon="5.84615">
        <ele>343.18</ele>
        <time>2019-09-15T06:34:11.000Z</time>
      </trkpt>
      <trkpt lat="45.20273" lon="5.8453">
        <ele>330.46</ele>
        <time>2019-09-15T06:34:16.000Z</time>
      </trkpt>
      <trkpt lat="45.20253" lon="5.84428">
        <ele>324.86</ele>
        <time>2019-09-15T06:34:21.000Z</time>
      </trkpt>
      <trkpt lat="45.20232" lon="5.84345">
        <ele>321.49</ele>
        <time>2019-09-15T06:34:26.000Z</time>
      </trkpt>
      <trkpt lat="45.20193" lon="5.84264">
        <ele>311.35</ele>
        <time>2019-09-15T06:34:31.000Z</time>
      </trkpt>
      <trkpt lat="45.20162" lon="5.84212">
        <ele>308.64</ele>
        <time>2019-09-15T06:34:36.000Z</time>
      </trkpt>
      <trkpt lat="45.20106" lon="5.84236">
        <ele>303.13</ele>
        <time>2019-09-15T06:34:41.000Z</time>
      </trkpt>
      <trkpt lat="45.20044" lon="5.84248">
        <ele>299.81</ele>
        <time>2019-09-15T06:34:46.000Z</time>
      </trkpt>
      <trkpt lat="45.19993" lon="5.8426">
        <ele>291.49</ele>
        <time>2019-09-15T06:34:51.000Z</time>
      </trkpt>
      <trkpt lat="45.19994" lon="5.8422">
        <ele>282.36</ele>
        <time>2019-09-15T06:34:56.000Z</time>
      </trkpt>
      <trkpt lat="45.2005" lon="5.84183">
        <ele>279.37</ele>
        <time>2019-09-15T06:35:01.000Z</time>
      </trkpt>
      <trkpt lat="45.20082" lon="5.84142">
        <ele>277.2</ele>
        <time>2019-09-15T06:35:06.000Z</time>
      </trkpt>
      <trkpt lat="45.20099" lon="5.84098">
        <ele>275.26</ele>
        <time>2019-09-15T06:35:11.000Z</time>
      </trkpt>
      <trkpt lat="45.20118" lon="5.84066">
        <ele>269.28</ele>
        <time>2019-09-15T06:35:16.000Z</time>
      </trkpt>
      <trkpt lat="45.20136" lon="5.84022">
        <ele>266.82</ele>
        <time>2019-09-15T06:35:21.000Z</time>
      </trkpt>
      <trkpt lat="45.20141" lon="5.83994">
        <ele>261.56</ele>
        <time>2019-09-15T06:35:26.000Z</time>
      </trkpt>
      <trkpt lat="45.2016" lon="5.84001">
        <ele>250.86</ele>
        <time>2019-09-15T06:35:31.000Z</time>
      </trkpt>
      <trkpt lat="45.20161" lon="5.8398">
        <ele>248.71</ele>
        <time>2019-09-15T06:35:36.000Z</time>
      </trkpt>
      <trkpt lat="45.20163" lon="5.83966">
        <ele>248.48</ele>
        <time>2019-09-15T06:35:41.000Z</time>
      </trkpt>
      <trkpt lat="45.20169" lon="5.83954">
        <ele>248.76</ele>
        <time>2019-09-15T06:35:46.000Z</time>
      </trkpt>
      <trkpt lat="45.20176" lon="5.83937">
        <ele>247.38</ele>
        <time>2019-09-15T06:35:51.000Z</time>
      </trkpt>
      <trkpt lat="45.20188" lon="5.83918">
        <ele>243.59</ele>
        <time>2019-09-15T06:35:56.000Z</time>
      </trkpt>
      <trkpt lat="45.20198" lon="5.83902">
        <ele>239.25</ele>
        <time>2019-09-15T06:36:01.000Z</time>
      </trkpt>
      <trkpt lat="45.20212" lon="5.83887">
        <ele>240.54</ele>
        <time>2019-09-15T06:36:06.000Z</time>
      </trkpt>
      <trkpt lat="45.20223" lon="5.83868">
        <ele>238.76</ele>
        <time>2019-09-15T06:36:11.000Z</time>
      </trkpt>
      <trkpt lat="45.20242" lon="5.83835">
        <ele>238.31</ele>
        <time>2019-09-15T06:36:16.000Z</time>
      </trkpt>
      <trkpt lat="45.20257" lon="5.83812">
        <ele>238.71</ele>
        <time>2019-09-15T06:36:21.000Z</time>
      </trkpt>
      <trkpt lat="45.2027" lon="5.83784">
        <ele>232.36</ele>
        <time>2019-09-15T06:36:26.000Z</time>
      </trkpt>
      <trkpt lat="45.20287" lon="5.83764">
        <ele>231.13</ele>
        <time>2019-09-15T06:36:31.000Z</time>
      </trkpt>
      <trkpt lat="45.20317" lon="5.83739">
        <ele>231.51</ele>
        <time>2019-09-15T06:36:36.000Z</time>
      </trkpt>
      <trkpt lat="45.20343" lon="5.83714">
        <ele>231.53</ele>
        <time>2019-09-15T06:36:41.000Z</time>
      </trkpt>
      <trkpt lat="45.20371" lon="5.83686">
        <ele>233.64</ele>
        <time>2019-09-15T06:36:46.000Z</time>
      </trkpt>
      <trkpt lat="45.204" lon="5.8366">
        <ele>234.72</ele>
        <time>2019-09-15T06:36:51.000Z</time>
      </trkpt>
      <trkpt lat="45.20427" lon="5.83631">
        <ele>232.28</ele>
        <time>2019-09-15T06:36:56.000Z</time>
      </trkpt>
      <trkpt lat="45.20457" lon="5.83604">
        <ele>230.91</ele>
        <time>2019-09-15T06:37:01.000Z</time>
      </trkpt>
      <trkpt lat="45.20488" lon="5.83572">
        <ele>233.59</ele>
        <time>2019-09-15T06:37:06.000Z</time>
      </trkpt>
      <trkpt lat="45.20525" lon="5.83546">
        <ele>236.59</ele>
        <time>2019-09-15T06:37:11.000Z</time>
      </trkpt>
      <trkpt lat="45.20556" lon="5.83523">
        <ele>236.12</ele>
        <time>2019-09-15T06:37:16.000Z</time>
      </trkpt>
      <trkpt lat="45.20587" lon="5.83499">
        <ele>233.7</ele>
        <time>2019-09-15T06:37:21.000Z</time>
      </trkpt>
      <trkpt lat="45.20617" lon="5.83476">
        <ele>232.18</ele>
        <time>2019-09-15T06:37:26.000Z</time>
      </trkpt>
      <trkpt lat="45.20651" lon="5.83457">
        <ele>227.17</ele>
        <time>2019-09-15T06:37:31.000Z</time>
      </trkpt>
      <trkpt lat="45.2068" lon="5.83431">
        <ele>224.31</ele>
        <time>2019-09-15T06:37:36.000Z</time>
      </trkpt>
      <trkpt lat="45.20711" lon="5.83405">
        <ele>220.43</ele>
        <time>2019-09-15T06:37:41.000Z</time>
      </trkpt>
      <trkpt lat="45.20747" lon="5.83384">
        <ele>219.27</ele>
        <time>2019-09-15T06:37:46.000Z</time>
      </trkpt>
      <trkpt lat="45.20781" lon="5.83356">
        <ele>218.08</ele>
        <time>2019-09-15T06:37:51.000Z</time>
      </trkpt>
      <trkpt lat="45.20814" lon="5.83327">
        <ele>220.5</ele>
        <time>2019-09-15T06:37:56.000Z</time>
      </trkpt>
      <trkpt lat="45.20844" lon="5.83302">
        <ele>221.88</ele>
        <time>2019-09-15T06:38:01.000Z</time>
      </trkpt>
      <trkpt lat="45.20876" lon="5.83282">
        <ele>222.04</ele>
        <time>2019-09-15T06:38:06.000Z</time>
      </trkpt>
      <trkpt lat="45.20906" lon="5.83257">
        <ele>221.58</ele>
        <time>2019-09-15T06:38:11.000Z</time>
      </trkpt>
      <trkpt lat="45.20937" lon="5.83236">
        <ele>222.25</ele>
        <time>2019-09-15T06:38:16.000Z</time>
      </trkpt>
      <trkpt lat="45.20964" lon="5.83223">
        <ele>221.63</ele>
        <time>2019-09-15T06:38:21.000Z</time>
      </trkpt>
      <trkpt lat="45.20994" lon="5.83225">
        <ele>223.37</ele>
        <time>2019-09-15T06:38:26.000Z</time>
      </trkpt>
      <trkpt lat="45.2102" lon="5.83244">
        <ele>223.81</ele>
        <time>2019-09-15T06:38:31.000Z</time>
      </trkpt>
      <trkpt lat="45.2105" lon="5.83257">
        <ele>221.46</ele>
        <time>2019-09-15T06:38:36.000Z</time>
      </trkpt>
      <trkpt lat="45.2107" lon="5.83228">
        <ele>222.27</ele>
        <time>2019-09-15T06:38:41.000Z</time>
      </trkpt>
      <trkpt lat="45.21082" lon="5.83188">
        <ele>223.21</ele>
        <time>2019-09-15T06:38:46.000Z</time>
      </trkpt>
      <trkpt lat="45.21098" lon="5.83154">
        <ele>223.76</ele>
        <time>2019-09-15T06:38:51.000Z</time>
      </trkpt>
      <trkpt lat="45.21115" lon="5.83121">
        <ele>225.66</ele>
        <time>2019-09-15T06:38:56.000Z</time>
      </trkpt>
      <trkpt lat="45.21138" lon="5.83091">
        <ele>224.31</ele>
        <time>2019-09-15T06:39:01.000Z</time>
      </trkpt>
      <trkpt lat="45.21157" lon="5.83058">
        <ele>225.19</ele>
        <time>2019-09-15T06:39:06.000Z</time>
      </trkpt>
      <trkpt lat="45.21173" lon="5.83019">
        <ele>227.29</ele>
        <time>2019-09-15T06:39:11.000Z</time>
      </trkpt>
      <trkpt lat="45.21193" lon="5.82982">
        <ele>227.38</ele>
        <time>2019-09-15T06:39:16.000Z</time>
      </trkpt>
      <trkpt lat="45.21214" lon="5.82939">
        <ele>226.14</ele>
        <time>2019-09-15T06:39:21.000Z</time>
      </trkpt>
      <trkpt lat="45.21231" lon="5.82899">
        <ele>224.28</ele>
        <time>2019-09-15T06:39:26.000Z</time>
      </trkpt>
      <trkpt lat="45.21255" lon="5.82858">
        <ele>221.85</ele>
        <time>2019-09-15T06:39:31.000Z</time>
      </trkpt>
      <trkpt lat="45.21273" lon="5.82815">
        <ele>221.92</ele>
        <time>2019-09-15T06:39:36.000Z</time>
      </trkpt>
      <trkpt lat="45.2129" lon="5.828">
        <ele>219.52</ele>
        <time>2019-09-15T06:39:41.000Z</time>
      </trkpt>
      <trkpt lat="45.21278" lon="5.82828">
        <ele>215.52</ele>
        <time>2019-09-15T06:39:46.000Z</time>
      </trkpt>
      <trkpt lat="45.2126" lon="5.82866">
        <ele>214.79</ele>
        <time>2019-09-15T06:39:51.000Z</time>
      </trkpt>
      <trkpt lat="45.21242" lon="5.82905">
        <ele>216.03</ele>
        <time>2019-09-15T06:39:56.000Z</time>
      </trkpt>
      <trkpt lat="45.21226" lon="5.82935">
        <ele>215.89</ele>
        <time>2019-09-15T06:40:01.000Z</time>
      </trkpt>
      <trkpt lat="45.21238" lon="5.82952">
        <ele>219.09</ele>
        <time>2019-09-15T06:40:06.000Z</time>
      </trkpt>
      <trkpt lat="45.21242" lon="5.82968">
        <ele>218.84</ele>
        <time>2019-09-15T06:40:11.000Z</time>
      </trkpt>
      <trkpt lat="45.21251" lon="5.8298">
        <ele>218.15</ele>
        <time>2019-09-15T06:40:16.000Z</time>
      </trkpt>
      <trkpt lat="45.21264" lon="5.82991">
        <ele>218.5</ele>
        <time>2019-09-15T06:40:21.000Z</time>
      </trkpt>
      <trkpt lat="45.21276" lon="5.83004">
        <ele>218.64</ele>
        <time>2019-09-15T06:40:26.000Z</time>
      </trkpt>
      <trkpt lat="45.21289" lon="5.83023">
        <ele>218.56</ele>
        <time>2019-09-15T06:40:31.000Z</time>
      </trkpt>
      <trkpt lat="45.21306" lon="5.83038">
        <ele>218.04</ele>
        <time>2019-09-15T06:40:36.000Z</time>
      </trkpt>
      <trkpt lat="45.21319" lon="5.83054">
        <ele>215.72</ele>
        <time>2019-09-15T06:40:41.000Z</time>
      </trkpt>
      <trkpt lat="45.21334" lon="5.83067">
        <ele>219.63</ele>
        <time>2019-09-15T06:41:57.000Z</time>
      </trkpt>
      <trkpt lat="45.21359" lon="5.83094">
        <ele>217.85</ele>
        <time>2019-09-15T06:42:02.000Z</time>
      </trkpt>
      <trkpt lat="45.21381" lon="5.83115">
        <ele>220.17</ele>
        <time>2019-09-15T06:42:07.000Z</time>
      </trkpt>
      <trkpt lat="45.21406" lon="5.83138">
        <ele>217.15</ele>
        <time>2019-09-15T06:42:12.000Z</time>
      </trkpt>
      <trkpt lat="45.21434" lon="5.83166">
        <ele>217.39</ele>
        <time>2019-09-15T06:42:17.000Z</time>
      </trkpt>
      <trkpt lat="45.2146" lon="5.83199">
        <ele>216.32</ele>
        <time>2019-09-15T06:42:22.000Z</time>
      </trkpt>
      <trkpt lat="45.21484" lon="5.83236">
        <ele>217.63</ele>
        <time>2019-09-15T06:42:27.000Z</time>
      </trkpt>
      <trkpt lat="45.21506" lon="5.83267">
        <ele>218.84</ele>
        <time>2019-09-15T06:42:32.000Z</time>
      </trkpt>
      <trkpt lat="45.2153" lon="5.83296">
        <ele>220.2</ele>
        <time>2019-09-15T06:42:37.000Z</time>
      </trkpt>
      <trkpt lat="45.21553" lon="5.83331">
        <ele>217.73</ele>
        <time>2019-09-15T06:42:42.000Z</time>
      </trkpt>
      <trkpt lat="45.21578" lon="5.83366">
        <ele>215.77</ele>
        <time>2019-09-15T06:42:47.000Z</time>
      </trkpt>
      <trkpt lat="45.216" lon="5.83399">
        <ele>219.74</ele>
        <time>2019-09-15T06:42:52.000Z</time>
      </trkpt>
      <trkpt lat="45.2162" lon="5.83432">
        <ele>218.44</ele>
        <time>2019-09-15T06:42:57.000Z</time>
      </trkpt>
      <trkpt lat="45.21641" lon="5.83471">
        <ele>219.97</ele>
        <time>2019-09-15T06:43:02.000Z</time>
      </trkpt>
      <trkpt lat="45.2166" lon="5.83507">
        <ele>220.58</ele>
        <time>2019-09-15T06:43:07.000Z</time>
      </trkpt>
      <trkpt lat="45.21682" lon="5.83546">
        <ele>215.89</ele>
        <time>2019-09-15T06:43:12.000Z</time>
      </trkpt>
      <trkpt lat="45.21698" lon="5.83581">
        <ele>215.17</ele>
        <time>2019-09-15T06:43:17.000Z</time>
      </trkpt>
      <trkpt lat="45.21719" lon="5.83614">
        <ele>217.5</ele>
        <time>2019-09-15T06:43:22.000Z</time>
      </trkpt>
      <trkpt lat="45.21734" lon="5.83644">
        <ele>219.35</ele>
        <time>2019-09-15T06:43:27.000Z</time>
      </trkpt>
      <trkpt lat="45.2175" lon="5.83682">
        <ele>217.93</ele>
        <time>2019-09-15T06:43:32.000Z</time>
      </trkpt>
      <trkpt lat="45.21769" lon="5.83717">
        <ele>221.08</ele>
        <time>2019-09-15T06:43:37.000Z</time>
      </trkpt>
      <trkpt lat="45.21789" lon="5.83755">
        <ele>223.76</ele>
        <time>2019-09-15T06:43:42.000Z</time>
      </trkpt>
      <trkpt lat="45.21809" lon="5.83787">
        <ele>223</ele>
        <time>2019-09-15T06:43:47.000Z</time>
      </trkpt>
      <trkpt lat="45.21831" lon="5.83811">
        <ele>221.79</ele>
        <time>2019-09-15T06:43:52.000Z</time>
      </trkpt>
      <trkpt lat="45.21863" lon="5.83852">
        <ele>222.09</ele>
        <time>2019-09-15T06:43:57.000Z</time>
      </trkpt>
      <trkpt lat="45.21877" lon="5.83875">
        <ele>222.19</ele>
        <time>2019-09-15T06:44:02.000Z</time>
      </trkpt>
      <trkpt lat="45.21907" lon="5.8392">
        <ele>222.87</ele>
        <time>2019-09-15T06:44:07.000Z</time>
      </trkpt>
      <trkpt lat="45.21926" lon="5.83957">
        <ele>221.47</ele>
        <time>2019-09-15T06:44:12.000Z</time>
      </trkpt>
      <trkpt lat="45.21944" lon="5.83987">
        <ele>222.41</ele>
        <time>2019-09-15T06:44:17.000Z</time>
      </trkpt>
      <trkpt lat="45.21967" lon="5.84028">
        <ele>221.73</ele>
        <time>2019-09-15T06:44:22.000Z</time>
      </trkpt>
      <trkpt lat="45.21986" lon="5.84057">
        <ele>220.13</ele>
        <time>2019-09-15T06:44:27.000Z</time>
      </trkpt>
      <trkpt lat="45.22012" lon="5.8409">
        <ele>219.23</ele>
        <time>2019-09-15T06:44:32.000Z</time>
      </trkpt>
      <trkpt lat="45.22036" lon="5.84121">
        <ele>218.25</ele>
        <time>2019-09-15T06:44:37.000Z</time>
      </trkpt>
      <trkpt lat="45.22063" lon="5.84146">
        <ele>219.76</ele>
        <time>2019-09-15T06:44:42.000Z</time>
      </trkpt>
      <trkpt lat="45.22091" lon="5.84168">
        <ele>222.68</ele>
        <time>2019-09-15T06:44:47.000Z</time>
      </trkpt>
      <trkpt lat="45.22116" lon="5.84189">
        <ele>223.43</ele>
        <time>2019-09-15T06:44:52.000Z</time>
      </trkpt>
      <trkpt lat="45.22141" lon="5.84219">
        <ele>224.35</ele>
        <time>2019-09-15T06:44:57.000Z</time>
      </trkpt>
      <trkpt lat="45.22166" lon="5.8425">
        <ele>223.72</ele>
        <time>2019-09-15T06:45:02.000Z</time>
      </trkpt>
      <trkpt lat="45.22186" lon="5.84278">
        <ele>223.79</ele>
        <time>2019-09-15T06:45:07.000Z</time>
      </trkpt>
      <trkpt lat="45.22209" lon="5.84314">
        <ele>226.32</ele>
        <time>2019-09-15T06:45:12.000Z</time>
      </trkpt>
      <trkpt lat="45.22228" lon="5.8434">
        <ele>223.65</ele>
        <time>2019-09-15T06:45:17.000Z</time>
      </trkpt>
      <trkpt lat="45.2225" lon="5.84365">
        <ele>222.07</ele>
        <time>2019-09-15T06:45:22.000Z</time>
      </trkpt>
      <trkpt lat="45.22276" lon="5.84385">
        <ele>223.73</ele>
        <time>2019-09-15T06:45:27.000Z</time>
      </trkpt>
      <trkpt lat="45.22297" lon="5.84409">
        <ele>224.15</ele>
        <time>2019-09-15T06:45:32.000Z</time>
      </trkpt>
      <trkpt lat="45.22321" lon="5.84441">
        <ele>225.18</ele>
        <time>2019-09-15T06:45:37.000Z</time>
      </trkpt>
      <trkpt lat="45.22345" lon="5.84471">
        <ele>224.68</ele>
        <time>2019-09-15T06:45:42.000Z</time>
      </trkpt>
      <trkpt lat="45.22368" lon="5.84497">
        <ele>221.54</ele>
        <time>2019-09-15T06:45:47.000Z</time>
      </trkpt>
      <trkpt lat="45.22393" lon="5.84529">
        <ele>223.02</ele>
        <time>2019-09-15T06:45:52.000Z</time>
      </trkpt>
      <trkpt lat="45.22417" lon="5.8456">
        <ele>221.99</ele>
        <time>2019-09-15T06:45:57.000Z</time>
      </trkpt>
      <trkpt lat="45.2244" lon="5.84591">
        <ele>221.23</ele>
        <time>2019-09-15T06:46:02.000Z</time>
      </trkpt>
      <trkpt lat="45.22465" lon="5.84617">
        <ele>221.7</ele>
        <time>2019-09-15T06:46:07.000Z</time>
      </trkpt>
      <trkpt lat="45.22487" lon="5.84647">
        <ele>222.26</ele>
        <time>2019-09-15T06:46:12.000Z</time>
      </trkpt>
      <trkpt lat="45.22513" lon="5.84678">
        <ele>222.91</ele>
        <time>2019-09-15T06:46:17.000Z</time>
      </trkpt>
      <trkpt lat="45.22537" lon="5.84708">
        <ele>224.41</ele>
        <time>2019-09-15T06:46:22.000Z</time>
      </trkpt>
      <trkpt lat="45.2256" lon="5.84736">
        <ele>223.64</ele>
        <time>2019-09-15T06:46:27.000Z</time>
      </trkpt>
      <trkpt lat="45.22583" lon="5.84767">
        <ele>223.34</ele>
        <time>2019-09-15T06:46:32.000Z</time>
      </trkpt>
      <trkpt lat="45.22608" lon="5.848">
        <ele>221.47</ele>
        <time>2019-09-15T06:46:37.000Z</time>
      </trkpt>
      <trkpt lat="45.22634" lon="5.84832">
        <ele>223.22</ele>
        <time>2019-09-15T06:46:42.000Z</time>
      </trkpt>
      <trkpt lat="45.22659" lon="5.84856">
        <ele>222.04</ele>
        <time>2019-09-15T06:46:47.000Z</time>
      </trkpt>
      <trkpt lat="45.22681" lon="5.84885">
        <ele>222.14</ele>
        <time>2019-09-15T06:46:52.000Z</time>
      </trkpt>
      <trkpt lat="45.22706" lon="5.84919">
        <ele>221.6</ele>
        <time>2019-09-15T06:46:57.000Z</time>
      </trkpt>
      <trkpt lat="45.22728" lon="5.84949">
        <ele>219</ele>
        <time>2019-09-15T06:47:02.000Z</time>
      </trkpt>
      <trkpt lat="45.22754" lon="5.84979">
        <ele>220.54</ele>
        <time>2019-09-15T06:47:07.000Z</time>
      </trkpt>
      <trkpt lat="45.22781" lon="5.85009">
        <ele>219.98</ele>
        <time>2019-09-15T06:47:12.000Z</time>
      </trkpt>
      <trkpt lat="45.22805" lon="5.85038">
        <ele>223</ele>
        <time>2019-09-15T06:47:17.000Z</time>
      </trkpt>
      <trkpt lat="45.22828" lon="5.85062">
        <ele>222.71</ele>
        <time>2019-09-15T06:47:22.000Z</time>
      </trkpt>
      <trkpt lat="45.2285" lon="5.85095">
        <ele>222.85</ele>
        <time>2019-09-15T06:47:27.000Z</time>
      </trkpt>
      <trkpt lat="45.22875" lon="5.85124">
        <ele>221.74</ele>
        <time>2019-09-15T06:47:32.000Z</time>
      </trkpt>
      <trkpt lat="45.229" lon="5.85153">
        <ele>220.77</ele>
        <time>2019-09-15T06:47:37.000Z</time>
      </trkpt>
      <trkpt lat="45.22926" lon="5.85184">
        <ele>221.04</ele>
        <time>2019-09-15T06:47:42.000Z</time>
      </trkpt>
      <trkpt lat="45.22948" lon="5.85215">
        <ele>222.54</ele>
        <time>2019-09-15T06:47:47.000Z</time>
      </trkpt>
      <trkpt lat="45.22971" lon="5.85244">
        <ele>225.5</ele>
        <time>2019-09-15T06:47:52.000Z</time>
      </trkpt>
      <trkpt lat="45.2299" lon="5.85268">
        <ele>226.7</ele>
        <time>2019-09-15T06:47:57.000Z</time>
      </trkpt>
      <trkpt lat="45.23009" lon="5.85288">
        <ele>227.16</ele>
        <time>2019-09-15T06:48:02.000Z</time>
      </trkpt>
      <trkpt lat="45.23028" lon="5.85319">
        <ele>227.01</ele>
        <time>2019-09-15T06:48:07.000Z</time>
      </trkpt>
      <trkpt lat="45.2305" lon="5.85358">
        <ele>223.71</ele>
        <time>2019-09-15T06:48:12.000Z</time>
      </trkpt>
      <trkpt lat="45.23079" lon="5.85405">
        <ele>223.31</ele>
        <time>2019-09-15T06:48:17.000Z</time>
      </trkpt>
      <trkpt lat="45.23108" lon="5.85426">
        <ele>223.76</ele>
        <time>2019-09-15T06:48:22.000Z</time>
      </trkpt>
      <trkpt lat="45.23128" lon="5.85442">
        <ele>225.2</ele>
        <time>2019-09-15T06:48:27.000Z</time>
      </trkpt>
      <trkpt lat="45.23146" lon="5.85459">
        <ele>225.35</ele>
        <time>2019-09-15T06:48:32.000Z</time>
      </trkpt>
      <trkpt lat="45.23171" lon="5.85475">
        <ele>225.67</ele>
        <time>2019-09-15T06:48:37.000Z</time>
      </trkpt>
      <trkpt lat="45.232" lon="5.85486">
        <ele>226.67</ele>
        <time>2019-09-15T06:48:42.000Z</time>
      </trkpt>
      <trkpt lat="45.2323" lon="5.85494">
        <ele>228.07</ele>
        <time>2019-09-15T06:48:47.000Z</time>
      </trkpt>
      <trkpt lat="45.23263" lon="5.85496">
        <ele>224.66</ele>
        <time>2019-09-15T06:48:52.000Z</time>
      </trkpt>
      <trkpt lat="45.23291" lon="5.85498">
        <ele>221.07</ele>
        <time>2019-09-15T06:48:57.000Z</time>
      </trkpt>
      <trkpt lat="45.23325" lon="5.85496">
        <ele>222.15</ele>
        <time>2019-09-15T06:49:02.000Z</time>
      </trkpt>
      <trkpt lat="45.23354" lon="5.85497">
        <ele>222.61</ele>
        <time>2019-09-15T06:49:07.000Z</time>
      </trkpt>
      <trkpt lat="45.23385" lon="5.85499">
        <ele>221.32</ele>
        <time>2019-09-15T06:49:12.000Z</time>
      </trkpt>
      <trkpt lat="45.23429" lon="5.85504">
        <ele>225.76</ele>
        <time>2019-09-15T06:49:17.000Z</time>
      </trkpt>
      <trkpt lat="45.2346" lon="5.85507">
        <ele>225.44</ele>
        <time>2019-09-15T06:49:22.000Z</time>
      </trkpt>
      <trkpt lat="45.23493" lon="5.85511">
        <ele>228.79</ele>
        <time>2019-09-15T06:49:27.000Z</time>
      </trkpt>
      <trkpt lat="45.23525" lon="5.8552">
        <ele>226.93</ele>
        <time>2019-09-15T06:49:32.000Z</time>
      </trkpt>
      <trkpt lat="45.23558" lon="5.8552">
        <ele>225.71</ele>
        <time>2019-09-15T06:49:37.000Z</time>
      </trkpt>
      <trkpt lat="45.23574" lon="5.85485">
        <ele>228.09</ele>
        <time>2019-09-15T06:49:42.000Z</time>
      </trkpt>
      <trkpt lat="45.23591" lon="5.85457">
        <ele>224.15</ele>
        <time>2019-09-15T06:49:47.000Z</time>
      </trkpt>
      <trkpt lat="45.2362" lon="5.85445">
        <ele>225.95</ele>
        <time>2019-09-15T06:49:52.000Z</time>
      </trkpt>
      <trkpt lat="45.23652" lon="5.85442">
        <ele>229.5</ele>
        <time>2019-09-15T06:49:57.000Z</time>
      </trkpt>
      <trkpt lat="45.23683" lon="5.85435">
        <ele>230.75</ele>
        <time>2019-09-15T06:50:02.000Z</time>
      </trkpt>
      <trkpt lat="45.23718" lon="5.8543">
        <ele>228.89</ele>
        <time>2019-09-15T06:50:07.000Z</time>
      </trkpt>
      <trkpt lat="45.23749" lon="5.85427">
        <ele>228.65</ele>
        <time>2019-09-15T06:50:12.000Z</time>
      </trkpt>
      <trkpt lat="45.23783" lon="5.85422">
        <ele>228.33</ele>
        <time>2019-09-15T06:50:17.000Z</time>
      </trkpt>
      <trkpt lat="45.23816" lon="5.85417">
        <ele>231.17</ele>
        <time>2019-09-15T06:50:22.000Z</time>
      </trkpt>
      <trkpt lat="45.23849" lon="5.85413">
        <ele>232.16</ele>
        <time>2019-09-15T06:50:27.000Z</time>
      </trkpt>
      <trkpt lat="45.23882" lon="5.85409">
        <ele>234.99</ele>
        <time>2019-09-15T06:50:32.000Z</time>
      </trkpt>
      <trkpt lat="45.23914" lon="5.85402">
        <ele>234.91</ele>
        <time>2019-09-15T06:50:37.000Z</time>
      </trkpt>
      <trkpt lat="45.23947" lon="5.8539">
        <ele>230.77</ele>
        <time>2019-09-15T06:50:42.000Z</time>
      </trkpt>
      <trkpt lat="45.23971" lon="5.85361">
        <ele>230.9</ele>
        <time>2019-09-15T06:50:47.000Z</time>
      </trkpt>
      <trkpt lat="45.23993" lon="5.85333">
        <ele>229.7</ele>
        <time>2019-09-15T06:50:52.000Z</time>
      </trkpt>
      <trkpt lat="45.24011" lon="5.85315">
        <ele>230.28</ele>
        <time>2019-09-15T06:50:57.000Z</time>
      </trkpt>
      <trkpt lat="45.24032" lon="5.85336">
        <ele>227.12</ele>
        <time>2019-09-15T06:51:02.000Z</time>
      </trkpt>
      <trkpt lat="45.2405" lon="5.85373">
        <ele>227.44</ele>
        <time>2019-09-15T06:51:07.000Z</time>
      </trkpt>
      <trkpt lat="45.2407" lon="5.85402">
        <ele>229.55</ele>
        <time>2019-09-15T06:51:12.000Z</time>
      </trkpt>
      <trkpt lat="45.24086" lon="5.85416">
        <ele>232.48</ele>
        <time>2019-09-15T06:51:17.000Z</time>
      </trkpt>
      <trkpt lat="45.24099" lon="5.85424">
        <ele>233.51</ele>
        <time>2019-09-15T06:51:22.000Z</time>
      </trkpt>
      <trkpt lat="45.24112" lon="5.85409">
        <ele>234.44</ele>
        <time>2019-09-15T06:51:27.000Z</time>
      </trkpt>
      <trkpt lat="45.24125" lon="5.85406">
        <ele>235.13</ele>
        <time>2019-09-15T06:51:32.000Z</time>
      </trkpt>
      <trkpt lat="45.24143" lon="5.85408">
        <ele>238.69</ele>
        <time>2019-09-15T06:51:37.000Z</time>
      </trkpt>
      <trkpt lat="45.24157" lon="5.85406">
        <ele>242.04</ele>
        <time>2019-09-15T06:51:42.000Z</time>
      </trkpt>
      <trkpt lat="45.24173" lon="5.85404">
        <ele>238.19</ele>
        <time>2019-09-15T06:51:47.000Z</time>
      </trkpt>
      <trkpt lat="45.24183" lon="5.85422">
        <ele>241.79</ele>
        <time>2019-09-15T06:51:52.000Z</time>
      </trkpt>
      <trkpt lat="45.24187" lon="5.85447">
        <ele>240.51</ele>
        <time>2019-09-15T06:51:57.000Z</time>
      </trkpt>
      <trkpt lat="45.24195" lon="5.85485">
        <ele>240.13</ele>
        <time>2019-09-15T06:52:02.000Z</time>
      </trkpt>
      <trkpt lat="45.24206" lon="5.85521">
        <ele>238.5</ele>
        <time>2019-09-15T06:52:07.000Z</time>
      </trkpt>
      <trkpt lat="45.24219" lon="5.85562">
        <ele>235.43</ele>
        <time>2019-09-15T06:52:12.000Z</time>
      </trkpt>
      <trkpt lat="45.24204" lon="5.85591">
        <ele>233.46</ele>
        <time>2019-09-15T06:52:17.000Z</time>
      </trkpt>
      <trkpt lat="45.2417" lon="5.85614">
        <ele>232.53</ele>
        <time>2019-09-15T06:52:22.000Z</time>
      </trkpt>
      <trkpt lat="45.24143" lon="5.85641">
        <ele>229.34</ele>
        <time>2019-09-15T06:52:27.000Z</time>
      </trkpt>
      <trkpt lat="45.24132" lon="5.85683">
        <ele>229.13</ele>
        <time>2019-09-15T06:52:32.000Z</time>
      </trkpt>
      <trkpt lat="45.24118" lon="5.85721">
        <ele>227.76</ele>
        <time>2019-09-15T06:52:37.000Z</time>
      </trkpt>
      <trkpt lat="45.24119" lon="5.85761">
        <ele>226.24</ele>
        <time>2019-09-15T06:52:42.000Z</time>
      </trkpt>
      <trkpt lat="45.24137" lon="5.85793">
        <ele>223.17</ele>
        <time>2019-09-15T06:52:47.000Z</time>
      </trkpt>
      <trkpt lat="45.24153" lon="5.85829">
        <ele>223.5</ele>
        <time>2019-09-15T06:52:52.000Z</time>
      </trkpt>
      <trkpt lat="45.24171" lon="5.85866">
        <ele>224.22</ele>
        <time>2019-09-15T06:52:57.000Z</time>
      </trkpt>
      <trkpt lat="45.2419" lon="5.85901">
        <ele>223.34</ele>
        <time>2019-09-15T06:53:02.000Z</time>
      </trkpt>
      <trkpt lat="45.24206" lon="5.85937">
        <ele>226.25</ele>
        <time>2019-09-15T06:53:07.000Z</time>
      </trkpt>
      <trkpt lat="45.24226" lon="5.85967">
        <ele>226.25</ele>
        <time>2019-09-15T06:53:12.000Z</time>
      </trkpt>
      <trkpt lat="45.24243" lon="5.86005">
        <ele>224.93</ele>
        <time>2019-09-15T06:53:17.000Z</time>
      </trkpt>
      <trkpt lat="45.24257" lon="5.86044">
        <ele>225.66</ele>
        <time>2019-09-15T06:53:22.000Z</time>
      </trkpt>
      <trkpt lat="45.24278" lon="5.8608">
        <ele>225.61</ele>
        <time>2019-09-15T06:53:27.000Z</time>
      </trkpt>
      <trkpt lat="45.24292" lon="5.86113">
        <ele>222.43</ele>
        <time>2019-09-15T06:53:32.000Z</time>
      </trkpt>
      <trkpt lat="45.24313" lon="5.86146">
        <ele>222.27</ele>
        <time>2019-09-15T06:53:37.000Z</time>
      </trkpt>
      <trkpt lat="45.24332" lon="5.86178">
        <ele>222.42</ele>
        <time>2019-09-15T06:53:42.000Z</time>
      </trkpt>
      <trkpt lat="45.24348" lon="5.86213">
        <ele>222.08</ele>
        <time>2019-09-15T06:53:47.000Z</time>
      </trkpt>
      <trkpt lat="45.24366" lon="5.86249">
        <ele>222.49</ele>
        <time>2019-09-15T06:53:52.000Z</time>
      </trkpt>
      <trkpt lat="45.24382" lon="5.86283">
        <ele>222.69</ele>
        <time>2019-09-15T06:53:57.000Z</time>
      </trkpt>
      <trkpt lat="45.24406" lon="5.86319">
        <ele>224.62</ele>
        <time>2019-09-15T06:54:02.000Z</time>
      </trkpt>
      <trkpt lat="45.24423" lon="5.86354">
        <ele>225.94</ele>
        <time>2019-09-15T06:54:07.000Z</time>
      </trkpt>
      <trkpt lat="45.24447" lon="5.8639">
        <ele>227.11</ele>
        <time>2019-09-15T06:54:12.000Z</time>
      </trkpt>
      <trkpt lat="45.24466" lon="5.86425">
        <ele>229.06</ele>
        <time>2019-09-15T06:54:17.000Z</time>
      </trkpt>
      <trkpt lat="45.2449" lon="5.86455">
        <ele>229.1</ele>
        <time>2019-09-15T06:54:22.000Z</time>
      </trkpt>
      <trkpt lat="45.24518" lon="5.86479">
        <ele>229.57</ele>
        <time>2019-09-15T06:54:27.000Z</time>
      </trkpt>
      <trkpt lat="45.24545" lon="5.86504">
        <ele>228.96</ele>
        <time>2019-09-15T06:54:32.000Z</time>
      </trkpt>
      <trkpt lat="45.24562" lon="5.86541">
        <ele>226.34</ele>
        <time>2019-09-15T06:54:37.000Z</time>
      </trkpt>
      <trkpt lat="45.24576" lon="5.8658">
        <ele>226.85</ele>
        <time>2019-09-15T06:54:42.000Z</time>
      </trkpt>
      <trkpt lat="45.24591" lon="5.86619">
        <ele>223.6</ele>
        <time>2019-09-15T06:54:47.000Z</time>
      </trkpt>
      <trkpt lat="45.24608" lon="5.86659">
        <ele>223.84</ele>
        <time>2019-09-15T06:54:52.000Z</time>
      </trkpt>
      <trkpt lat="45.24625" lon="5.86698">
        <ele>224.28</ele>
        <time>2019-09-15T06:54:57.000Z</time>
      </trkpt>
      <trkpt lat="45.2464" lon="5.86735">
        <ele>222.78</ele>
        <time>2019-09-15T06:55:02.000Z</time>
      </trkpt>
      <trkpt lat="45.24657" lon="5.86772">
        <ele>224.11</ele>
        <time>2019-09-15T06:55:07.000Z</time>
      </trkpt>
      <trkpt lat="45.24675" lon="5.86811">
        <ele>225.78</ele>
        <time>2019-09-15T06:55:12.000Z</time>
      </trkpt>
      <trkpt lat="45.24693" lon="5.86851">
        <ele>228.39</ele>
        <time>2019-09-15T06:55:17.000Z</time>
      </trkpt>
      <trkpt lat="45.24712" lon="5.86891">
        <ele>230.8</ele>
        <time>2019-09-15T06:55:22.000Z</time>
      </trkpt>
      <trkpt lat="45.24731" lon="5.86926">
        <ele>228.12</ele>
        <time>2019-09-15T06:55:27.000Z</time>
      </trkpt>
      <trkpt lat="45.24745" lon="5.86968">
        <ele>230.63</ele>
        <time>2019-09-15T06:55:32.000Z</time>
      </trkpt>
      <trkpt lat="45.24762" lon="5.87003">
        <ele>228.2</ele>
        <time>2019-09-15T06:55:37.000Z</time>
      </trkpt>
      <trkpt lat="45.24782" lon="5.87042">
        <ele>228.35</ele>
        <time>2019-09-15T06:55:42.000Z</time>
      </trkpt>
      <trkpt lat="45.24802" lon="5.87079">
        <ele>229.26</ele>
        <time>2019-09-15T06:55:47.000Z</time>
      </trkpt>
      <trkpt lat="45.24821" lon="5.87114">
        <ele>231.67</ele>
        <time>2019-09-15T06:55:52.000Z</time>
      </trkpt>
      <trkpt lat="45.24842" lon="5.8715">
        <ele>234.33</ele>
        <time>2019-09-15T06:55:57.000Z</time>
      </trkpt>
      <trkpt lat="45.2486" lon="5.87187">
        <ele>233.64</ele>
        <time>2019-09-15T06:56:02.000Z</time>
      </trkpt>
      <trkpt lat="45.24878" lon="5.87226">
        <ele>234.04</ele>
        <time>2019-09-15T06:56:07.000Z</time>
      </trkpt>
      <trkpt lat="45.24897" lon="5.8726">
        <ele>232.79</ele>
        <time>2019-09-15T06:56:12.000Z</time>
      </trkpt>
      <trkpt lat="45.24914" lon="5.87295">
        <ele>230.09</ele>
        <time>2019-09-15T06:56:17.000Z</time>
      </trkpt>
      <trkpt lat="45.24925" lon="5.87335">
        <ele>230.18</ele>
        <time>2019-09-15T06:56:22.000Z</time>
      </trkpt>
      <trkpt lat="45.24901" lon="5.87366">
        <ele>227.16</ele>
        <time>2019-09-15T06:56:27.000Z</time>
      </trkpt>
      <trkpt lat="45.24877" lon="5.87399">
        <ele>228.92</ele>
        <time>2019-09-15T06:56:32.000Z</time>
      </trkpt>
      <trkpt lat="45.24851" lon="5.87433">
        <ele>229.5</ele>
        <time>2019-09-15T06:56:37.000Z</time>
      </trkpt>
      <trkpt lat="45.24833" lon="5.87463">
        <ele>228.63</ele>
        <time>2019-09-15T06:56:42.000Z</time>
      </trkpt>
      <trkpt lat="45.24809" lon="5.87495">
        <ele>229.07</ele>
        <time>2019-09-15T06:56:47.000Z</time>
      </trkpt>
      <trkpt lat="45.24813" lon="5.87516">
        <ele>228.13</ele>
        <time>2019-09-15T06:56:52.000Z</time>
      </trkpt>
      <trkpt lat="45.24823" lon="5.87516">
        <ele>228.17</ele>
        <time>2019-09-15T06:56:57.000Z</time>
      </trkpt>
      <trkpt lat="45.24833" lon="5.87515">
        <ele>229.99</ele>
        <time>2019-09-15T06:58:03.000Z</time>
      </trkpt>
      <trkpt lat="45.24854" lon="5.87517">
        <ele>228.45</ele>
        <time>2019-09-15T06:58:08.000Z</time>
      </trkpt>
      <trkpt lat="45.2488" lon="5.87522">
        <ele>228.14</ele>
        <time>2019-09-15T06:58:13.000Z</time>
      </trkpt>
      <trkpt lat="45.24905" lon="5.87523">
        <ele>231.22</ele>
        <time>2019-09-15T06:58:18.000Z</time>
      </trkpt>
      <trkpt lat="45.24933" lon="5.87523">
        <ele>230.72</ele>
        <time>2019-09-15T06:58:23.000Z</time>
      </trkpt>
      <trkpt lat="45.2496" lon="5.87512">
        <ele>227.99</ele>
        <time>2019-09-15T06:58:28.000Z</time>
      </trkpt>
      <trkpt lat="45.24981" lon="5.87501">
        <ele>229.72</ele>
        <time>2019-09-15T06:58:33.000Z</time>
      </trkpt>
      <trkpt lat="45.25004" lon="5.87488">
        <ele>230.82</ele>
        <time>2019-09-15T06:58:38.000Z</time>
      </trkpt>
      <trkpt lat="45.25021" lon="5.87465">
        <ele>232.63</ele>
        <time>2019-09-15T06:58:43.000Z</time>
      </trkpt>
      <trkpt lat="45.25037" lon="5.87441">
        <ele>235.71</ele>
        <time>2019-09-15T06:58:48.000Z</time>
      </trkpt>
      <trkpt lat="45.25057" lon="5.87418">
        <ele>236.01</ele>
        <time>2019-09-15T06:58:53.000Z</time>
      </trkpt>
      <trkpt lat="45.25077" lon="5.87394">
        <ele>235.39</ele>
        <time>2019-09-15T06:58:58.000Z</time>
      </trkpt>
      <trkpt lat="45.25103" lon="5.87368">
        <ele>233.82</ele>
        <time>2019-09-15T06:59:03.000Z</time>
      </trkpt>
      <trkpt lat="45.2513" lon="5.8734">
        <ele>232.07</ele>
        <time>2019-09-15T06:59:08.000Z</time>
      </trkpt>
      <trkpt lat="45.25155" lon="5.87306">
        <ele>232.41</ele>
        <time>2019-09-15T06:59:13.000Z</time>
      </trkpt>
      <trkpt lat="45.25186" lon="5.87271">
        <ele>230.85</ele>
        <time>2019-09-15T06:59:18.000Z</time>
      </trkpt>
      <trkpt lat="45.25219" lon="5.8724">
        <ele>233.64</ele>
        <time>2019-09-15T06:59:23.000Z</time>
      </trkpt>
      <trkpt lat="45.25246" lon="5.87207">
        <ele>234.7</ele>
        <time>2019-09-15T06:59:28.000Z</time>
      </trkpt>
      <trkpt lat="45.25269" lon="5.8717">
        <ele>235.61</ele>
        <time>2019-09-15T06:59:33.000Z</time>
      </trkpt>
      <trkpt lat="45.2529" lon="5.87135">
        <ele>234.3</ele>
        <time>2019-09-15T06:59:38.000Z</time>
      </trkpt>
      <trkpt lat="45.25314" lon="5.87101">
        <ele>233.66</ele>
        <time>2019-09-15T06:59:43.000Z</time>
      </trkpt>
      <trkpt lat="45.25343" lon="5.87088">
        <ele>230.43</ele>
        <time>2019-09-15T06:59:48.000Z</time>
      </trkpt>
      <trkpt lat="45.25369" lon="5.87086">
        <ele>231.23</ele>
        <time>2019-09-15T06:59:53.000Z</time>
      </trkpt>
      <trkpt lat="45.25402" lon="5.87072">
        <ele>231.02</ele>
        <time>2019-09-15T06:59:58.000Z</time>
      </trkpt>
      <trkpt lat="45.25434" lon="5.87076">
        <ele>229.59</ele>
        <time>2019-09-15T07:00:03.000Z</time>
      </trkpt>
      <trkpt lat="45.25465" lon="5.87081">
        <ele>230.07</ele>
        <time>2019-09-15T07:00:08.000Z</time>
      </trkpt>
      <trkpt lat="45.25493" lon="5.87087">
        <ele>229.15</ele>
        <time>2019-09-15T07:00:13.000Z</time>
      </trkpt>
      <trkpt lat="45.25522" lon="5.87091">
        <ele>227.4</ele>
        <time>2019-09-15T07:00:18.000Z</time>
      </trkpt>
      <trkpt lat="45.25554" lon="5.87098">
        <ele>228.56</ele>
        <time>2019-09-15T07:00:23.000Z</time>
      </trkpt>
      <trkpt lat="45.25585" lon="5.87101">
        <ele>225.22</ele>
        <time>2019-09-15T07:00:28.000Z</time>
      </trkpt>
      <trkpt lat="45.25616" lon="5.87096">
        <ele>220.12</ele>
        <time>2019-09-15T07:00:33.000Z</time>
      </trkpt>
      <trkpt lat="45.25645" lon="5.87077">
        <ele>219.31</ele>
        <time>2019-09-15T07:00:38.000Z</time>
      </trkpt>
      <trkpt lat="45.25672" lon="5.87056">
        <ele>220.75</ele>
        <time>2019-09-15T07:00:43.000Z</time>
      </trkpt>
      <trkpt lat="45.25701" lon="5.87041">
        <ele>227.33</ele>
        <time>2019-09-15T07:00:48.000Z</time>
      </trkpt>
      <trkpt lat="45.25728" lon="5.87025">
        <ele>225.16</ele>
        <time>2019-09-15T07:00:53.000Z</time>
      </trkpt>
      <trkpt lat="45.25748" lon="5.87008">
        <ele>227</ele>
        <time>2019-09-15T07:00:58.000Z</time>
      </trkpt>
      <trkpt lat="45.25769" lon="5.86995">
        <ele>229.07</ele>
        <time>2019-09-15T07:01:03.000Z</time>
      </trkpt>
      <trkpt lat="45.25791" lon="5.86989">
        <ele>230.64</ele>
        <time>2019-09-15T07:01:08.000Z</time>
      </trkpt>
      <trkpt lat="45.2581" lon="5.86971">
        <ele>233.43</ele>
        <time>2019-09-15T07:01:13.000Z</time>
      </trkpt>
      <trkpt lat="45.25838" lon="5.86969">
        <ele>231.66</ele>
        <time>2019-09-15T07:01:18.000Z</time>
      </trkpt>
      <trkpt lat="45.25856" lon="5.86969">
        <ele>231.42</ele>
        <time>2019-09-15T07:01:23.000Z</time>
      </trkpt>
      <trkpt lat="45.25876" lon="5.86974">
        <ele>236.4</ele>
        <time>2019-09-15T07:01:28.000Z</time>
      </trkpt>
      <trkpt lat="45.25899" lon="5.86973">
        <ele>236.57</ele>
        <time>2019-09-15T07:01:33.000Z</time>
      </trkpt>
      <trkpt lat="45.25918" lon="5.86948">
        <ele>237.3</ele>
        <time>2019-09-15T07:01:38.000Z</time>
      </trkpt>
      <trkpt lat="45.25934" lon="5.8692">
        <ele>238.7</ele>
        <time>2019-09-15T07:01:43.000Z</time>
      </trkpt>
      <trkpt lat="45.25955" lon="5.86893">
        <ele>239.38</ele>
        <time>2019-09-15T07:01:48.000Z</time>
      </trkpt>
      <trkpt lat="45.25973" lon="5.86869">
        <ele>242.53</ele>
        <time>2019-09-15T07:01:53.000Z</time>
      </trkpt>
      <trkpt lat="45.2599" lon="5.8684">
        <ele>247.44</ele>
        <time>2019-09-15T07:01:58.000Z</time>
      </trkpt>
      <trkpt lat="45.26008" lon="5.86816">
        <ele>250.12</ele>
        <time>2019-09-15T07:02:03.000Z</time>
      </trkpt>
      <trkpt lat="45.26026" lon="5.86809">
        <ele>250.88</ele>
        <time>2019-09-15T07:02:08.000Z</time>
      </trkpt>
      <trkpt lat="45.26038" lon="5.8683">
        <ele>250.09</ele>
        <time>2019-09-15T07:02:13.000Z</time>
      </trkpt>
      <trkpt lat="45.26051" lon="5.86854">
        <ele>251.38</ele>
        <time>2019-09-15T07:02:18.000Z</time>
      </trkpt>
      <trkpt lat="45.26068" lon="5.86879">
        <ele>251.53</ele>
        <time>2019-09-15T07:02:23.000Z</time>
      </trkpt>
      <trkpt lat="45.26073" lon="5.86917">
        <ele>251.77</ele>
        <time>2019-09-15T07:02:28.000Z</time>
      </trkpt>
      <trkpt lat="45.26062" lon="5.8695">
        <ele>248.75</ele>
        <time>2019-09-15T07:02:33.000Z</time>
      </trkpt>
      <trkpt lat="45.26051" lon="5.86989">
        <ele>250.04</ele>
        <time>2019-09-15T07:02:38.000Z</time>
      </trkpt>
      <trkpt lat="45.26053" lon="5.87032">
        <ele>246.36</ele>
        <time>2019-09-15T07:02:43.000Z</time>
      </trkpt>
      <trkpt lat="45.26065" lon="5.87067">
        <ele>247.53</ele>
        <time>2019-09-15T07:02:48.000Z</time>
      </trkpt>
      <trkpt lat="45.26088" lon="5.87096">
        <ele>250.16</ele>
        <time>2019-09-15T07:02:53.000Z</time>
      </trkpt>
      <trkpt lat="45.26107" lon="5.87128">
        <ele>247.77</ele>
        <time>2019-09-15T07:02:58.000Z</time>
      </trkpt>
      <trkpt lat="45.26124" lon="5.87165">
        <ele>244.18</ele>
        <time>2019-09-15T07:03:03.000Z</time>
      </trkpt>
      <trkpt lat="45.26141" lon="5.87202">
        <ele>243.35</ele>
        <time>2019-09-15T07:03:08.000Z</time>
      </trkpt>
      <trkpt lat="45.26164" lon="5.87233">
        <ele>242.53</ele>
        <time>2019-09-15T07:03:13.000Z</time>
      </trkpt>
      <trkpt lat="45.26187" lon="5.87261">
        <ele>241.83</ele>
        <time>2019-09-15T07:03:18.000Z</time>
      </trkpt>
      <trkpt lat="45.26212" lon="5.87288">
        <ele>241.49</ele>
        <time>2019-09-15T07:03:23.000Z</time>
      </trkpt>
      <trkpt lat="45.26236" lon="5.87318">
        <ele>243.4</ele>
        <time>2019-09-15T07:03:28.000Z</time>
      </trkpt>
      <trkpt lat="45.26256" lon="5.87357">
        <ele>244.9</ele>
        <time>2019-09-15T07:03:33.000Z</time>
      </trkpt>
      <trkpt lat="45.26276" lon="5.87395">
        <ele>248.58</ele>
        <time>2019-09-15T07:03:38.000Z</time>
      </trkpt>
      <trkpt lat="45.26297" lon="5.87436">
        <ele>245.81</ele>
        <time>2019-09-15T07:03:43.000Z</time>
      </trkpt>
      <trkpt lat="45.26308" lon="5.87477">
        <ele>243.28</ele>
        <time>2019-09-15T07:03:48.000Z</time>
      </trkpt>
      <trkpt lat="45.26316" lon="5.87521">
        <ele>236.95</ele>
        <time>2019-09-15T07:03:53.000Z</time>
      </trkpt>
      <trkpt lat="45.26331" lon="5.87577">
        <ele>237.05</ele>
        <time>2019-09-15T07:03:58.000Z</time>
      </trkpt>
      <trkpt lat="45.26344" lon="5.87625">
        <ele>232.88</ele>
        <time>2019-09-15T07:04:03.000Z</time>
      </trkpt>
      <trkpt lat="45.26362" lon="5.8767">
        <ele>234.02</ele>
        <time>2019-09-15T07:04:08.000Z</time>
      </trkpt>
      <trkpt lat="45.26381" lon="5.8771">
        <ele>233.8</ele>
        <time>2019-09-15T07:04:13.000Z</time>
      </trkpt>
      <trkpt lat="45.26396" lon="5.87749">
        <ele>233.54</ele>
        <time>2019-09-15T07:04:18.000Z</time>
      </trkpt>
      <trkpt lat="45.26412" lon="5.87779">
        <ele>228.46</ele>
        <time>2019-09-15T07:04:23.000Z</time>
      </trkpt>
      <trkpt lat="45.26421" lon="5.87813">
        <ele>226.61</ele>
        <time>2019-09-15T07:04:28.000Z</time>
      </trkpt>
      <trkpt lat="45.26414" lon="5.87847">
        <ele>227.34</ele>
        <time>2019-09-15T07:04:33.000Z</time>
      </trkpt>
      <trkpt lat="45.26432" lon="5.8788">
        <ele>231.42</ele>
        <time>2019-09-15T07:04:38.000Z</time>
      </trkpt>
      <trkpt lat="45.26442" lon="5.87921">
        <ele>233.81</ele>
        <time>2019-09-15T07:04:43.000Z</time>
      </trkpt>
      <trkpt lat="45.26446" lon="5.87962">
        <ele>235.54</ele>
        <time>2019-09-15T07:04:48.000Z</time>
      </trkpt>
      <trkpt lat="45.26447" lon="5.87997">
        <ele>235.57</ele>
        <time>2019-09-15T07:04:53.000Z</time>
      </trkpt>
      <trkpt lat="45.26458" lon="5.88033">
        <ele>239.03</ele>
        <time>2019-09-15T07:04:58.000Z</time>
      </trkpt>
      <trkpt lat="45.26469" lon="5.88065">
        <ele>236.34</ele>
        <time>2019-09-15T07:05:03.000Z</time>
      </trkpt>
      <trkpt lat="45.2649" lon="5.88106">
        <ele>231.88</ele>
        <time>2019-09-15T07:05:08.000Z</time>
      </trkpt>
      <trkpt lat="45.26522" lon="5.88152">
        <ele>232.75</ele>
        <time>2019-09-15T07:05:13.000Z</time>
      </trkpt>
      <trkpt lat="45.26549" lon="5.88187">
        <ele>231.99</ele>
        <time>2019-09-15T07:05:18.000Z</time>
      </trkpt>
      <trkpt lat="45.2658" lon="5.88225">
        <ele>231.92</ele>
        <time>2019-09-15T07:05:23.000Z</time>
      </trkpt>
      <trkpt lat="45.26605" lon="5.88256">
        <ele>232.1</ele>
        <time>2019-09-15T07:05:28.000Z</time>
      </trkpt>
      <trkpt lat="45.26622" lon="5.88296">
        <ele>231.03</ele>
        <time>2019-09-15T07:05:33.000Z</time>
      </trkpt>
      <trkpt lat="45.2663" lon="5.88344">
        <ele>231.99</ele>
        <time>2019-09-15T07:05:38.000Z</time>
      </trkpt>
      <trkpt lat="45.26649" lon="5.88384">
        <ele>236.8</ele>
        <time>2019-09-15T07:05:43.000Z</time>
      </trkpt>
      <trkpt lat="45.26672" lon="5.8841">
        <ele>237.99</ele>
        <time>2019-09-15T07:05:48.000Z</time>
      </trkpt>
      <trkpt lat="45.26693" lon="5.88443">
        <ele>235.86</ele>
        <time>2019-09-15T07:05:53.000Z</time>
      </trkpt>
      <trkpt lat="45.26691" lon="5.88488">
        <ele>235.44</ele>
        <time>2019-09-15T07:05:58.000Z</time>
      </trkpt>
      <trkpt lat="45.26689" lon="5.88524">
        <ele>235.39</ele>
        <time>2019-09-15T07:06:03.000Z</time>
      </trkpt>
      <trkpt lat="45.26712" lon="5.88567">
        <ele>236.92</ele>
        <time>2019-09-15T07:06:08.000Z</time>
      </trkpt>
      <trkpt lat="45.26738" lon="5.88606">
        <ele>234.51</ele>
        <time>2019-09-15T07:06:13.000Z</time>
      </trkpt>
      <trkpt lat="45.26752" lon="5.8864">
        <ele>234.4</ele>
        <time>2019-09-15T07:06:18.000Z</time>
      </trkpt>
      <trkpt lat="45.26757" lon="5.88684">
        <ele>235.46</ele>
        <time>2019-09-15T07:06:23.000Z</time>
      </trkpt>
      <trkpt lat="45.26779" lon="5.88724">
        <ele>235.44</ele>
        <time>2019-09-15T07:06:28.000Z</time>
      </trkpt>
      <trkpt lat="45.26808" lon="5.88743">
        <ele>235.2</ele>
        <time>2019-09-15T07:06:33.000Z</time>
      </trkpt>
      <trkpt lat="45.26822" lon="5.88779">
        <ele>240.89</ele>
        <time>2019-09-15T07:06:38.000Z</time>
      </trkpt>
      <trkpt lat="45.2683" lon="5.88825">
        <ele>239.31</ele>
        <time>2019-09-15T07:06:43.000Z</time>
      </trkpt>
      <trkpt lat="45.26838" lon="5.88863">
        <ele>235.26</ele>
        <time>2019-09-15T07:06:48.000Z</time>
      </trkpt>
      <trkpt lat="45.26849" lon="5.88916">
        <ele>229.41</ele>
        <time>2019-09-15T07:06:53.000Z</time>
      </trkpt>
      <trkpt lat="45.26863" lon="5.88958">
        <ele>230.68</ele>
        <time>2019-09-15T07:06:58.000Z</time>
      </trkpt>
      <trkpt lat="45.26886" lon="5.88993">
        <ele>228.11</ele>
        <time>2019-09-15T07:07:03.000Z</time>
      </trkpt>
      <trkpt lat="45.26911" lon="5.89021">
        <ele>230.37</ele>
        <time>2019-09-15T07:07:08.000Z</time>
      </trkpt>
      <trkpt lat="45.26938" lon="5.89047">
        <ele>232.37</ele>
        <time>2019-09-15T07:07:13.000Z</time>
      </trkpt>
      <trkpt lat="45.26967" lon="5.89076">
        <ele>232.03</ele>
        <time>2019-09-15T07:07:18.000Z</time>
      </trkpt>
      <trkpt lat="45.26988" lon="5.89114">
        <ele>230.65</ele>
        <time>2019-09-15T07:07:23.000Z</time>
      </trkpt>
      <trkpt lat="45.27006" lon="5.89144">
        <ele>231.61</ele>
        <time>2019-09-15T07:07:28.000Z</time>
      </trkpt>
      <trkpt lat="45.27016" lon="5.89184">
        <ele>231.02</ele>
        <time>2019-09-15T07:07:33.000Z</time>
      </trkpt>
      <trkpt lat="45.27042" lon="5.89203">
        <ele>231.44</ele>
        <time>2019-09-15T07:07:38.000Z</time>
      </trkpt>
      <trkpt lat="45.27076" lon="5.89209">
        <ele>228.96</ele>
        <time>2019-09-15T07:07:43.000Z</time>
      </trkpt>
      <trkpt lat="45.27105" lon="5.89231">
        <ele>232.09</ele>
        <time>2019-09-15T07:07:48.000Z</time>
      </trkpt>
      <trkpt lat="45.27142" lon="5.8925">
        <ele>232.72</ele>
        <time>2019-09-15T07:07:53.000Z</time>
      </trkpt>
      <trkpt lat="45.27168" lon="5.89273">
        <ele>232.05</ele>
        <time>2019-09-15T07:07:58.000Z</time>
      </trkpt>
      <trkpt lat="45.27196" lon="5.89293">
        <ele>234.01</ele>
        <time>2019-09-15T07:08:03.000Z</time>
      </trkpt>
      <trkpt lat="45.27225" lon="5.89314">
        <ele>235.6</ele>
        <time>2019-09-15T07:08:08.000Z</time>
      </trkpt>
      <trkpt lat="45.27246" lon="5.8935">
        <ele>230.69</ele>
        <time>2019-09-15T07:08:13.000Z</time>
      </trkpt>
      <trkpt lat="45.27266" lon="5.89378">
        <ele>226.86</ele>
        <time>2019-09-15T07:08:18.000Z</time>
      </trkpt>
      <trkpt lat="45.2729" lon="5.89409">
        <ele>227.46</ele>
        <time>2019-09-15T07:08:23.000Z</time>
      </trkpt>
      <trkpt lat="45.27311" lon="5.89442">
        <ele>226.61</ele>
        <time>2019-09-15T07:08:28.000Z</time>
      </trkpt>
      <trkpt lat="45.27331" lon="5.89479">
        <ele>227.2</ele>
        <time>2019-09-15T07:08:33.000Z</time>
      </trkpt>
      <trkpt lat="45.27355" lon="5.89512">
        <ele>229.56</ele>
        <time>2019-09-15T07:08:38.000Z</time>
      </trkpt>
      <trkpt lat="45.27382" lon="5.89541">
        <ele>234.32</ele>
        <time>2019-09-15T07:08:43.000Z</time>
      </trkpt>
      <trkpt lat="45.27409" lon="5.89571">
        <ele>234.34</ele>
        <time>2019-09-15T07:08:48.000Z</time>
      </trkpt>
      <trkpt lat="45.27434" lon="5.896">
        <ele>233.07</ele>
        <time>2019-09-15T07:08:53.000Z</time>
      </trkpt>
      <trkpt lat="45.27459" lon="5.89627">
        <ele>232.79</ele>
        <time>2019-09-15T07:08:58.000Z</time>
      </trkpt>
      <trkpt lat="45.27483" lon="5.89655">
        <ele>231.05</ele>
        <time>2019-09-15T07:09:03.000Z</time>
      </trkpt>
      <trkpt lat="45.2751" lon="5.89673">
        <ele>229.97</ele>
        <time>2019-09-15T07:09:08.000Z</time>
      </trkpt>
      <trkpt lat="45.27532" lon="5.89643">
        <ele>230.65</ele>
        <time>2019-09-15T07:09:13.000Z</time>
      </trkpt>
      <trkpt lat="45.2755" lon="5.89609">
        <ele>228.87</ele>
        <time>2019-09-15T07:09:18.000Z</time>
      </trkpt>
      <trkpt lat="45.27566" lon="5.89584">
        <ele>232.62</ele>
        <time>2019-09-15T07:09:23.000Z</time>
      </trkpt>
      <trkpt lat="45.27591" lon="5.89592">
        <ele>230.07</ele>
        <time>2019-09-15T07:09:28.000Z</time>
      </trkpt>
      <trkpt lat="45.27614" lon="5.89611">
        <ele>226.37</ele>
        <time>2019-09-15T07:09:33.000Z</time>
      </trkpt>
      <trkpt lat="45.27636" lon="5.8963">
        <ele>227.58</ele>
        <time>2019-09-15T07:09:38.000Z</time>
      </trkpt>
      <trkpt lat="45.27654" lon="5.89645">
        <ele>229.72</ele>
        <time>2019-09-15T07:09:43.000Z</time>
      </trkpt>
      <trkpt lat="45.27672" lon="5.89663">
        <ele>232.39</ele>
        <time>2019-09-15T07:09:48.000Z</time>
      </trkpt>
      <trkpt lat="45.27686" lon="5.89648">
        <ele>231.1</ele>
        <time>2019-09-15T07:09:53.000Z</time>
      </trkpt>
      <trkpt lat="45.27703" lon="5.89644">
        <ele>230.85</ele>
        <time>2019-09-15T07:09:58.000Z</time>
      </trkpt>
      <trkpt lat="45.27713" lon="5.89665">
        <ele>230.69</ele>
        <time>2019-09-15T07:10:03.000Z</time>
      </trkpt>
      <trkpt lat="45.27729" lon="5.89692">
        <ele>229.96</ele>
        <time>2019-09-15T07:10:08.000Z</time>
      </trkpt>
      <trkpt lat="45.27748" lon="5.89719">
        <ele>230.35</ele>
        <time>2019-09-15T07:10:13.000Z</time>
      </trkpt>
      <trkpt lat="45.27766" lon="5.89746">
        <ele>231.35</ele>
        <time>2019-09-15T07:10:18.000Z</time>
      </trkpt>
      <trkpt lat="45.27785" lon="5.89777">
        <ele>231.2</ele>
        <time>2019-09-15T07:10:23.000Z</time>
      </trkpt>
      <trkpt lat="45.27803" lon="5.8981">
        <ele>230.39</ele>
        <time>2019-09-15T07:10:28.000Z</time>
      </trkpt>
      <trkpt lat="45.27828" lon="5.89829">
        <ele>228.43</ele>
        <time>2019-09-15T07:10:33.000Z</time>
      </trkpt>
      <trkpt lat="45.2785" lon="5.8984">
        <ele>226.72</ele>
        <time>2019-09-15T07:10:38.000Z</time>
      </trkpt>
      <trkpt lat="45.27869" lon="5.8985">
        <ele>224.25</ele>
        <time>2019-09-15T07:10:43.000Z</time>
      </trkpt>
      <trkpt lat="45.27892" lon="5.89861">
        <ele>224.98</ele>
        <time>2019-09-15T07:10:48.000Z</time>
      </trkpt>
      <trkpt lat="45.27914" lon="5.89872">
        <ele>225.27</ele>
        <time>2019-09-15T07:10:53.000Z</time>
      </trkpt>
      <trkpt lat="45.27935" lon="5.89884">
        <ele>225.08</ele>
        <time>2019-09-15T07:10:58.000Z</time>
      </trkpt>
      <trkpt lat="45.27959" lon="5.89898">
        <ele>225.56</ele>
        <time>2019-09-15T07:11:03.000Z</time>
      </trkpt>
      <trkpt lat="45.27987" lon="5.89923">
        <ele>227.02</ele>
        <time>2019-09-15T07:11:08.000Z</time>
      </trkpt>
      <trkpt lat="45.28008" lon="5.89949">
        <ele>227.46</ele>
        <time>2019-09-15T07:11:13.000Z</time>
      </trkpt>
      <trkpt lat="45.2803" lon="5.89982">
        <ele>227.25</ele>
        <time>2019-09-15T07:11:18.000Z</time>
      </trkpt>
      <trkpt lat="45.28051" lon="5.90017">
        <ele>226.53</ele>
        <time>2019-09-15T07:11:23.000Z</time>
      </trkpt>
      <trkpt lat="45.28067" lon="5.90054">
        <ele>229.37</ele>
        <time>2019-09-15T07:11:28.000Z</time>
      </trkpt>
      <trkpt lat="45.28086" lon="5.90089">
        <ele>224.9</ele>
        <time>2019-09-15T07:11:33.000Z</time>
      </trkpt>
      <trkpt lat="45.28107" lon="5.90124">
        <ele>226.64</ele>
        <time>2019-09-15T07:11:38.000Z</time>
      </trkpt>
      <trkpt lat="45.28133" lon="5.90136">
        <ele>224.01</ele>
        <time>2019-09-15T07:11:43.000Z</time>
      </trkpt>
      <trkpt lat="45.28158" lon="5.90114">
        <ele>224.63</ele>
        <time>2019-09-15T07:11:48.000Z</time>
      </trkpt>
      <trkpt lat="45.28184" lon="5.9009">
        <ele>224.21</ele>
        <time>2019-09-15T07:11:53.000Z</time>
      </trkpt>
      <trkpt lat="45.28214" lon="5.90062">
        <ele>226.62</ele>
        <time>2019-09-15T07:11:58.000Z</time>
      </trkpt>
      <trkpt lat="45.28239" lon="5.90038">
        <ele>226.41</ele>
        <time>2019-09-15T07:12:03.000Z</time>
      </trkpt>
      <trkpt lat="45.2827" lon="5.90017">
        <ele>226.01</ele>
        <time>2019-09-15T07:12:08.000Z</time>
      </trkpt>
      <trkpt lat="45.28297" lon="5.89996">
        <ele>222.83</ele>
        <time>2019-09-15T07:12:13.000Z</time>
      </trkpt>
      <trkpt lat="45.28323" lon="5.8997">
        <ele>223.15</ele>
        <time>2019-09-15T07:12:18.000Z</time>
      </trkpt>
      <trkpt lat="45.28351" lon="5.89946">
        <ele>223.54</ele>
        <time>2019-09-15T07:12:23.000Z</time>
      </trkpt>
      <trkpt lat="45.28377" lon="5.89918">
        <ele>224.7</ele>
        <time>2019-09-15T07:12:28.000Z</time>
      </trkpt>
      <trkpt lat="45.28399" lon="5.89882">
        <ele>225.93</ele>
        <time>2019-09-15T07:12:33.000Z</time>
      </trkpt>
      <trkpt lat="45.28417" lon="5.89847">
        <ele>225.47</ele>
        <time>2019-09-15T07:12:38.000Z</time>
      </trkpt>
      <trkpt lat="45.28436" lon="5.89831">
        <ele>225.57</ele>
        <time>2019-09-15T07:12:43.000Z</time>
      </trkpt>
      <trkpt lat="45.28439" lon="5.89874">
        <ele>224.14</ele>
        <time>2019-09-15T07:12:48.000Z</time>
      </trkpt>
      <trkpt lat="45.28442" lon="5.89916">
        <ele>222.16</ele>
        <time>2019-09-15T07:12:53.000Z</time>
      </trkpt>
      <trkpt lat="45.28442" lon="5.89958">
        <ele>224.06</ele>
        <time>2019-09-15T07:12:58.000Z</time>
      </trkpt>
      <trkpt lat="45.28443" lon="5.90003">
        <ele>225.86</ele>
        <time>2019-09-15T07:13:03.000Z</time>
      </trkpt>
      <trkpt lat="45.28447" lon="5.90045">
        <ele>225.06</ele>
        <time>2019-09-15T07:13:08.000Z</time>
      </trkpt>
      <trkpt lat="45.28455" lon="5.90091">
        <ele>222.95</ele>
        <time>2019-09-15T07:13:13.000Z</time>
      </trkpt>
      <trkpt lat="45.28465" lon="5.90135">
        <ele>223.88</ele>
        <time>2019-09-15T07:13:18.000Z</time>
      </trkpt>
      <trkpt lat="45.28473" lon="5.90178">
        <ele>224.36</ele>
        <time>2019-09-15T07:13:23.000Z</time>
      </trkpt>
      <trkpt lat="45.28481" lon="5.90222">
        <ele>224</ele>
        <time>2019-09-15T07:13:28.000Z</time>
      </trkpt>
      <trkpt lat="45.28488" lon="5.90269">
        <ele>225.16</ele>
        <time>2019-09-15T07:13:33.000Z</time>
      </trkpt>
      <trkpt lat="45.28493" lon="5.90314">
        <ele>225.21</ele>
        <time>2019-09-15T07:13:38.000Z</time>
      </trkpt>
      <trkpt lat="45.28493" lon="5.90359">
        <ele>223.45</ele>
        <time>2019-09-15T07:13:43.000Z</time>
      </trkpt>
      <trkpt lat="45.28493" lon="5.9041">
        <ele>225.4</ele>
        <time>2019-09-15T07:13:48.000Z</time>
      </trkpt>
      <trkpt lat="45.28494" lon="5.90457">
        <ele>225.1</ele>
        <time>2019-09-15T07:13:53.000Z</time>
      </trkpt>
      <trkpt lat="45.28495" lon="5.90501">
        <ele>225.72</ele>
        <time>2019-09-15T07:13:58.000Z</time>
      </trkpt>
      <trkpt lat="45.285" lon="5.90537">
        <ele>225.86</ele>
        <time>2019-09-15T07:14:03.000Z</time>
      </trkpt>
      <trkpt lat="45.28526" lon="5.90528">
        <ele>228.2</ele>
        <time>2019-09-15T07:14:08.000Z</time>
      </trkpt>
      <trkpt lat="45.28538" lon="5.90562">
        <ele>226.74</ele>
        <time>2019-09-15T07:14:13.000Z</time>
      </trkpt>
      <trkpt lat="45.28561" lon="5.90585">
        <ele>226.92</ele>
        <time>2019-09-15T07:14:18.000Z</time>
      </trkpt>
      <trkpt lat="45.28591" lon="5.90604">
        <ele>227.19</ele>
        <time>2019-09-15T07:14:23.000Z</time>
      </trkpt>
      <trkpt lat="45.2862" lon="5.90626">
        <ele>228.65</ele>
        <time>2019-09-15T07:14:28.000Z</time>
      </trkpt>
      <trkpt lat="45.28651" lon="5.90646">
        <ele>227.26</ele>
        <time>2019-09-15T07:14:33.000Z</time>
      </trkpt>
      <trkpt lat="45.28681" lon="5.90667">
        <ele>225.65</ele>
        <time>2019-09-15T07:14:38.000Z</time>
      </trkpt>
      <trkpt lat="45.28709" lon="5.9069">
        <ele>226.37</ele>
        <time>2019-09-15T07:14:43.000Z</time>
      </trkpt>
      <trkpt lat="45.28741" lon="5.90714">
        <ele>224.85</ele>
        <time>2019-09-15T07:14:48.000Z</time>
      </trkpt>
      <trkpt lat="45.2877" lon="5.90733">
        <ele>222.59</ele>
        <time>2019-09-15T07:14:53.000Z</time>
      </trkpt>
      <trkpt lat="45.28798" lon="5.90751">
        <ele>221.42</ele>
        <time>2019-09-15T07:14:58.000Z</time>
      </trkpt>
      <trkpt lat="45.28824" lon="5.90773">
        <ele>222.7</ele>
        <time>2019-09-15T07:15:03.000Z</time>
      </trkpt>
      <trkpt lat="45.28852" lon="5.90793">
        <ele>222.62</ele>
        <time>2019-09-15T07:15:08.000Z</time>
      </trkpt>
      <trkpt lat="45.28876" lon="5.90811">
        <ele>224.94</ele>
        <time>2019-09-15T07:15:13.000Z</time>
      </trkpt>
      <trkpt lat="45.28904" lon="5.90831">
        <ele>225.6</ele>
        <time>2019-09-15T07:15:18.000Z</time>
      </trkpt>
      <trkpt lat="45.28933" lon="5.90849">
        <ele>222.13</ele>
        <time>2019-09-15T07:15:23.000Z</time>
      </trkpt>
      <trkpt lat="45.28962" lon="5.90873">
        <ele>221.42</ele>
        <time>2019-09-15T07:15:28.000Z</time>
      </trkpt>
      <trkpt lat="45.28994" lon="5.90886">
        <ele>224.49</ele>
        <time>2019-09-15T07:15:33.000Z</time>
      </trkpt>
      <trkpt lat="45.29024" lon="5.90873">
        <ele>221.37</ele>
        <time>2019-09-15T07:15:38.000Z</time>
      </trkpt>
      <trkpt lat="45.29058" lon="5.90864">
        <ele>218.94</ele>
        <time>2019-09-15T07:15:43.000Z</time>
      </trkpt>
      <trkpt lat="45.29089" lon="5.90852">
        <ele>220.3</ele>
        <time>2019-09-15T07:15:48.000Z</time>
      </trkpt>
      <trkpt lat="45.29121" lon="5.90841">
        <ele>221.45</ele>
        <time>2019-09-15T07:15:53.000Z</time>
      </trkpt>
      <trkpt lat="45.29153" lon="5.90829">
        <ele>222.56</ele>
        <time>2019-09-15T07:15:58.000Z</time>
      </trkpt>
      <trkpt lat="45.29185" lon="5.90816">
        <ele>221.26</ele>
        <time>2019-09-15T07:16:03.000Z</time>
      </trkpt>
      <trkpt lat="45.29216" lon="5.90802">
        <ele>221.74</ele>
        <time>2019-09-15T07:16:08.000Z</time>
      </trkpt>
      <trkpt lat="45.29248" lon="5.90789">
        <ele>223.84</ele>
        <time>2019-09-15T07:16:13.000Z</time>
      </trkpt>
      <trkpt lat="45.29279" lon="5.90778">
        <ele>225.89</ele>
        <time>2019-09-15T07:16:18.000Z</time>
      </trkpt>
      <trkpt lat="45.29306" lon="5.90786">
        <ele>223.76</ele>
        <time>2019-09-15T07:16:23.000Z</time>
      </trkpt>
      <trkpt lat="45.29336" lon="5.90797">
        <ele>223.29</ele>
        <time>2019-09-15T07:16:28.000Z</time>
      </trkpt>
      <trkpt lat="45.29367" lon="5.9081">
        <ele>222.45</ele>
        <time>2019-09-15T07:16:33.000Z</time>
      </trkpt>
      <trkpt lat="45.29397" lon="5.90826">
        <ele>222.18</ele>
        <time>2019-09-15T07:16:38.000Z</time>
      </trkpt>
      <trkpt lat="45.29428" lon="5.90839">
        <ele>221.74</ele>
        <time>2019-09-15T07:16:43.000Z</time>
      </trkpt>
      <trkpt lat="45.29458" lon="5.90854">
        <ele>220.83</ele>
        <time>2019-09-15T07:16:48.000Z</time>
      </trkpt>
      <trkpt lat="45.29489" lon="5.90868">
        <ele>225.14</ele>
        <time>2019-09-15T07:16:53.000Z</time>
      </trkpt>
      <trkpt lat="45.29522" lon="5.90885">
        <ele>224.86</ele>
        <time>2019-09-15T07:16:58.000Z</time>
      </trkpt>
      <trkpt lat="45.29552" lon="5.90896">
        <ele>225.36</ele>
        <time>2019-09-15T07:17:03.000Z</time>
      </trkpt>
      <trkpt lat="45.29581" lon="5.90908">
        <ele>223.97</ele>
        <time>2019-09-15T07:17:08.000Z</time>
      </trkpt>
      <trkpt lat="45.29613" lon="5.9092">
        <ele>221.68</ele>
        <time>2019-09-15T07:17:13.000Z</time>
      </trkpt>
      <trkpt lat="45.29643" lon="5.90933">
        <ele>223.16</ele>
        <time>2019-09-15T07:17:18.000Z</time>
      </trkpt>
      <trkpt lat="45.29674" lon="5.90946">
        <ele>223.77</ele>
        <time>2019-09-15T07:17:23.000Z</time>
      </trkpt>
      <trkpt lat="45.29705" lon="5.90957">
        <ele>224</ele>
        <time>2019-09-15T07:17:28.000Z</time>
      </trkpt>
      <trkpt lat="45.29734" lon="5.90967">
        <ele>225.09</ele>
        <time>2019-09-15T07:17:33.000Z</time>
      </trkpt>
      <trkpt lat="45.29764" lon="5.90978">
        <ele>225.58</ele>
        <time>2019-09-15T07:17:38.000Z</time>
      </trkpt>
      <trkpt lat="45.29796" lon="5.90991">
        <ele>225.47</ele>
        <time>2019-09-15T07:17:43.000Z</time>
      </trkpt>
      <trkpt lat="45.29827" lon="5.91002">
        <ele>227.67</ele>
        <time>2019-09-15T07:17:48.000Z</time>
      </trkpt>
      <trkpt lat="45.2986" lon="5.91018">
        <ele>226.83</ele>
        <time>2019-09-15T07:17:53.000Z</time>
      </trkpt>
      <trkpt lat="45.29892" lon="5.91028">
        <ele>227.14</ele>
        <time>2019-09-15T07:17:58.000Z</time>
      </trkpt>
      <trkpt lat="45.29922" lon="5.91042">
        <ele>225.53</ele>
        <time>2019-09-15T07:18:03.000Z</time>
      </trkpt>
      <trkpt lat="45.29948" lon="5.91062">
        <ele>222.45</ele>
        <time>2019-09-15T07:18:08.000Z</time>
      </trkpt>
      <trkpt lat="45.29976" lon="5.91085">
        <ele>221.22</ele>
        <time>2019-09-15T07:18:13.000Z</time>
      </trkpt>
      <trkpt lat="45.30005" lon="5.91109">
        <ele>221.47</ele>
        <time>2019-09-15T07:18:18.000Z</time>
      </trkpt>
      <trkpt lat="45.30032" lon="5.91134">
        <ele>220.45</ele>
        <time>2019-09-15T07:18:23.000Z</time>
      </trkpt>
      <trkpt lat="45.30059" lon="5.91161">
        <ele>221.23</ele>
        <time>2019-09-15T07:18:28.000Z</time>
      </trkpt>
      <trkpt lat="45.30082" lon="5.91185">
        <ele>220.17</ele>
        <time>2019-09-15T07:18:33.000Z</time>
      </trkpt>
      <trkpt lat="45.30108" lon="5.91213">
        <ele>219.33</ele>
        <time>2019-09-15T07:18:38.000Z</time>
      </trkpt>
      <trkpt lat="45.30137" lon="5.91239">
        <ele>217.02</ele>
        <time>2019-09-15T07:18:43.000Z</time>
      </trkpt>
      <trkpt lat="45.30166" lon="5.91266">
        <ele>216.51</ele>
        <time>2019-09-15T07:18:48.000Z</time>
      </trkpt>
      <trkpt lat="45.30194" lon="5.91293">
        <ele>218.72</ele>
        <time>2019-09-15T07:18:53.000Z</time>
      </trkpt>
      <trkpt lat="45.30222" lon="5.91319">
        <ele>215.82</ele>
        <time>2019-09-15T07:18:58.000Z</time>
      </trkpt>
      <trkpt lat="45.30248" lon="5.91345">
        <ele>218.07</ele>
        <time>2019-09-15T07:19:03.000Z</time>
      </trkpt>
      <trkpt lat="45.30272" lon="5.91372">
        <ele>221.61</ele>
        <time>2019-09-15T07:19:08.000Z</time>
      </trkpt>
      <trkpt lat="45.30299" lon="5.91395">
        <ele>224.16</ele>
        <time>2019-09-15T07:19:13.000Z</time>
      </trkpt>
      <trkpt lat="45.3033" lon="5.91426">
        <ele>216.36</ele>
        <time>2019-09-15T07:19:18.000Z</time>
      </trkpt>
      <trkpt lat="45.30354" lon="5.91453">
        <ele>214.18</ele>
        <time>2019-09-15T07:19:23.000Z</time>
      </trkpt>
      <trkpt lat="45.30381" lon="5.91477">
        <ele>213.43</ele>
        <time>2019-09-15T07:19:28.000Z</time>
      </trkpt>
      <trkpt lat="45.30407" lon="5.91506">
        <ele>215.93</ele>
        <time>2019-09-15T07:19:33.000Z</time>
      </trkpt>
      <trkpt lat="45.30429" lon="5.91531">
        <ele>217.17</ele>
        <time>2019-09-15T07:19:38.000Z</time>
      </trkpt>
      <trkpt lat="45.30457" lon="5.91554">
        <ele>221.86</ele>
        <time>2019-09-15T07:19:43.000Z</time>
      </trkpt>
      <trkpt lat="45.30486" lon="5.91582">
        <ele>224.05</ele>
        <time>2019-09-15T07:19:48.000Z</time>
      </trkpt>
      <trkpt lat="45.3051" lon="5.9161">
        <ele>227.09</ele>
        <time>2019-09-15T07:19:53.000Z</time>
      </trkpt>
      <trkpt lat="45.30533" lon="5.91635">
        <ele>230.21</ele>
        <time>2019-09-15T07:19:58.000Z</time>
      </trkpt>
      <trkpt lat="45.30536" lon="5.91671">
        <ele>228.72</ele>
        <time>2019-09-15T07:20:03.000Z</time>
      </trkpt>
      <trkpt lat="45.30521" lon="5.91707">
        <ele>227.11</ele>
        <time>2019-09-15T07:20:08.000Z</time>
      </trkpt>
      <trkpt lat="45.30506" lon="5.91747">
        <ele>226.64</ele>
        <time>2019-09-15T07:20:13.000Z</time>
      </trkpt>
      <trkpt lat="45.30499" lon="5.91792">
        <ele>227.58</ele>
        <time>2019-09-15T07:20:18.000Z</time>
      </trkpt>
      <trkpt lat="45.30498" lon="5.91838">
        <ele>226.63</ele>
        <time>2019-09-15T07:20:23.000Z</time>
      </trkpt>
      <trkpt lat="45.30502" lon="5.91879">
        <ele>226.16</ele>
        <time>2019-09-15T07:20:28.000Z</time>
      </trkpt>
      <trkpt lat="45.30485" lon="5.9192">
        <ele>225.03</ele>
        <time>2019-09-15T07:20:33.000Z</time>
      </trkpt>
      <trkpt lat="45.30465" lon="5.9196">
        <ele>228.82</ele>
        <time>2019-09-15T07:20:38.000Z</time>
      </trkpt>
      <trkpt lat="45.30459" lon="5.91995">
        <ele>230.24</ele>
        <time>2019-09-15T07:20:43.000Z</time>
      </trkpt>
      <trkpt lat="45.3047" lon="5.92024">
        <ele>232.88</ele>
        <time>2019-09-15T07:20:48.000Z</time>
      </trkpt>
      <trkpt lat="45.30482" lon="5.92056">
        <ele>236.06</ele>
        <time>2019-09-15T07:20:53.000Z</time>
      </trkpt>
      <trkpt lat="45.30495" lon="5.92094">
        <ele>232.66</ele>
        <time>2019-09-15T07:20:58.000Z</time>
      </trkpt>
      <trkpt lat="45.30513" lon="5.92129">
        <ele>233.75</ele>
        <time>2019-09-15T07:21:03.000Z</time>
      </trkpt>
      <trkpt lat="45.30531" lon="5.92164">
        <ele>231.99</ele>
        <time>2019-09-15T07:21:08.000Z</time>
      </trkpt>
      <trkpt lat="45.30527" lon="5.92205">
        <ele>230.1</ele>
        <time>2019-09-15T07:21:13.000Z</time>
      </trkpt>
      <trkpt lat="45.30509" lon="5.92238">
        <ele>227.01</ele>
        <time>2019-09-15T07:21:18.000Z</time>
      </trkpt>
      <trkpt lat="45.30523" lon="5.92283">
        <ele>227.46</ele>
        <time>2019-09-15T07:21:23.000Z</time>
      </trkpt>
      <trkpt lat="45.30539" lon="5.92321">
        <ele>230.17</ele>
        <time>2019-09-15T07:21:28.000Z</time>
      </trkpt>
      <trkpt lat="45.30551" lon="5.92363">
        <ele>229.46</ele>
        <time>2019-09-15T07:21:33.000Z</time>
      </trkpt>
      <trkpt lat="45.30562" lon="5.92401">
        <ele>227.13</ele>
        <time>2019-09-15T07:21:38.000Z</time>
      </trkpt>
      <trkpt lat="45.3057" lon="5.92429">
        <ele>230.91</ele>
        <time>2019-09-15T07:21:43.000Z</time>
      </trkpt>
      <trkpt lat="45.30567" lon="5.9245">
        <ele>230.66</ele>
        <time>2019-09-15T07:21:48.000Z</time>
      </trkpt>
      <trkpt lat="45.30573" lon="5.92487">
        <ele>226.68</ele>
        <time>2019-09-15T07:21:53.000Z</time>
      </trkpt>
      <trkpt lat="45.30582" lon="5.9253">
        <ele>224.3</ele>
        <time>2019-09-15T07:21:58.000Z</time>
      </trkpt>
      <trkpt lat="45.30582" lon="5.92576">
        <ele>223.51</ele>
        <time>2019-09-15T07:22:03.000Z</time>
      </trkpt>
      <trkpt lat="45.3057" lon="5.92619">
        <ele>225.93</ele>
        <time>2019-09-15T07:22:08.000Z</time>
      </trkpt>
      <trkpt lat="45.30569" lon="5.9266">
        <ele>224.94</ele>
        <time>2019-09-15T07:22:13.000Z</time>
      </trkpt>
      <trkpt lat="45.30584" lon="5.92698">
        <ele>226.27</ele>
        <time>2019-09-15T07:22:18.000Z</time>
      </trkpt>
      <trkpt lat="45.30603" lon="5.92738">
        <ele>226.87</ele>
        <time>2019-09-15T07:22:23.000Z</time>
      </trkpt>
      <trkpt lat="45.30621" lon="5.92777">
        <ele>225.56</ele>
        <time>2019-09-15T07:22:28.000Z</time>
      </trkpt>
      <trkpt lat="45.30647" lon="5.92802">
        <ele>227.98</ele>
        <time>2019-09-15T07:22:33.000Z</time>
      </trkpt>
      <trkpt lat="45.30676" lon="5.92831">
        <ele>227.39</ele>
        <time>2019-09-15T07:22:38.000Z</time>
      </trkpt>
      <trkpt lat="45.30701" lon="5.92853">
        <ele>226.05</ele>
        <time>2019-09-15T07:22:43.000Z</time>
      </trkpt>
      <trkpt lat="45.30726" lon="5.92874">
        <ele>227</ele>
        <time>2019-09-15T07:22:48.000Z</time>
      </trkpt>
      <trkpt lat="45.30753" lon="5.92896">
        <ele>226.83</ele>
        <time>2019-09-15T07:22:53.000Z</time>
      </trkpt>
      <trkpt lat="45.30778" lon="5.92915">
        <ele>230.28</ele>
        <time>2019-09-15T07:22:58.000Z</time>
      </trkpt>
      <trkpt lat="45.30804" lon="5.92928">
        <ele>230.3</ele>
        <time>2019-09-15T07:23:03.000Z</time>
      </trkpt>
      <trkpt lat="45.30826" lon="5.92936">
        <ele>231.43</ele>
        <time>2019-09-15T07:23:08.000Z</time>
      </trkpt>
      <trkpt lat="45.30843" lon="5.9294">
        <ele>232.43</ele>
        <time>2019-09-15T07:23:13.000Z</time>
      </trkpt>
      <trkpt lat="45.30873" lon="5.92943">
        <ele>233.78</ele>
        <time>2019-09-15T07:23:18.000Z</time>
      </trkpt>
      <trkpt lat="45.30889" lon="5.92926">
        <ele>231.3</ele>
        <time>2019-09-15T07:23:23.000Z</time>
      </trkpt>
      <trkpt lat="45.30903" lon="5.929">
        <ele>229.82</ele>
        <time>2019-09-15T07:23:28.000Z</time>
      </trkpt>
      <trkpt lat="45.30919" lon="5.92878">
        <ele>230.44</ele>
        <time>2019-09-15T07:23:33.000Z</time>
      </trkpt>
      <trkpt lat="45.30937" lon="5.92854">
        <ele>231.92</ele>
        <time>2019-09-15T07:23:38.000Z</time>
      </trkpt>
      <trkpt lat="45.30959" lon="5.92834">
        <ele>234.88</ele>
        <time>2019-09-15T07:23:43.000Z</time>
      </trkpt>
      <trkpt lat="45.30982" lon="5.92851">
        <ele>236.06</ele>
        <time>2019-09-15T07:23:48.000Z</time>
      </trkpt>
      <trkpt lat="45.31001" lon="5.92879">
        <ele>237.95</ele>
        <time>2019-09-15T07:23:53.000Z</time>
      </trkpt>
      <trkpt lat="45.31022" lon="5.92908">
        <ele>238</ele>
        <time>2019-09-15T07:23:58.000Z</time>
      </trkpt>
      <trkpt lat="45.31035" lon="5.92935">
        <ele>236.81</ele>
        <time>2019-09-15T07:24:03.000Z</time>
      </trkpt>
      <trkpt lat="45.3102" lon="5.9297">
        <ele>237.68</ele>
        <time>2019-09-15T07:24:08.000Z</time>
      </trkpt>
      <trkpt lat="45.31034" lon="5.93008">
        <ele>237.64</ele>
        <time>2019-09-15T07:24:13.000Z</time>
      </trkpt>
      <trkpt lat="45.31064" lon="5.93031">
        <ele>238.38</ele>
        <time>2019-09-15T07:24:18.000Z</time>
      </trkpt>
      <trkpt lat="45.31092" lon="5.93055">
        <ele>239.31</ele>
        <time>2019-09-15T07:24:23.000Z</time>
      </trkpt>
      <trkpt lat="45.31119" lon="5.9308">
        <ele>239.29</ele>
        <time>2019-09-15T07:24:28.000Z</time>
      </trkpt>
      <trkpt lat="45.31148" lon="5.93101">
        <ele>238.27</ele>
        <time>2019-09-15T07:24:33.000Z</time>
      </trkpt>
      <trkpt lat="45.31177" lon="5.93126">
        <ele>237.28</ele>
        <time>2019-09-15T07:24:38.000Z</time>
      </trkpt>
      <trkpt lat="45.3121" lon="5.93148">
        <ele>236.49</ele>
        <time>2019-09-15T07:24:43.000Z</time>
      </trkpt>
      <trkpt lat="45.31245" lon="5.93158">
        <ele>234.2</ele>
        <time>2019-09-15T07:24:48.000Z</time>
      </trkpt>
      <trkpt lat="45.31276" lon="5.93165">
        <ele>236.48</ele>
        <time>2019-09-15T07:24:53.000Z</time>
      </trkpt>
      <trkpt lat="45.31299" lon="5.93142">
        <ele>238.05</ele>
        <time>2019-09-15T07:24:58.000Z</time>
      </trkpt>
      <trkpt lat="45.31314" lon="5.93109">
        <ele>239.15</ele>
        <time>2019-09-15T07:25:03.000Z</time>
      </trkpt>
      <trkpt lat="45.31329" lon="5.9308">
        <ele>240.53</ele>
        <time>2019-09-15T07:25:08.000Z</time>
      </trkpt>
      <trkpt lat="45.31343" lon="5.93054">
        <ele>240.99</ele>
        <time>2019-09-15T07:25:13.000Z</time>
      </trkpt>
      <trkpt lat="45.3135" lon="5.93019">
        <ele>240.09</ele>
        <time>2019-09-15T07:25:18.000Z</time>
      </trkpt>
      <trkpt lat="45.31355" lon="5.92981">
        <ele>241.37</ele>
        <time>2019-09-15T07:25:23.000Z</time>
      </trkpt>
      <trkpt lat="45.31373" lon="5.92956">
        <ele>241.57</ele>
        <time>2019-09-15T07:25:28.000Z</time>
      </trkpt>
      <trkpt lat="45.31398" lon="5.92941">
        <ele>240.84</ele>
        <time>2019-09-15T07:25:33.000Z</time>
      </trkpt>
      <trkpt lat="45.31423" lon="5.92924">
        <ele>240.8</ele>
        <time>2019-09-15T07:25:38.000Z</time>
      </trkpt>
      <trkpt lat="45.31443" lon="5.92909">
        <ele>241.45</ele>
        <time>2019-09-15T07:25:43.000Z</time>
      </trkpt>
      <trkpt lat="45.31463" lon="5.92887">
        <ele>243.86</ele>
        <time>2019-09-15T07:25:48.000Z</time>
      </trkpt>
      <trkpt lat="45.31476" lon="5.92859">
        <ele>241.72</ele>
        <time>2019-09-15T07:25:53.000Z</time>
      </trkpt>
      <trkpt lat="45.31487" lon="5.92823">
        <ele>241.75</ele>
        <time>2019-09-15T07:25:58.000Z</time>
      </trkpt>
      <trkpt lat="45.31502" lon="5.92791">
        <ele>245.34</ele>
        <time>2019-09-15T07:26:03.000Z</time>
      </trkpt>
      <trkpt lat="45.31517" lon="5.92758">
        <ele>249.46</ele>
        <time>2019-09-15T07:26:08.000Z</time>
      </trkpt>
      <trkpt lat="45.3153" lon="5.92731">
        <ele>252.04</ele>
        <time>2019-09-15T07:26:13.000Z</time>
      </trkpt>
      <trkpt lat="45.3154" lon="5.92695">
        <ele>254.03</ele>
        <time>2019-09-15T07:26:18.000Z</time>
      </trkpt>
      <trkpt lat="45.31552" lon="5.92667">
        <ele>250.55</ele>
        <time>2019-09-15T07:26:23.000Z</time>
      </trkpt>
      <trkpt lat="45.31565" lon="5.92633">
        <ele>252.9</ele>
        <time>2019-09-15T07:26:28.000Z</time>
      </trkpt>
      <trkpt lat="45.31577" lon="5.92606">
        <ele>254.93</ele>
        <time>2019-09-15T07:26:33.000Z</time>
      </trkpt>
      <trkpt lat="45.31593" lon="5.92594">
        <ele>256.14</ele>
        <time>2019-09-15T07:26:38.000Z</time>
      </trkpt>
      <trkpt lat="45.316" lon="5.92617">
        <ele>258.3</ele>
        <time>2019-09-15T07:26:43.000Z</time>
      </trkpt>
      <trkpt lat="45.31606" lon="5.92652">
        <ele>256.68</ele>
        <time>2019-09-15T07:26:48.000Z</time>
      </trkpt>
      <trkpt lat="45.31621" lon="5.92685">
        <ele>256.51</ele>
        <time>2019-09-15T07:26:53.000Z</time>
      </trkpt>
      <trkpt lat="45.31637" lon="5.92715">
        <ele>252.67</ele>
        <time>2019-09-15T07:26:58.000Z</time>
      </trkpt>
      <trkpt lat="45.31653" lon="5.92752">
        <ele>248.92</ele>
        <time>2019-09-15T07:27:03.000Z</time>
      </trkpt>
      <trkpt lat="45.3167" lon="5.92791">
        <ele>249.31</ele>
        <time>2019-09-15T07:27:08.000Z</time>
      </trkpt>
      <trkpt lat="45.31687" lon="5.9283">
        <ele>248.11</ele>
        <time>2019-09-15T07:27:13.000Z</time>
      </trkpt>
      <trkpt lat="45.31709" lon="5.92869">
        <ele>249.09</ele>
        <time>2019-09-15T07:27:18.000Z</time>
      </trkpt>
      <trkpt lat="45.31728" lon="5.92908">
        <ele>246.75</ele>
        <time>2019-09-15T07:27:23.000Z</time>
      </trkpt>
      <trkpt lat="45.31752" lon="5.92948">
        <ele>246.48</ele>
        <time>2019-09-15T07:27:28.000Z</time>
      </trkpt>
      <trkpt lat="45.31773" lon="5.92996">
        <ele>243.42</ele>
        <time>2019-09-15T07:27:33.000Z</time>
      </trkpt>
      <trkpt lat="45.31793" lon="5.93044">
        <ele>243.24</ele>
        <time>2019-09-15T07:27:38.000Z</time>
      </trkpt>
      <trkpt lat="45.31819" lon="5.93098">
        <ele>241.04</ele>
        <time>2019-09-15T07:27:43.000Z</time>
      </trkpt>
      <trkpt lat="45.3184" lon="5.93156">
        <ele>239.75</ele>
        <time>2019-09-15T07:27:48.000Z</time>
      </trkpt>
      <trkpt lat="45.31864" lon="5.9319">
        <ele>238.07</ele>
        <time>2019-09-15T07:27:53.000Z</time>
      </trkpt>
      <trkpt lat="45.31892" lon="5.93194">
        <ele>238.23</ele>
        <time>2019-09-15T07:27:58.000Z</time>
      </trkpt>
      <trkpt lat="45.31919" lon="5.93192">
        <ele>240.63</ele>
        <time>2019-09-15T07:28:03.000Z</time>
      </trkpt>
      <trkpt lat="45.31944" lon="5.93192">
        <ele>242.39</ele>
        <time>2019-09-15T07:28:08.000Z</time>
      </trkpt>
      <trkpt lat="45.31968" lon="5.93202">
        <ele>240.47</ele>
        <time>2019-09-15T07:28:13.000Z</time>
      </trkpt>
      <trkpt lat="45.31988" lon="5.93214">
        <ele>242.33</ele>
        <time>2019-09-15T07:28:18.000Z</time>
      </trkpt>
      <trkpt lat="45.32013" lon="5.93234">
        <ele>240.16</ele>
        <time>2019-09-15T07:28:23.000Z</time>
      </trkpt>
      <trkpt lat="45.32034" lon="5.93257">
        <ele>237.17</ele>
        <time>2019-09-15T07:28:28.000Z</time>
      </trkpt>
      <trkpt lat="45.32054" lon="5.93278">
        <ele>239.27</ele>
        <time>2019-09-15T07:28:33.000Z</time>
      </trkpt>
      <trkpt lat="45.32073" lon="5.933">
        <ele>237.81</ele>
        <time>2019-09-15T07:28:38.000Z</time>
      </trkpt>
      <trkpt lat="45.32091" lon="5.93326">
        <ele>240.86</ele>
        <time>2019-09-15T07:28:43.000Z</time>
      </trkpt>
      <trkpt lat="45.32115" lon="5.93357">
        <ele>240.9</ele>
        <time>2019-09-15T07:28:48.000Z</time>
      </trkpt>
      <trkpt lat="45.3213" lon="5.93385">
        <ele>240.46</ele>
        <time>2019-09-15T07:28:53.000Z</time>
      </trkpt>
      <trkpt lat="45.32147" lon="5.93411">
        <ele>238.16</ele>
        <time>2019-09-15T07:28:58.000Z</time>
      </trkpt>
      <trkpt lat="45.32154" lon="5.93431">
        <ele>238.86</ele>
        <time>2019-09-15T07:29:03.000Z</time>
      </trkpt>
      <trkpt lat="45.32163" lon="5.9344">
        <ele>238.7</ele>
        <time>2019-09-15T07:29:08.000Z</time>
      </trkpt>
      <trkpt lat="45.32169" lon="5.9345">
        <ele>238.67</ele>
        <time>2019-09-15T07:29:20.000Z</time>
      </trkpt>
      <trkpt lat="45.32177" lon="5.93458">
        <ele>243.41</ele>
        <time>2019-09-15T07:30:18.000Z</time>
      </trkpt>
      <trkpt lat="45.32189" lon="5.93482">
        <ele>242.9</ele>
        <time>2019-09-15T07:30:23.000Z</time>
      </trkpt>
      <trkpt lat="45.32205" lon="5.9351">
        <ele>242.8</ele>
        <time>2019-09-15T07:30:28.000Z</time>
      </trkpt>
      <trkpt lat="45.32218" lon="5.93534">
        <ele>243.51</ele>
        <time>2019-09-15T07:30:33.000Z</time>
      </trkpt>
      <trkpt lat="45.32228" lon="5.93552">
        <ele>243.86</ele>
        <time>2019-09-15T07:30:38.000Z</time>
      </trkpt>
      <trkpt lat="45.32244" lon="5.93575">
        <ele>244.15</ele>
        <time>2019-09-15T07:30:43.000Z</time>
      </trkpt>
      <trkpt lat="45.32258" lon="5.93604">
        <ele>239.52</ele>
        <time>2019-09-15T07:30:48.000Z</time>
      </trkpt>
      <trkpt lat="45.32283" lon="5.93631">
        <ele>237.39</ele>
        <time>2019-09-15T07:30:53.000Z</time>
      </trkpt>
      <trkpt lat="45.32306" lon="5.93659">
        <ele>237.78</ele>
        <time>2019-09-15T07:30:58.000Z</time>
      </trkpt>
      <trkpt lat="45.32332" lon="5.93688">
        <ele>240.24</ele>
        <time>2019-09-15T07:31:03.000Z</time>
      </trkpt>
      <trkpt lat="45.3236" lon="5.93712">
        <ele>239.62</ele>
        <time>2019-09-15T07:31:08.000Z</time>
      </trkpt>
      <trkpt lat="45.32378" lon="5.93745">
        <ele>240.42</ele>
        <time>2019-09-15T07:31:13.000Z</time>
      </trkpt>
      <trkpt lat="45.32382" lon="5.93772">
        <ele>240.09</ele>
        <time>2019-09-15T07:31:18.000Z</time>
      </trkpt>
      <trkpt lat="45.32403" lon="5.93798">
        <ele>238.43</ele>
        <time>2019-09-15T07:31:23.000Z</time>
      </trkpt>
      <trkpt lat="45.32427" lon="5.9383">
        <ele>232.14</ele>
        <time>2019-09-15T07:31:28.000Z</time>
      </trkpt>
      <trkpt lat="45.3245" lon="5.9386">
        <ele>234.42</ele>
        <time>2019-09-15T07:31:33.000Z</time>
      </trkpt>
      <trkpt lat="45.32476" lon="5.93889">
        <ele>235.65</ele>
        <time>2019-09-15T07:31:38.000Z</time>
      </trkpt>
      <trkpt lat="45.32498" lon="5.93905">
        <ele>235.38</ele>
        <time>2019-09-15T07:31:43.000Z</time>
      </trkpt>
      <trkpt lat="45.3252" lon="5.93901">
        <ele>237.79</ele>
        <time>2019-09-15T07:31:48.000Z</time>
      </trkpt>
      <trkpt lat="45.32543" lon="5.93883">
        <ele>237.7</ele>
        <time>2019-09-15T07:31:53.000Z</time>
      </trkpt>
      <trkpt lat="45.32566" lon="5.93861">
        <ele>239.92</ele>
        <time>2019-09-15T07:31:58.000Z</time>
      </trkpt>
      <trkpt lat="45.32583" lon="5.93836">
        <ele>242.45</ele>
        <time>2019-09-15T07:32:03.000Z</time>
      </trkpt>
      <trkpt lat="45.32605" lon="5.93815">
        <ele>246.63</ele>
        <time>2019-09-15T07:32:08.000Z</time>
      </trkpt>
      <trkpt lat="45.32625" lon="5.93791">
        <ele>249.22</ele>
        <time>2019-09-15T07:32:13.000Z</time>
      </trkpt>
      <trkpt lat="45.32643" lon="5.93766">
        <ele>245.07</ele>
        <time>2019-09-15T07:32:18.000Z</time>
      </trkpt>
      <trkpt lat="45.32657" lon="5.93732">
        <ele>245.88</ele>
        <time>2019-09-15T07:32:23.000Z</time>
      </trkpt>
      <trkpt lat="45.32668" lon="5.93701">
        <ele>251.78</ele>
        <time>2019-09-15T07:32:28.000Z</time>
      </trkpt>
      <trkpt lat="45.32685" lon="5.93689">
        <ele>254.36</ele>
        <time>2019-09-15T07:32:33.000Z</time>
      </trkpt>
      <trkpt lat="45.32707" lon="5.93691">
        <ele>251.84</ele>
        <time>2019-09-15T07:32:38.000Z</time>
      </trkpt>
      <trkpt lat="45.32732" lon="5.93704">
        <ele>250.09</ele>
        <time>2019-09-15T07:32:43.000Z</time>
      </trkpt>
      <trkpt lat="45.32767" lon="5.93713">
        <ele>248.9</ele>
        <time>2019-09-15T07:32:48.000Z</time>
      </trkpt>
      <trkpt lat="45.32801" lon="5.93725">
        <ele>247.33</ele>
        <time>2019-09-15T07:32:53.000Z</time>
      </trkpt>
      <trkpt lat="45.32838" lon="5.93729">
        <ele>246.5</ele>
        <time>2019-09-15T07:32:58.000Z</time>
      </trkpt>
      <trkpt lat="45.32877" lon="5.93739">
        <ele>245.03</ele>
        <time>2019-09-15T07:33:03.000Z</time>
      </trkpt>
      <trkpt lat="45.32921" lon="5.9375">
        <ele>241.84</ele>
        <time>2019-09-15T07:33:08.000Z</time>
      </trkpt>
      <trkpt lat="45.32966" lon="5.93775">
        <ele>239.14</ele>
        <time>2019-09-15T07:33:13.000Z</time>
      </trkpt>
      <trkpt lat="45.32994" lon="5.93796">
        <ele>238.87</ele>
        <time>2019-09-15T07:33:18.000Z</time>
      </trkpt>
      <trkpt lat="45.33004" lon="5.93842">
        <ele>238.6</ele>
        <time>2019-09-15T07:33:23.000Z</time>
      </trkpt>
      <trkpt lat="45.33017" lon="5.93889">
        <ele>238.52</ele>
        <time>2019-09-15T07:33:28.000Z</time>
      </trkpt>
      <trkpt lat="45.33028" lon="5.93936">
        <ele>236.18</ele>
        <time>2019-09-15T07:33:33.000Z</time>
      </trkpt>
      <trkpt lat="45.33036" lon="5.93979">
        <ele>239.87</ele>
        <time>2019-09-15T07:33:38.000Z</time>
      </trkpt>
      <trkpt lat="45.33047" lon="5.9402">
        <ele>234.89</ele>
        <time>2019-09-15T07:33:43.000Z</time>
      </trkpt>
      <trkpt lat="45.33055" lon="5.94061">
        <ele>234.82</ele>
        <time>2019-09-15T07:33:48.000Z</time>
      </trkpt>
      <trkpt lat="45.33067" lon="5.94104">
        <ele>236.25</ele>
        <time>2019-09-15T07:33:53.000Z</time>
      </trkpt>
      <trkpt lat="45.3308" lon="5.94145">
        <ele>234.67</ele>
        <time>2019-09-15T07:33:58.000Z</time>
      </trkpt>
      <trkpt lat="45.33093" lon="5.94188">
        <ele>231.36</ele>
        <time>2019-09-15T07:34:03.000Z</time>
      </trkpt>
      <trkpt lat="45.331" lon="5.94228">
        <ele>236.63</ele>
        <time>2019-09-15T07:34:08.000Z</time>
      </trkpt>
      <trkpt lat="45.3308" lon="5.94264">
        <ele>232.97</ele>
        <time>2019-09-15T07:34:13.000Z</time>
      </trkpt>
      <trkpt lat="45.33065" lon="5.94301">
        <ele>232.35</ele>
        <time>2019-09-15T07:34:18.000Z</time>
      </trkpt>
      <trkpt lat="45.33077" lon="5.94343">
        <ele>236.06</ele>
        <time>2019-09-15T07:34:23.000Z</time>
      </trkpt>
      <trkpt lat="45.33095" lon="5.94379">
        <ele>240.93</ele>
        <time>2019-09-15T07:34:28.000Z</time>
      </trkpt>
      <trkpt lat="45.33112" lon="5.9442">
        <ele>239.96</ele>
        <time>2019-09-15T07:34:33.000Z</time>
      </trkpt>
      <trkpt lat="45.33124" lon="5.94465">
        <ele>240.61</ele>
        <time>2019-09-15T07:34:38.000Z</time>
      </trkpt>
      <trkpt lat="45.33134" lon="5.94509">
        <ele>240.42</ele>
        <time>2019-09-15T07:34:43.000Z</time>
      </trkpt>
      <trkpt lat="45.33145" lon="5.9455">
        <ele>242.48</ele>
        <time>2019-09-15T07:34:48.000Z</time>
      </trkpt>
      <trkpt lat="45.33162" lon="5.94592">
        <ele>241.68</ele>
        <time>2019-09-15T07:34:53.000Z</time>
      </trkpt>
      <trkpt lat="45.33176" lon="5.94635">
        <ele>242.48</ele>
        <time>2019-09-15T07:34:58.000Z</time>
      </trkpt>
      <trkpt lat="45.3319" lon="5.94681">
        <ele>240.19</ele>
        <time>2019-09-15T07:35:03.000Z</time>
      </trkpt>
      <trkpt lat="45.33199" lon="5.94719">
        <ele>239.6</ele>
        <time>2019-09-15T07:35:08.000Z</time>
      </trkpt>
      <trkpt lat="45.3321" lon="5.94747">
        <ele>239.37</ele>
        <time>2019-09-15T07:35:13.000Z</time>
      </trkpt>
      <trkpt lat="45.33226" lon="5.94769">
        <ele>239.05</ele>
        <time>2019-09-15T07:35:18.000Z</time>
      </trkpt>
      <trkpt lat="45.33248" lon="5.94789">
        <ele>239.84</ele>
        <time>2019-09-15T07:35:23.000Z</time>
      </trkpt>
      <trkpt lat="45.33269" lon="5.94814">
        <ele>236.96</ele>
        <time>2019-09-15T07:35:28.000Z</time>
      </trkpt>
      <trkpt lat="45.33294" lon="5.94838">
        <ele>238.57</ele>
        <time>2019-09-15T07:35:33.000Z</time>
      </trkpt>
      <trkpt lat="45.33318" lon="5.94861">
        <ele>237.42</ele>
        <time>2019-09-15T07:35:38.000Z</time>
      </trkpt>
      <trkpt lat="45.33338" lon="5.94883">
        <ele>238.59</ele>
        <time>2019-09-15T07:35:43.000Z</time>
      </trkpt>
      <trkpt lat="45.33365" lon="5.94907">
        <ele>239</ele>
        <time>2019-09-15T07:35:48.000Z</time>
      </trkpt>
      <trkpt lat="45.3339" lon="5.94931">
        <ele>238.91</ele>
        <time>2019-09-15T07:35:53.000Z</time>
      </trkpt>
      <trkpt lat="45.33413" lon="5.94961">
        <ele>238.41</ele>
        <time>2019-09-15T07:35:58.000Z</time>
      </trkpt>
      <trkpt lat="45.3343" lon="5.95">
        <ele>237.37</ele>
        <time>2019-09-15T07:36:03.000Z</time>
      </trkpt>
      <trkpt lat="45.33444" lon="5.95039">
        <ele>237.73</ele>
        <time>2019-09-15T07:36:08.000Z</time>
      </trkpt>
      <trkpt lat="45.33464" lon="5.95077">
        <ele>239.55</ele>
        <time>2019-09-15T07:36:13.000Z</time>
      </trkpt>
      <trkpt lat="45.33486" lon="5.95112">
        <ele>238.24</ele>
        <time>2019-09-15T07:36:18.000Z</time>
      </trkpt>
      <trkpt lat="45.33509" lon="5.95144">
        <ele>237.89</ele>
        <time>2019-09-15T07:36:23.000Z</time>
      </trkpt>
      <trkpt lat="45.33528" lon="5.95183">
        <ele>237.67</ele>
        <time>2019-09-15T07:36:28.000Z</time>
      </trkpt>
      <trkpt lat="45.33547" lon="5.95216">
        <ele>237.2</ele>
        <time>2019-09-15T07:36:33.000Z</time>
      </trkpt>
      <trkpt lat="45.33571" lon="5.95246">
        <ele>237.5</ele>
        <time>2019-09-15T07:36:38.000Z</time>
      </trkpt>
      <trkpt lat="45.33594" lon="5.95278">
        <ele>237.87</ele>
        <time>2019-09-15T07:36:43.000Z</time>
      </trkpt>
      <trkpt lat="45.33606" lon="5.95318">
        <ele>237.59</ele>
        <time>2019-09-15T07:36:48.000Z</time>
      </trkpt>
      <trkpt lat="45.3363" lon="5.95354">
        <ele>236.48</ele>
        <time>2019-09-15T07:36:53.000Z</time>
      </trkpt>
      <trkpt lat="45.33653" lon="5.95384">
        <ele>236.01</ele>
        <time>2019-09-15T07:36:58.000Z</time>
      </trkpt>
      <trkpt lat="45.33675" lon="5.95419">
        <ele>238.95</ele>
        <time>2019-09-15T07:37:03.000Z</time>
      </trkpt>
      <trkpt lat="45.33695" lon="5.95447">
        <ele>239.79</ele>
        <time>2019-09-15T07:37:08.000Z</time>
      </trkpt>
      <trkpt lat="45.33714" lon="5.95475">
        <ele>240.01</ele>
        <time>2019-09-15T07:37:13.000Z</time>
      </trkpt>
      <trkpt lat="45.33732" lon="5.95506">
        <ele>237.83</ele>
        <time>2019-09-15T07:37:18.000Z</time>
      </trkpt>
      <trkpt lat="45.33747" lon="5.95531">
        <ele>235.58</ele>
        <time>2019-09-15T07:37:23.000Z</time>
      </trkpt>
      <trkpt lat="45.33764" lon="5.95558">
        <ele>237.31</ele>
        <time>2019-09-15T07:37:28.000Z</time>
      </trkpt>
      <trkpt lat="45.33763" lon="5.95581">
        <ele>235.97</ele>
        <time>2019-09-15T07:37:33.000Z</time>
      </trkpt>
      <trkpt lat="45.33767" lon="5.95596">
        <ele>236.57</ele>
        <time>2019-09-15T07:37:38.000Z</time>
      </trkpt>
      <trkpt lat="45.33768" lon="5.95609">
        <ele>211.05</ele>
        <time>2019-09-15T07:38:51.000Z</time>
      </trkpt>
      <trkpt lat="45.33778" lon="5.95614">
        <ele>220.63</ele>
        <time>2019-09-15T07:40:02.000Z</time>
      </trkpt>
      <trkpt lat="45.33792" lon="5.9563">
        <ele>227.85</ele>
        <time>2019-09-15T07:40:07.000Z</time>
      </trkpt>
      <trkpt lat="45.33806" lon="5.95645">
        <ele>228.02</ele>
        <time>2019-09-15T07:40:12.000Z</time>
      </trkpt>
      <trkpt lat="45.33825" lon="5.95671">
        <ele>231.8</ele>
        <time>2019-09-15T07:40:17.000Z</time>
      </trkpt>
      <trkpt lat="45.33844" lon="5.95708">
        <ele>233.59</ele>
        <time>2019-09-15T07:40:22.000Z</time>
      </trkpt>
      <trkpt lat="45.33869" lon="5.95741">
        <ele>235.02</ele>
        <time>2019-09-15T07:40:27.000Z</time>
      </trkpt>
      <trkpt lat="45.33895" lon="5.9576">
        <ele>241.23</ele>
        <time>2019-09-15T07:40:32.000Z</time>
      </trkpt>
      <trkpt lat="45.33922" lon="5.95779">
        <ele>239.4</ele>
        <time>2019-09-15T07:40:37.000Z</time>
      </trkpt>
      <trkpt lat="45.33961" lon="5.95799">
        <ele>238.28</ele>
        <time>2019-09-15T07:40:42.000Z</time>
      </trkpt>
      <trkpt lat="45.33995" lon="5.95815">
        <ele>240.26</ele>
        <time>2019-09-15T07:40:47.000Z</time>
      </trkpt>
      <trkpt lat="45.34027" lon="5.95836">
        <ele>236.8</ele>
        <time>2019-09-15T07:40:52.000Z</time>
      </trkpt>
      <trkpt lat="45.34062" lon="5.95849">
        <ele>235.49</ele>
        <time>2019-09-15T07:40:57.000Z</time>
      </trkpt>
      <trkpt lat="45.34098" lon="5.95869">
        <ele>233.54</ele>
        <time>2019-09-15T07:41:02.000Z</time>
      </trkpt>
      <trkpt lat="45.34127" lon="5.95884">
        <ele>233.2</ele>
        <time>2019-09-15T07:41:07.000Z</time>
      </trkpt>
      <trkpt lat="45.34153" lon="5.959">
        <ele>233.19</ele>
        <time>2019-09-15T07:41:12.000Z</time>
      </trkpt>
      <trkpt lat="45.34184" lon="5.95923">
        <ele>234.19</ele>
        <time>2019-09-15T07:41:17.000Z</time>
      </trkpt>
      <trkpt lat="45.34215" lon="5.95944">
        <ele>229.41</ele>
        <time>2019-09-15T07:41:22.000Z</time>
      </trkpt>
      <trkpt lat="45.34244" lon="5.95958">
        <ele>231.99</ele>
        <time>2019-09-15T07:41:27.000Z</time>
      </trkpt>
      <trkpt lat="45.34277" lon="5.95972">
        <ele>232.89</ele>
        <time>2019-09-15T07:41:32.000Z</time>
      </trkpt>
      <trkpt lat="45.34309" lon="5.95991">
        <ele>235.57</ele>
        <time>2019-09-15T07:41:37.000Z</time>
      </trkpt>
      <trkpt lat="45.34332" lon="5.96014">
        <ele>235.41</ele>
        <time>2019-09-15T07:41:42.000Z</time>
      </trkpt>
      <trkpt lat="45.3436" lon="5.96045">
        <ele>238.05</ele>
        <time>2019-09-15T07:41:47.000Z</time>
      </trkpt>
      <trkpt lat="45.34387" lon="5.96065">
        <ele>238.21</ele>
        <time>2019-09-15T07:41:52.000Z</time>
      </trkpt>
      <trkpt lat="45.34418" lon="5.96081">
        <ele>237.91</ele>
        <time>2019-09-15T07:41:57.000Z</time>
      </trkpt>
      <trkpt lat="45.34444" lon="5.96101">
        <ele>234.83</ele>
        <time>2019-09-15T07:42:02.000Z</time>
      </trkpt>
      <trkpt lat="45.34478" lon="5.96122">
        <ele>233.39</ele>
        <time>2019-09-15T07:42:07.000Z</time>
      </trkpt>
      <trkpt lat="45.34505" lon="5.96139">
        <ele>236.18</ele>
        <time>2019-09-15T07:42:12.000Z</time>
      </trkpt>
      <trkpt lat="45.34535" lon="5.96161">
        <ele>237.81</ele>
        <time>2019-09-15T07:42:17.000Z</time>
      </trkpt>
      <trkpt lat="45.34564" lon="5.96177">
        <ele>239.65</ele>
        <time>2019-09-15T07:42:22.000Z</time>
      </trkpt>
      <trkpt lat="45.34594" lon="5.96193">
        <ele>243.51</ele>
        <time>2019-09-15T07:42:27.000Z</time>
      </trkpt>
      <trkpt lat="45.34623" lon="5.96216">
        <ele>242.27</ele>
        <time>2019-09-15T07:42:32.000Z</time>
      </trkpt>
      <trkpt lat="45.34647" lon="5.96232">
        <ele>240.29</ele>
        <time>2019-09-15T07:42:37.000Z</time>
      </trkpt>
      <trkpt lat="45.34681" lon="5.96261">
        <ele>239.01</ele>
        <time>2019-09-15T07:42:42.000Z</time>
      </trkpt>
      <trkpt lat="45.34713" lon="5.96274">
        <ele>236.43</ele>
        <time>2019-09-15T07:42:47.000Z</time>
      </trkpt>
      <trkpt lat="45.34742" lon="5.96293">
        <ele>233.3</ele>
        <time>2019-09-15T07:42:52.000Z</time>
      </trkpt>
      <trkpt lat="45.34776" lon="5.96319">
        <ele>230.29</ele>
        <time>2019-09-15T07:42:57.000Z</time>
      </trkpt>
      <trkpt lat="45.34801" lon="5.96331">
        <ele>232</ele>
        <time>2019-09-15T07:43:02.000Z</time>
      </trkpt>
      <trkpt lat="45.34832" lon="5.96339">
        <ele>230.9</ele>
        <time>2019-09-15T07:43:07.000Z</time>
      </trkpt>
      <trkpt lat="45.34866" lon="5.96323">
        <ele>231.59</ele>
        <time>2019-09-15T07:43:12.000Z</time>
      </trkpt>
      <trkpt lat="45.34902" lon="5.96309">
        <ele>228.4</ele>
        <time>2019-09-15T07:43:17.000Z</time>
      </trkpt>
      <trkpt lat="45.34935" lon="5.96299">
        <ele>228.42</ele>
        <time>2019-09-15T07:43:22.000Z</time>
      </trkpt>
      <trkpt lat="45.34968" lon="5.96291">
        <ele>229.98</ele>
        <time>2019-09-15T07:43:27.000Z</time>
      </trkpt>
      <trkpt lat="45.35002" lon="5.96282">
        <ele>234.75</ele>
        <time>2019-09-15T07:43:32.000Z</time>
      </trkpt>
      <trkpt lat="45.35032" lon="5.96271">
        <ele>237.99</ele>
        <time>2019-09-15T07:43:37.000Z</time>
      </trkpt>
      <trkpt lat="45.35062" lon="5.96264">
        <ele>238.35</ele>
        <time>2019-09-15T07:43:42.000Z</time>
      </trkpt>
      <trkpt lat="45.35094" lon="5.96256">
        <ele>237.72</ele>
        <time>2019-09-15T07:43:47.000Z</time>
      </trkpt>
      <trkpt lat="45.3512" lon="5.96252">
        <ele>236.98</ele>
        <time>2019-09-15T07:43:52.000Z</time>
      </trkpt>
      <trkpt lat="45.35135" lon="5.9627">
        <ele>237.44</ele>
        <time>2019-09-15T07:43:57.000Z</time>
      </trkpt>
      <trkpt lat="45.35141" lon="5.96283">
        <ele>240.44</ele>
        <time>2019-09-15T07:44:04.000Z</time>
      </trkpt>
      <trkpt lat="45.35152" lon="5.96296">
        <ele>241.15</ele>
        <time>2019-09-15T07:44:09.000Z</time>
      </trkpt>
      <trkpt lat="45.35168" lon="5.96315">
        <ele>242.09</ele>
        <time>2019-09-15T07:44:14.000Z</time>
      </trkpt>
      <trkpt lat="45.35173" lon="5.96355">
        <ele>241.11</ele>
        <time>2019-09-15T07:44:19.000Z</time>
      </trkpt>
      <trkpt lat="45.35175" lon="5.96388">
        <ele>240.98</ele>
        <time>2019-09-15T07:44:24.000Z</time>
      </trkpt>
      <trkpt lat="45.35176" lon="5.9643">
        <ele>240.51</ele>
        <time>2019-09-15T07:44:29.000Z</time>
      </trkpt>
      <trkpt lat="45.35167" lon="5.96468">
        <ele>240.67</ele>
        <time>2019-09-15T07:44:34.000Z</time>
      </trkpt>
      <trkpt lat="45.35153" lon="5.96506">
        <ele>239.63</ele>
        <time>2019-09-15T07:44:39.000Z</time>
      </trkpt>
      <trkpt lat="45.35142" lon="5.96541">
        <ele>238.44</ele>
        <time>2019-09-15T07:44:44.000Z</time>
      </trkpt>
      <trkpt lat="45.35163" lon="5.96559">
        <ele>238.27</ele>
        <time>2019-09-15T07:44:49.000Z</time>
      </trkpt>
      <trkpt lat="45.35192" lon="5.96582">
        <ele>238.48</ele>
        <time>2019-09-15T07:44:54.000Z</time>
      </trkpt>
      <trkpt lat="45.35219" lon="5.96598">
        <ele>238.41</ele>
        <time>2019-09-15T07:44:59.000Z</time>
      </trkpt>
      <trkpt lat="45.35246" lon="5.96615">
        <ele>236.67</ele>
        <time>2019-09-15T07:45:04.000Z</time>
      </trkpt>
      <trkpt lat="45.35274" lon="5.9663">
        <ele>238.59</ele>
        <time>2019-09-15T07:45:09.000Z</time>
      </trkpt>
      <trkpt lat="45.35302" lon="5.96647">
        <ele>236.95</ele>
        <time>2019-09-15T07:45:14.000Z</time>
      </trkpt>
      <trkpt lat="45.35336" lon="5.96657">
        <ele>238.65</ele>
        <time>2019-09-15T07:45:19.000Z</time>
      </trkpt>
      <trkpt lat="45.35367" lon="5.96662">
        <ele>238.1</ele>
        <time>2019-09-15T07:45:24.000Z</time>
      </trkpt>
      <trkpt lat="45.35401" lon="5.96668">
        <ele>238.09</ele>
        <time>2019-09-15T07:45:29.000Z</time>
      </trkpt>
      <trkpt lat="45.35431" lon="5.96676">
        <ele>237.65</ele>
        <time>2019-09-15T07:45:34.000Z</time>
      </trkpt>
      <trkpt lat="45.35465" lon="5.96684">
        <ele>238.41</ele>
        <time>2019-09-15T07:45:39.000Z</time>
      </trkpt>
      <trkpt lat="45.35498" lon="5.96689">
        <ele>239.13</ele>
        <time>2019-09-15T07:45:44.000Z</time>
      </trkpt>
      <trkpt lat="45.35531" lon="5.96698">
        <ele>238.03</ele>
        <time>2019-09-15T07:45:49.000Z</time>
      </trkpt>
      <trkpt lat="45.35558" lon="5.96698">
        <ele>236.77</ele>
        <time>2019-09-15T07:45:54.000Z</time>
      </trkpt>
      <trkpt lat="45.35587" lon="5.96704">
        <ele>240.34</ele>
        <time>2019-09-15T07:45:59.000Z</time>
      </trkpt>
      <trkpt lat="45.35622" lon="5.96708">
        <ele>241.95</ele>
        <time>2019-09-15T07:46:04.000Z</time>
      </trkpt>
      <trkpt lat="45.35655" lon="5.96712">
        <ele>238.37</ele>
        <time>2019-09-15T07:46:09.000Z</time>
      </trkpt>
      <trkpt lat="45.35687" lon="5.96717">
        <ele>238.07</ele>
        <time>2019-09-15T07:46:14.000Z</time>
      </trkpt>
      <trkpt lat="45.35712" lon="5.96721">
        <ele>237.47</ele>
        <time>2019-09-15T07:46:19.000Z</time>
      </trkpt>
      <trkpt lat="45.35738" lon="5.96729">
        <ele>236.28</ele>
        <time>2019-09-15T07:46:24.000Z</time>
      </trkpt>
      <trkpt lat="45.35767" lon="5.96738">
        <ele>240.17</ele>
        <time>2019-09-15T07:46:29.000Z</time>
      </trkpt>
      <trkpt lat="45.35796" lon="5.96751">
        <ele>242.19</ele>
        <time>2019-09-15T07:46:34.000Z</time>
      </trkpt>
      <trkpt lat="45.35824" lon="5.96759">
        <ele>242.47</ele>
        <time>2019-09-15T07:46:39.000Z</time>
      </trkpt>
      <trkpt lat="45.35854" lon="5.96758">
        <ele>241.02</ele>
        <time>2019-09-15T07:46:44.000Z</time>
      </trkpt>
      <trkpt lat="45.35882" lon="5.96756">
        <ele>242.11</ele>
        <time>2019-09-15T07:46:49.000Z</time>
      </trkpt>
      <trkpt lat="45.3591" lon="5.96759">
        <ele>242.13</ele>
        <time>2019-09-15T07:46:54.000Z</time>
      </trkpt>
      <trkpt lat="45.3594" lon="5.9676">
        <ele>245.77</ele>
        <time>2019-09-15T07:46:59.000Z</time>
      </trkpt>
      <trkpt lat="45.35972" lon="5.96759">
        <ele>249.21</ele>
        <time>2019-09-15T07:47:04.000Z</time>
      </trkpt>
      <trkpt lat="45.36002" lon="5.96756">
        <ele>250.15</ele>
        <time>2019-09-15T07:47:09.000Z</time>
      </trkpt>
      <trkpt lat="45.36032" lon="5.96753">
        <ele>252.85</ele>
        <time>2019-09-15T07:47:14.000Z</time>
      </trkpt>
      <trkpt lat="45.36055" lon="5.96746">
        <ele>252.62</ele>
        <time>2019-09-15T07:47:19.000Z</time>
      </trkpt>
      <trkpt lat="45.36072" lon="5.96736">
        <ele>251.71</ele>
        <time>2019-09-15T07:47:24.000Z</time>
      </trkpt>
      <trkpt lat="45.36084" lon="5.96735">
        <ele>251.71</ele>
        <time>2019-09-15T07:47:29.000Z</time>
      </trkpt>
      <trkpt lat="45.36076" lon="5.9674">
        <ele>253.93</ele>
        <time>2019-09-15T07:47:47.000Z</time>
      </trkpt>
      <trkpt lat="45.36066" lon="5.96749">
        <ele>251.44</ele>
        <time>2019-09-15T07:47:52.000Z</time>
      </trkpt>
      <trkpt lat="45.36081" lon="5.9675">
        <ele>248</ele>
        <time>2019-09-15T07:47:57.000Z</time>
      </trkpt>
      <trkpt lat="45.36101" lon="5.96749">
        <ele>246.91</ele>
        <time>2019-09-15T07:48:02.000Z</time>
      </trkpt>
      <trkpt lat="45.36118" lon="5.96747">
        <ele>248.25</ele>
        <time>2019-09-15T07:48:07.000Z</time>
      </trkpt>
      <trkpt lat="45.36137" lon="5.96746">
        <ele>246.44</ele>
        <time>2019-09-15T07:48:12.000Z</time>
      </trkpt>
      <trkpt lat="45.36157" lon="5.96741">
        <ele>244.58</ele>
        <time>2019-09-15T07:48:17.000Z</time>
      </trkpt>
      <trkpt lat="45.36178" lon="5.96735">
        <ele>243.15</ele>
        <time>2019-09-15T07:48:22.000Z</time>
      </trkpt>
      <trkpt lat="45.362" lon="5.96733">
        <ele>244.29</ele>
        <time>2019-09-15T07:48:27.000Z</time>
      </trkpt>
      <trkpt lat="45.36223" lon="5.96736">
        <ele>244.4</ele>
        <time>2019-09-15T07:48:32.000Z</time>
      </trkpt>
      <trkpt lat="45.36243" lon="5.96739">
        <ele>244.62</ele>
        <time>2019-09-15T07:48:37.000Z</time>
      </trkpt>
      <trkpt lat="45.36268" lon="5.9674">
        <ele>243.04</ele>
        <time>2019-09-15T07:48:42.000Z</time>
      </trkpt>
      <trkpt lat="45.363" lon="5.96741">
        <ele>242.35</ele>
        <time>2019-09-15T07:48:47.000Z</time>
      </trkpt>
      <trkpt lat="45.36331" lon="5.96737">
        <ele>243.27</ele>
        <time>2019-09-15T07:48:52.000Z</time>
      </trkpt>
      <trkpt lat="45.3636" lon="5.96739">
        <ele>245.74</ele>
        <time>2019-09-15T07:48:57.000Z</time>
      </trkpt>
      <trkpt lat="45.36394" lon="5.9676">
        <ele>246.65</ele>
        <time>2019-09-15T07:49:02.000Z</time>
      </trkpt>
      <trkpt lat="45.36426" lon="5.96761">
        <ele>248.87</ele>
        <time>2019-09-15T07:49:07.000Z</time>
      </trkpt>
      <trkpt lat="45.36459" lon="5.96769">
        <ele>249.89</ele>
        <time>2019-09-15T07:49:12.000Z</time>
      </trkpt>
      <trkpt lat="45.36492" lon="5.96779">
        <ele>249.52</ele>
        <time>2019-09-15T07:49:17.000Z</time>
      </trkpt>
      <trkpt lat="45.36524" lon="5.96787">
        <ele>251.71</ele>
        <time>2019-09-15T07:49:22.000Z</time>
      </trkpt>
      <trkpt lat="45.36556" lon="5.9679">
        <ele>251.74</ele>
        <time>2019-09-15T07:49:27.000Z</time>
      </trkpt>
      <trkpt lat="45.36588" lon="5.96798">
        <ele>251.67</ele>
        <time>2019-09-15T07:49:32.000Z</time>
      </trkpt>
      <trkpt lat="45.36621" lon="5.96812">
        <ele>251.31</ele>
        <time>2019-09-15T07:49:37.000Z</time>
      </trkpt>
      <trkpt lat="45.36652" lon="5.9682">
        <ele>248.48</ele>
        <time>2019-09-15T07:49:42.000Z</time>
      </trkpt>
      <trkpt lat="45.36683" lon="5.96826">
        <ele>248.6</ele>
        <time>2019-09-15T07:49:47.000Z</time>
      </trkpt>
      <trkpt lat="45.36707" lon="5.96839">
        <ele>248.71</ele>
        <time>2019-09-15T07:49:52.000Z</time>
      </trkpt>
      <trkpt lat="45.36735" lon="5.9686">
        <ele>246.82</ele>
        <time>2019-09-15T07:49:57.000Z</time>
      </trkpt>
      <trkpt lat="45.3676" lon="5.9688">
        <ele>249.04</ele>
        <time>2019-09-15T07:50:02.000Z</time>
      </trkpt>
      <trkpt lat="45.36789" lon="5.96898">
        <ele>246.69</ele>
        <time>2019-09-15T07:50:07.000Z</time>
      </trkpt>
      <trkpt lat="45.36821" lon="5.96914">
        <ele>246.94</ele>
        <time>2019-09-15T07:50:12.000Z</time>
      </trkpt>
      <trkpt lat="45.36851" lon="5.96933">
        <ele>248.25</ele>
        <time>2019-09-15T07:50:17.000Z</time>
      </trkpt>
      <trkpt lat="45.36882" lon="5.96955">
        <ele>247.18</ele>
        <time>2019-09-15T07:50:22.000Z</time>
      </trkpt>
      <trkpt lat="45.36912" lon="5.96977">
        <ele>246.7</ele>
        <time>2019-09-15T07:50:27.000Z</time>
      </trkpt>
      <trkpt lat="45.36945" lon="5.96996">
        <ele>245.6</ele>
        <time>2019-09-15T07:50:32.000Z</time>
      </trkpt>
      <trkpt lat="45.3698" lon="5.97015">
        <ele>245.4</ele>
        <time>2019-09-15T07:50:37.000Z</time>
      </trkpt>
      <trkpt lat="45.3702" lon="5.97017">
        <ele>245.79</ele>
        <time>2019-09-15T07:50:42.000Z</time>
      </trkpt>
      <trkpt lat="45.37062" lon="5.97003">
        <ele>243.8</ele>
        <time>2019-09-15T07:50:47.000Z</time>
      </trkpt>
      <trkpt lat="45.37103" lon="5.97016">
        <ele>242.26</ele>
        <time>2019-09-15T07:50:52.000Z</time>
      </trkpt>
      <trkpt lat="45.37136" lon="5.97034">
        <ele>242.39</ele>
        <time>2019-09-15T07:50:57.000Z</time>
      </trkpt>
      <trkpt lat="45.37168" lon="5.97055">
        <ele>241.06</ele>
        <time>2019-09-15T07:51:02.000Z</time>
      </trkpt>
      <trkpt lat="45.37203" lon="5.97075">
        <ele>238.27</ele>
        <time>2019-09-15T07:51:07.000Z</time>
      </trkpt>
      <trkpt lat="45.37233" lon="5.97093">
        <ele>237.53</ele>
        <time>2019-09-15T07:51:12.000Z</time>
      </trkpt>
      <trkpt lat="45.3726" lon="5.97112">
        <ele>238.23</ele>
        <time>2019-09-15T07:51:17.000Z</time>
      </trkpt>
      <trkpt lat="45.37289" lon="5.97136">
        <ele>237.48</ele>
        <time>2019-09-15T07:51:22.000Z</time>
      </trkpt>
      <trkpt lat="45.37312" lon="5.97157">
        <ele>238.25</ele>
        <time>2019-09-15T07:51:27.000Z</time>
      </trkpt>
      <trkpt lat="45.37341" lon="5.97179">
        <ele>240.93</ele>
        <time>2019-09-15T07:51:32.000Z</time>
      </trkpt>
      <trkpt lat="45.37369" lon="5.97191">
        <ele>241.05</ele>
        <time>2019-09-15T07:51:37.000Z</time>
      </trkpt>
      <trkpt lat="45.37393" lon="5.97199">
        <ele>240.54</ele>
        <time>2019-09-15T07:51:42.000Z</time>
      </trkpt>
      <trkpt lat="45.37417" lon="5.97206">
        <ele>246.35</ele>
        <time>2019-09-15T07:51:47.000Z</time>
      </trkpt>
      <trkpt lat="45.37444" lon="5.97214">
        <ele>248.72</ele>
        <time>2019-09-15T07:51:52.000Z</time>
      </trkpt>
      <trkpt lat="45.37469" lon="5.97221">
        <ele>248.36</ele>
        <time>2019-09-15T07:51:57.000Z</time>
      </trkpt>
      <trkpt lat="45.37496" lon="5.97229">
        <ele>248.62</ele>
        <time>2019-09-15T07:52:02.000Z</time>
      </trkpt>
      <trkpt lat="45.37524" lon="5.97236">
        <ele>249.91</ele>
        <time>2019-09-15T07:52:07.000Z</time>
      </trkpt>
      <trkpt lat="45.37551" lon="5.97239">
        <ele>251.56</ele>
        <time>2019-09-15T07:52:12.000Z</time>
      </trkpt>
      <trkpt lat="45.37577" lon="5.97242">
        <ele>251.63</ele>
        <time>2019-09-15T07:52:17.000Z</time>
      </trkpt>
      <trkpt lat="45.37606" lon="5.97238">
        <ele>251.63</ele>
        <time>2019-09-15T07:52:22.000Z</time>
      </trkpt>
      <trkpt lat="45.37631" lon="5.97245">
        <ele>248.76</ele>
        <time>2019-09-15T07:52:27.000Z</time>
      </trkpt>
      <trkpt lat="45.37661" lon="5.97255">
        <ele>249.45</ele>
        <time>2019-09-15T07:52:32.000Z</time>
      </trkpt>
      <trkpt lat="45.37688" lon="5.97269">
        <ele>246.93</ele>
        <time>2019-09-15T07:52:37.000Z</time>
      </trkpt>
      <trkpt lat="45.37721" lon="5.97274">
        <ele>246.93</ele>
        <time>2019-09-15T07:52:42.000Z</time>
      </trkpt>
      <trkpt lat="45.37753" lon="5.97279">
        <ele>248.22</ele>
        <time>2019-09-15T07:52:47.000Z</time>
      </trkpt>
      <trkpt lat="45.37785" lon="5.97286">
        <ele>247.48</ele>
        <time>2019-09-15T07:52:52.000Z</time>
      </trkpt>
      <trkpt lat="45.37814" lon="5.97292">
        <ele>248.41</ele>
        <time>2019-09-15T07:52:57.000Z</time>
      </trkpt>
      <trkpt lat="45.37846" lon="5.97293">
        <ele>250.76</ele>
        <time>2019-09-15T07:53:02.000Z</time>
      </trkpt>
      <trkpt lat="45.37877" lon="5.97296">
        <ele>248.07</ele>
        <time>2019-09-15T07:53:07.000Z</time>
      </trkpt>
      <trkpt lat="45.37909" lon="5.97297">
        <ele>247.25</ele>
        <time>2019-09-15T07:53:12.000Z</time>
      </trkpt>
      <trkpt lat="45.3794" lon="5.97294">
        <ele>246.81</ele>
        <time>2019-09-15T07:53:17.000Z</time>
      </trkpt>
      <trkpt lat="45.37971" lon="5.97294">
        <ele>247.42</ele>
        <time>2019-09-15T07:53:22.000Z</time>
      </trkpt>
      <trkpt lat="45.38006" lon="5.97295">
        <ele>246.31</ele>
        <time>2019-09-15T07:53:27.000Z</time>
      </trkpt>
      <trkpt lat="45.38041" lon="5.97302">
        <ele>249.98</ele>
        <time>2019-09-15T07:53:32.000Z</time>
      </trkpt>
      <trkpt lat="45.38077" lon="5.97316">
        <ele>247.8</ele>
        <time>2019-09-15T07:53:37.000Z</time>
      </trkpt>
      <trkpt lat="45.3811" lon="5.97331">
        <ele>247.09</ele>
        <time>2019-09-15T07:53:42.000Z</time>
      </trkpt>
      <trkpt lat="45.38143" lon="5.97334">
        <ele>247.53</ele>
        <time>2019-09-15T07:53:47.000Z</time>
      </trkpt>
      <trkpt lat="45.38174" lon="5.97315">
        <ele>247.23</ele>
        <time>2019-09-15T07:53:52.000Z</time>
      </trkpt>
      <trkpt lat="45.38205" lon="5.97303">
        <ele>245.54</ele>
        <time>2019-09-15T07:53:57.000Z</time>
      </trkpt>
      <trkpt lat="45.38243" lon="5.97311">
        <ele>248.13</ele>
        <time>2019-09-15T07:54:02.000Z</time>
      </trkpt>
      <trkpt lat="45.38274" lon="5.97327">
        <ele>246.74</ele>
        <time>2019-09-15T07:54:07.000Z</time>
      </trkpt>
      <trkpt lat="45.38302" lon="5.97345">
        <ele>245.75</ele>
        <time>2019-09-15T07:54:12.000Z</time>
      </trkpt>
      <trkpt lat="45.38334" lon="5.97363">
        <ele>245.99</ele>
        <time>2019-09-15T07:54:17.000Z</time>
      </trkpt>
      <trkpt lat="45.38365" lon="5.97382">
        <ele>246.4</ele>
        <time>2019-09-15T07:54:22.000Z</time>
      </trkpt>
      <trkpt lat="45.38397" lon="5.974">
        <ele>244.27</ele>
        <time>2019-09-15T07:54:27.000Z</time>
      </trkpt>
      <trkpt lat="45.3843" lon="5.97418">
        <ele>243.39</ele>
        <time>2019-09-15T07:54:32.000Z</time>
      </trkpt>
      <trkpt lat="45.38466" lon="5.97435">
        <ele>243.64</ele>
        <time>2019-09-15T07:54:37.000Z</time>
      </trkpt>
      <trkpt lat="45.38498" lon="5.97453">
        <ele>243.67</ele>
        <time>2019-09-15T07:54:42.000Z</time>
      </trkpt>
      <trkpt lat="45.38529" lon="5.9747">
        <ele>244.64</ele>
        <time>2019-09-15T07:54:47.000Z</time>
      </trkpt>
      <trkpt lat="45.38559" lon="5.97487">
        <ele>244.8</ele>
        <time>2019-09-15T07:54:52.000Z</time>
      </trkpt>
      <trkpt lat="45.38588" lon="5.97503">
        <ele>243.26</ele>
        <time>2019-09-15T07:54:57.000Z</time>
      </trkpt>
      <trkpt lat="45.38616" lon="5.97518">
        <ele>242.93</ele>
        <time>2019-09-15T07:55:02.000Z</time>
      </trkpt>
      <trkpt lat="45.38647" lon="5.97533">
        <ele>243.53</ele>
        <time>2019-09-15T07:55:07.000Z</time>
      </trkpt>
      <trkpt lat="45.38677" lon="5.97553">
        <ele>244.29</ele>
        <time>2019-09-15T07:55:12.000Z</time>
      </trkpt>
      <trkpt lat="45.38705" lon="5.97568">
        <ele>243.71</ele>
        <time>2019-09-15T07:55:17.000Z</time>
      </trkpt>
      <trkpt lat="45.38736" lon="5.97583">
        <ele>241.03</ele>
        <time>2019-09-15T07:55:22.000Z</time>
      </trkpt>
      <trkpt lat="45.38771" lon="5.97601">
        <ele>241.11</ele>
        <time>2019-09-15T07:55:27.000Z</time>
      </trkpt>
      <trkpt lat="45.38806" lon="5.97622">
        <ele>240.58</ele>
        <time>2019-09-15T07:55:32.000Z</time>
      </trkpt>
      <trkpt lat="45.38835" lon="5.97637">
        <ele>240.13</ele>
        <time>2019-09-15T07:55:37.000Z</time>
      </trkpt>
      <trkpt lat="45.38862" lon="5.97651">
        <ele>242.37</ele>
        <time>2019-09-15T07:55:42.000Z</time>
      </trkpt>
      <trkpt lat="45.38904" lon="5.97668">
        <ele>244.2</ele>
        <time>2019-09-15T07:55:47.000Z</time>
      </trkpt>
      <trkpt lat="45.38932" lon="5.97683">
        <ele>245.78</ele>
        <time>2019-09-15T07:55:52.000Z</time>
      </trkpt>
      <trkpt lat="45.38959" lon="5.97701">
        <ele>243.86</ele>
        <time>2019-09-15T07:55:57.000Z</time>
      </trkpt>
      <trkpt lat="45.38991" lon="5.9772">
        <ele>245.8</ele>
        <time>2019-09-15T07:56:02.000Z</time>
      </trkpt>
      <trkpt lat="45.39022" lon="5.97738">
        <ele>244.33</ele>
        <time>2019-09-15T07:56:07.000Z</time>
      </trkpt>
      <trkpt lat="45.39051" lon="5.9776">
        <ele>242.86</ele>
        <time>2019-09-15T07:56:12.000Z</time>
      </trkpt>
      <trkpt lat="45.39074" lon="5.97775">
        <ele>240.19</ele>
        <time>2019-09-15T07:56:17.000Z</time>
      </trkpt>
      <trkpt lat="45.39105" lon="5.97791">
        <ele>239.43</ele>
        <time>2019-09-15T07:56:22.000Z</time>
      </trkpt>
      <trkpt lat="45.39135" lon="5.97804">
        <ele>238.49</ele>
        <time>2019-09-15T07:56:27.000Z</time>
      </trkpt>
      <trkpt lat="45.39166" lon="5.97822">
        <ele>238.2</ele>
        <time>2019-09-15T07:56:32.000Z</time>
      </trkpt>
      <trkpt lat="45.39196" lon="5.97839">
        <ele>239.63</ele>
        <time>2019-09-15T07:56:37.000Z</time>
      </trkpt>
      <trkpt lat="45.39223" lon="5.97851">
        <ele>239.5</ele>
        <time>2019-09-15T07:56:42.000Z</time>
      </trkpt>
      <trkpt lat="45.39247" lon="5.97864">
        <ele>239.1</ele>
        <time>2019-09-15T07:56:47.000Z</time>
      </trkpt>
      <trkpt lat="45.39273" lon="5.97879">
        <ele>239.33</ele>
        <time>2019-09-15T07:56:52.000Z</time>
      </trkpt>
      <trkpt lat="45.393" lon="5.97893">
        <ele>241.54</ele>
        <time>2019-09-15T07:56:57.000Z</time>
      </trkpt>
      <trkpt lat="45.39327" lon="5.97907">
        <ele>241.14</ele>
        <time>2019-09-15T07:57:02.000Z</time>
      </trkpt>
      <trkpt lat="45.39354" lon="5.97922">
        <ele>242.03</ele>
        <time>2019-09-15T07:57:07.000Z</time>
      </trkpt>
      <trkpt lat="45.39383" lon="5.97939">
        <ele>244.43</ele>
        <time>2019-09-15T07:57:12.000Z</time>
      </trkpt>
      <trkpt lat="45.39415" lon="5.97954">
        <ele>245.31</ele>
        <time>2019-09-15T07:57:17.000Z</time>
      </trkpt>
      <trkpt lat="45.39436" lon="5.97963">
        <ele>242.74</ele>
        <time>2019-09-15T07:57:22.000Z</time>
      </trkpt>
      <trkpt lat="45.39465" lon="5.97983">
        <ele>246.42</ele>
        <time>2019-09-15T07:57:27.000Z</time>
      </trkpt>
      <trkpt lat="45.39491" lon="5.97997">
        <ele>246.5</ele>
        <time>2019-09-15T07:57:32.000Z</time>
      </trkpt>
      <trkpt lat="45.39521" lon="5.98008">
        <ele>242.59</ele>
        <time>2019-09-15T07:57:37.000Z</time>
      </trkpt>
      <trkpt lat="45.39548" lon="5.98022">
        <ele>239.88</ele>
        <time>2019-09-15T07:57:42.000Z</time>
      </trkpt>
      <trkpt lat="45.39573" lon="5.98034">
        <ele>237.76</ele>
        <time>2019-09-15T07:57:47.000Z</time>
      </trkpt>
      <trkpt lat="45.396" lon="5.98053">
        <ele>237.32</ele>
        <time>2019-09-15T07:57:52.000Z</time>
      </trkpt>
      <trkpt lat="45.39632" lon="5.9807">
        <ele>237.94</ele>
        <time>2019-09-15T07:57:57.000Z</time>
      </trkpt>
      <trkpt lat="45.39664" lon="5.98085">
        <ele>242.79</ele>
        <time>2019-09-15T07:58:02.000Z</time>
      </trkpt>
      <trkpt lat="45.39698" lon="5.98108">
        <ele>239.21</ele>
        <time>2019-09-15T07:58:07.000Z</time>
      </trkpt>
      <trkpt lat="45.39731" lon="5.98127">
        <ele>238.43</ele>
        <time>2019-09-15T07:58:12.000Z</time>
      </trkpt>
      <trkpt lat="45.39766" lon="5.9814">
        <ele>242.08</ele>
        <time>2019-09-15T07:58:17.000Z</time>
      </trkpt>
      <trkpt lat="45.39795" lon="5.98151">
        <ele>243.07</ele>
        <time>2019-09-15T07:58:22.000Z</time>
      </trkpt>
      <trkpt lat="45.39823" lon="5.98175">
        <ele>240.92</ele>
        <time>2019-09-15T07:58:27.000Z</time>
      </trkpt>
      <trkpt lat="45.39854" lon="5.98189">
        <ele>240.78</ele>
        <time>2019-09-15T07:58:32.000Z</time>
      </trkpt>
      <trkpt lat="45.3988" lon="5.98203">
        <ele>242.28</ele>
        <time>2019-09-15T07:58:37.000Z</time>
      </trkpt>
      <trkpt lat="45.39913" lon="5.98224">
        <ele>241.68</ele>
        <time>2019-09-15T07:58:42.000Z</time>
      </trkpt>
      <trkpt lat="45.39952" lon="5.98242">
        <ele>242.77</ele>
        <time>2019-09-15T07:58:47.000Z</time>
      </trkpt>
      <trkpt lat="45.39975" lon="5.98255">
        <ele>247.81</ele>
        <time>2019-09-15T07:58:52.000Z</time>
      </trkpt>
      <trkpt lat="45.39995" lon="5.98263">
        <ele>250.58</ele>
        <time>2019-09-15T07:58:57.000Z</time>
      </trkpt>
      <trkpt lat="45.40017" lon="5.9828">
        <ele>247.74</ele>
        <time>2019-09-15T07:59:02.000Z</time>
      </trkpt>
      <trkpt lat="45.40042" lon="5.98296">
        <ele>247.48</ele>
        <time>2019-09-15T07:59:07.000Z</time>
      </trkpt>
      <trkpt lat="45.40067" lon="5.98313">
        <ele>248.04</ele>
        <time>2019-09-15T07:59:12.000Z</time>
      </trkpt>
      <trkpt lat="45.40092" lon="5.98334">
        <ele>246.82</ele>
        <time>2019-09-15T07:59:17.000Z</time>
      </trkpt>
      <trkpt lat="45.40112" lon="5.98352">
        <ele>246.1</ele>
        <time>2019-09-15T07:59:22.000Z</time>
      </trkpt>
      <trkpt lat="45.40136" lon="5.98371">
        <ele>246.43</ele>
        <time>2019-09-15T07:59:27.000Z</time>
      </trkpt>
      <trkpt lat="45.40164" lon="5.98389">
        <ele>246.37</ele>
        <time>2019-09-15T07:59:32.000Z</time>
      </trkpt>
      <trkpt lat="45.40195" lon="5.98403">
        <ele>249.3</ele>
        <time>2019-09-15T07:59:37.000Z</time>
      </trkpt>
      <trkpt lat="45.40222" lon="5.98412">
        <ele>249.75</ele>
        <time>2019-09-15T07:59:42.000Z</time>
      </trkpt>
      <trkpt lat="45.40249" lon="5.98421">
        <ele>249.01</ele>
        <time>2019-09-15T07:59:47.000Z</time>
      </trkpt>
      <trkpt lat="45.40274" lon="5.98427">
        <ele>250.85</ele>
        <time>2019-09-15T07:59:52.000Z</time>
      </trkpt>
      <trkpt lat="45.40302" lon="5.98441">
        <ele>249.91</ele>
        <time>2019-09-15T07:59:57.000Z</time>
      </trkpt>
      <trkpt lat="45.40332" lon="5.98457">
        <ele>247.01</ele>
        <time>2019-09-15T08:00:02.000Z</time>
      </trkpt>
      <trkpt lat="45.40365" lon="5.98477">
        <ele>245.9</ele>
        <time>2019-09-15T08:00:07.000Z</time>
      </trkpt>
      <trkpt lat="45.40396" lon="5.98493">
        <ele>247.71</ele>
        <time>2019-09-15T08:00:12.000Z</time>
      </trkpt>
      <trkpt lat="45.40429" lon="5.98509">
        <ele>248.81</ele>
        <time>2019-09-15T08:00:17.000Z</time>
      </trkpt>
      <trkpt lat="45.40458" lon="5.98526">
        <ele>249.21</ele>
        <time>2019-09-15T08:00:22.000Z</time>
      </trkpt>
      <trkpt lat="45.40489" lon="5.98545">
        <ele>248.79</ele>
        <time>2019-09-15T08:00:27.000Z</time>
      </trkpt>
      <trkpt lat="45.40521" lon="5.98565">
        <ele>249.03</ele>
        <time>2019-09-15T08:00:32.000Z</time>
      </trkpt>
      <trkpt lat="45.40546" lon="5.98583">
        <ele>249.32</ele>
        <time>2019-09-15T08:00:37.000Z</time>
      </trkpt>
      <trkpt lat="45.40578" lon="5.98596">
        <ele>249.38</ele>
        <time>2019-09-15T08:00:42.000Z</time>
      </trkpt>
      <trkpt lat="45.40607" lon="5.9861">
        <ele>248.9</ele>
        <time>2019-09-15T08:00:47.000Z</time>
      </trkpt>
      <trkpt lat="45.40639" lon="5.98627">
        <ele>248.52</ele>
        <time>2019-09-15T08:00:52.000Z</time>
      </trkpt>
      <trkpt lat="45.40672" lon="5.98644">
        <ele>249.11</ele>
        <time>2019-09-15T08:00:57.000Z</time>
      </trkpt>
      <trkpt lat="45.40705" lon="5.98656">
        <ele>250.72</ele>
        <time>2019-09-15T08:01:02.000Z</time>
      </trkpt>
      <trkpt lat="45.40731" lon="5.98665">
        <ele>250.64</ele>
        <time>2019-09-15T08:01:07.000Z</time>
      </trkpt>
      <trkpt lat="45.40746" lon="5.98639">
        <ele>252.17</ele>
        <time>2019-09-15T08:01:12.000Z</time>
      </trkpt>
      <trkpt lat="45.40754" lon="5.98611">
        <ele>253.36</ele>
        <time>2019-09-15T08:01:17.000Z</time>
      </trkpt>
      <trkpt lat="45.40763" lon="5.98585">
        <ele>253.38</ele>
        <time>2019-09-15T08:01:22.000Z</time>
      </trkpt>
      <trkpt lat="45.40776" lon="5.98551">
        <ele>251.62</ele>
        <time>2019-09-15T08:01:27.000Z</time>
      </trkpt>
      <trkpt lat="45.40784" lon="5.98513">
        <ele>249.2</ele>
        <time>2019-09-15T08:01:32.000Z</time>
      </trkpt>
      <trkpt lat="45.40794" lon="5.98481">
        <ele>246.65</ele>
        <time>2019-09-15T08:01:37.000Z</time>
      </trkpt>
      <trkpt lat="45.40805" lon="5.98449">
        <ele>249.49</ele>
        <time>2019-09-15T08:01:42.000Z</time>
      </trkpt>
      <trkpt lat="45.40815" lon="5.98412">
        <ele>251.27</ele>
        <time>2019-09-15T08:01:47.000Z</time>
      </trkpt>
      <trkpt lat="45.40828" lon="5.98374">
        <ele>248.74</ele>
        <time>2019-09-15T08:01:52.000Z</time>
      </trkpt>
      <trkpt lat="45.40841" lon="5.98337">
        <ele>247.12</ele>
        <time>2019-09-15T08:01:57.000Z</time>
      </trkpt>
      <trkpt lat="45.4085" lon="5.98303">
        <ele>243.22</ele>
        <time>2019-09-15T08:02:02.000Z</time>
      </trkpt>
      <trkpt lat="45.40859" lon="5.98276">
        <ele>243.86</ele>
        <time>2019-09-15T08:02:07.000Z</time>
      </trkpt>
      <trkpt lat="45.40872" lon="5.98247">
        <ele>245.31</ele>
        <time>2019-09-15T08:02:12.000Z</time>
      </trkpt>
      <trkpt lat="45.40882" lon="5.98224">
        <ele>245.82</ele>
        <time>2019-09-15T08:02:17.000Z</time>
      </trkpt>
      <trkpt lat="45.40891" lon="5.98182">
        <ele>249.41</ele>
        <time>2019-09-15T08:02:22.000Z</time>
      </trkpt>
      <trkpt lat="45.40902" lon="5.98143">
        <ele>247.39</ele>
        <time>2019-09-15T08:02:27.000Z</time>
      </trkpt>
      <trkpt lat="45.40912" lon="5.98106">
        <ele>244.14</ele>
        <time>2019-09-15T08:02:32.000Z</time>
      </trkpt>
      <trkpt lat="45.4092" lon="5.98071">
        <ele>241.69</ele>
        <time>2019-09-15T08:02:37.000Z</time>
      </trkpt>
      <trkpt lat="45.4093" lon="5.98032">
        <ele>241.88</ele>
        <time>2019-09-15T08:02:42.000Z</time>
      </trkpt>
      <trkpt lat="45.40936" lon="5.97996">
        <ele>241.1</ele>
        <time>2019-09-15T08:02:47.000Z</time>
      </trkpt>
      <trkpt lat="45.40942" lon="5.97977">
        <ele>240</ele>
        <time>2019-09-15T08:02:52.000Z</time>
      </trkpt>
      <trkpt lat="45.40956" lon="5.97979">
        <ele>241.17</ele>
        <time>2019-09-15T08:02:57.000Z</time>
      </trkpt>
      <trkpt lat="45.4098" lon="5.97995">
        <ele>244.39</ele>
        <time>2019-09-15T08:03:02.000Z</time>
      </trkpt>
      <trkpt lat="45.41006" lon="5.98">
        <ele>243.22</ele>
        <time>2019-09-15T08:03:07.000Z</time>
      </trkpt>
      <trkpt lat="45.4103" lon="5.98011">
        <ele>242.4</ele>
        <time>2019-09-15T08:03:12.000Z</time>
      </trkpt>
      <trkpt lat="45.4106" lon="5.98032">
        <ele>243.57</ele>
        <time>2019-09-15T08:03:17.000Z</time>
      </trkpt>
      <trkpt lat="45.41092" lon="5.98042">
        <ele>238.74</ele>
        <time>2019-09-15T08:03:22.000Z</time>
      </trkpt>
      <trkpt lat="45.41122" lon="5.98056">
        <ele>241.5</ele>
        <time>2019-09-15T08:03:27.000Z</time>
      </trkpt>
      <trkpt lat="45.41151" lon="5.9807">
        <ele>247.08</ele>
        <time>2019-09-15T08:03:32.000Z</time>
      </trkpt>
      <trkpt lat="45.41179" lon="5.98081">
        <ele>250.91</ele>
        <time>2019-09-15T08:03:37.000Z</time>
      </trkpt>
      <trkpt lat="45.41211" lon="5.98088">
        <ele>250.66</ele>
        <time>2019-09-15T08:03:42.000Z</time>
      </trkpt>
      <trkpt lat="45.41235" lon="5.98093">
        <ele>253.84</ele>
        <time>2019-09-15T08:03:47.000Z</time>
      </trkpt>
      <trkpt lat="45.41263" lon="5.98097">
        <ele>254.56</ele>
        <time>2019-09-15T08:03:52.000Z</time>
      </trkpt>
      <trkpt lat="45.41292" lon="5.98104">
        <ele>253.94</ele>
        <time>2019-09-15T08:03:57.000Z</time>
      </trkpt>
      <trkpt lat="45.41328" lon="5.98108">
        <ele>253.18</ele>
        <time>2019-09-15T08:04:02.000Z</time>
      </trkpt>
      <trkpt lat="45.41362" lon="5.98113">
        <ele>250.12</ele>
        <time>2019-09-15T08:04:07.000Z</time>
      </trkpt>
      <trkpt lat="45.41395" lon="5.98119">
        <ele>247.52</ele>
        <time>2019-09-15T08:04:12.000Z</time>
      </trkpt>
      <trkpt lat="45.41427" lon="5.98126">
        <ele>248.12</ele>
        <time>2019-09-15T08:04:17.000Z</time>
      </trkpt>
      <trkpt lat="45.41459" lon="5.98131">
        <ele>250.78</ele>
        <time>2019-09-15T08:04:22.000Z</time>
      </trkpt>
      <trkpt lat="45.41492" lon="5.98139">
        <ele>251.19</ele>
        <time>2019-09-15T08:04:27.000Z</time>
      </trkpt>
      <trkpt lat="45.41524" lon="5.98146">
        <ele>253.58</ele>
        <time>2019-09-15T08:04:32.000Z</time>
      </trkpt>
      <trkpt lat="45.41553" lon="5.98155">
        <ele>255.42</ele>
        <time>2019-09-15T08:04:37.000Z</time>
      </trkpt>
      <trkpt lat="45.41585" lon="5.98163">
        <ele>256.85</ele>
        <time>2019-09-15T08:04:42.000Z</time>
      </trkpt>
      <trkpt lat="45.41615" lon="5.98172">
        <ele>259.2</ele>
        <time>2019-09-15T08:04:47.000Z</time>
      </trkpt>
      <trkpt lat="45.41646" lon="5.98179">
        <ele>259.97</ele>
        <time>2019-09-15T08:04:52.000Z</time>
      </trkpt>
      <trkpt lat="45.41679" lon="5.98186">
        <ele>257.96</ele>
        <time>2019-09-15T08:04:57.000Z</time>
      </trkpt>
      <trkpt lat="45.41714" lon="5.98192">
        <ele>257.94</ele>
        <time>2019-09-15T08:05:02.000Z</time>
      </trkpt>
      <trkpt lat="45.41745" lon="5.98201">
        <ele>259.57</ele>
        <time>2019-09-15T08:05:07.000Z</time>
      </trkpt>
      <trkpt lat="45.41774" lon="5.98205">
        <ele>256.52</ele>
        <time>2019-09-15T08:05:12.000Z</time>
      </trkpt>
      <trkpt lat="45.41801" lon="5.98208">
        <ele>255.31</ele>
        <time>2019-09-15T08:05:17.000Z</time>
      </trkpt>
      <trkpt lat="45.41827" lon="5.98217">
        <ele>257.2</ele>
        <time>2019-09-15T08:05:22.000Z</time>
      </trkpt>
      <trkpt lat="45.41856" lon="5.98222">
        <ele>256.97</ele>
        <time>2019-09-15T08:05:27.000Z</time>
      </trkpt>
      <trkpt lat="45.41881" lon="5.98227">
        <ele>253.71</ele>
        <time>2019-09-15T08:05:32.000Z</time>
      </trkpt>
      <trkpt lat="45.41908" lon="5.98231">
        <ele>255.98</ele>
        <time>2019-09-15T08:05:37.000Z</time>
      </trkpt>
      <trkpt lat="45.41933" lon="5.98241">
        <ele>258.2</ele>
        <time>2019-09-15T08:05:42.000Z</time>
      </trkpt>
      <trkpt lat="45.41954" lon="5.98242">
        <ele>260.4</ele>
        <time>2019-09-15T08:05:47.000Z</time>
      </trkpt>
      <trkpt lat="45.41975" lon="5.98246">
        <ele>260.39</ele>
        <time>2019-09-15T08:05:52.000Z</time>
      </trkpt>
      <trkpt lat="45.41993" lon="5.9825">
        <ele>259.43</ele>
        <time>2019-09-15T08:05:57.000Z</time>
      </trkpt>
      <trkpt lat="45.42012" lon="5.98252">
        <ele>261.15</ele>
        <time>2019-09-15T08:06:02.000Z</time>
      </trkpt>
      <trkpt lat="45.4203" lon="5.98257">
        <ele>261.11</ele>
        <time>2019-09-15T08:06:07.000Z</time>
      </trkpt>
      <trkpt lat="45.42049" lon="5.98259">
        <ele>260.84</ele>
        <time>2019-09-15T08:06:12.000Z</time>
      </trkpt>
      <trkpt lat="45.42071" lon="5.98252">
        <ele>263.53</ele>
        <time>2019-09-15T08:06:17.000Z</time>
      </trkpt>
      <trkpt lat="45.4209" lon="5.98246">
        <ele>262.99</ele>
        <time>2019-09-15T08:06:22.000Z</time>
      </trkpt>
      <trkpt lat="45.42097" lon="5.98258">
        <ele>260.14</ele>
        <time>2019-09-15T08:06:27.000Z</time>
      </trkpt>
      <trkpt lat="45.42086" lon="5.98279">
        <ele>262.45</ele>
        <time>2019-09-15T08:06:32.000Z</time>
      </trkpt>
      <trkpt lat="45.42083" lon="5.98305">
        <ele>263.07</ele>
        <time>2019-09-15T08:06:37.000Z</time>
      </trkpt>
      <trkpt lat="45.42095" lon="5.98324">
        <ele>267.3</ele>
        <time>2019-09-15T08:06:42.000Z</time>
      </trkpt>
      <trkpt lat="45.42114" lon="5.98326">
        <ele>269.19</ele>
        <time>2019-09-15T08:06:47.000Z</time>
      </trkpt>
      <trkpt lat="45.42117" lon="5.98304">
        <ele>271.61</ele>
        <time>2019-09-15T08:06:52.000Z</time>
      </trkpt>
      <trkpt lat="45.42112" lon="5.98278">
        <ele>271.71</ele>
        <time>2019-09-15T08:06:57.000Z</time>
      </trkpt>
      <trkpt lat="45.42128" lon="5.98261">
        <ele>271.01</ele>
        <time>2019-09-15T08:07:02.000Z</time>
      </trkpt>
      <trkpt lat="45.42151" lon="5.98263">
        <ele>279.88</ele>
        <time>2019-09-15T08:07:07.000Z</time>
      </trkpt>
      <trkpt lat="45.42166" lon="5.98275">
        <ele>281.9</ele>
        <time>2019-09-15T08:07:12.000Z</time>
      </trkpt>
      <trkpt lat="45.42184" lon="5.98292">
        <ele>285.75</ele>
        <time>2019-09-15T08:07:17.000Z</time>
      </trkpt>
      <trkpt lat="45.422" lon="5.98306">
        <ele>290.41</ele>
        <time>2019-09-15T08:07:22.000Z</time>
      </trkpt>
      <trkpt lat="45.42216" lon="5.98315">
        <ele>291.91</ele>
        <time>2019-09-15T08:07:27.000Z</time>
      </trkpt>
      <trkpt lat="45.42238" lon="5.98312">
        <ele>293.9</ele>
        <time>2019-09-15T08:07:32.000Z</time>
      </trkpt>
      <trkpt lat="45.42254" lon="5.98297">
        <ele>295.74</ele>
        <time>2019-09-15T08:07:37.000Z</time>
      </trkpt>
      <trkpt lat="45.42266" lon="5.98277">
        <ele>295.42</ele>
        <time>2019-09-15T08:07:42.000Z</time>
      </trkpt>
      <trkpt lat="45.42279" lon="5.98258">
        <ele>298.23</ele>
        <time>2019-09-15T08:07:47.000Z</time>
      </trkpt>
      <trkpt lat="45.42294" lon="5.98244">
        <ele>299.63</ele>
        <time>2019-09-15T08:07:52.000Z</time>
      </trkpt>
      <trkpt lat="45.42309" lon="5.98224">
        <ele>302.15</ele>
        <time>2019-09-15T08:07:57.000Z</time>
      </trkpt>
      <trkpt lat="45.42325" lon="5.98207">
        <ele>305.37</ele>
        <time>2019-09-15T08:08:02.000Z</time>
      </trkpt>
      <trkpt lat="45.42342" lon="5.98196">
        <ele>303.55</ele>
        <time>2019-09-15T08:08:07.000Z</time>
      </trkpt>
      <trkpt lat="45.42358" lon="5.98183">
        <ele>306.67</ele>
        <time>2019-09-15T08:08:12.000Z</time>
      </trkpt>
      <trkpt lat="45.42384" lon="5.98178">
        <ele>304.72</ele>
        <time>2019-09-15T08:08:17.000Z</time>
      </trkpt>
      <trkpt lat="45.42405" lon="5.98171">
        <ele>308.7</ele>
        <time>2019-09-15T08:08:22.000Z</time>
      </trkpt>
      <trkpt lat="45.4243" lon="5.98166">
        <ele>309.12</ele>
        <time>2019-09-15T08:08:27.000Z</time>
      </trkpt>
      <trkpt lat="45.42457" lon="5.98166">
        <ele>310.95</ele>
        <time>2019-09-15T08:08:32.000Z</time>
      </trkpt>
      <trkpt lat="45.42483" lon="5.98166">
        <ele>312.63</ele>
        <time>2019-09-15T08:08:37.000Z</time>
      </trkpt>
      <trkpt lat="45.42508" lon="5.98164">
        <ele>313.23</ele>
        <time>2019-09-15T08:08:42.000Z</time>
      </trkpt>
      <trkpt lat="45.42535" lon="5.98165">
        <ele>313.54</ele>
        <time>2019-09-15T08:08:47.000Z</time>
      </trkpt>
      <trkpt lat="45.42562" lon="5.98162">
        <ele>314.53</ele>
        <time>2019-09-15T08:08:52.000Z</time>
      </trkpt>
      <trkpt lat="45.42587" lon="5.98162">
        <ele>312.82</ele>
        <time>2019-09-15T08:08:57.000Z</time>
      </trkpt>
      <trkpt lat="45.42613" lon="5.98162">
        <ele>313.86</ele>
        <time>2019-09-15T08:09:02.000Z</time>
      </trkpt>
      <trkpt lat="45.42643" lon="5.98162">
        <ele>316.64</ele>
        <time>2019-09-15T08:09:07.000Z</time>
      </trkpt>
      <trkpt lat="45.42672" lon="5.98161">
        <ele>318.34</ele>
        <time>2019-09-15T08:09:12.000Z</time>
      </trkpt>
      <trkpt lat="45.42703" lon="5.98161">
        <ele>316.67</ele>
        <time>2019-09-15T08:09:17.000Z</time>
      </trkpt>
      <trkpt lat="45.42736" lon="5.9816">
        <ele>321.1</ele>
        <time>2019-09-15T08:09:22.000Z</time>
      </trkpt>
      <trkpt lat="45.42768" lon="5.98159">
        <ele>321.71</ele>
        <time>2019-09-15T08:09:27.000Z</time>
      </trkpt>
      <trkpt lat="45.42805" lon="5.9816">
        <ele>319.51</ele>
        <time>2019-09-15T08:09:32.000Z</time>
      </trkpt>
      <trkpt lat="45.42835" lon="5.98154">
        <ele>317.24</ele>
        <time>2019-09-15T08:09:37.000Z</time>
      </trkpt>
      <trkpt lat="45.42866" lon="5.98154">
        <ele>319.41</ele>
        <time>2019-09-15T08:09:42.000Z</time>
      </trkpt>
      <trkpt lat="45.42897" lon="5.98153">
        <ele>319.34</ele>
        <time>2019-09-15T08:09:47.000Z</time>
      </trkpt>
      <trkpt lat="45.42925" lon="5.98153">
        <ele>320.18</ele>
        <time>2019-09-15T08:09:52.000Z</time>
      </trkpt>
      <trkpt lat="45.42954" lon="5.98152">
        <ele>323.08</ele>
        <time>2019-09-15T08:09:57.000Z</time>
      </trkpt>
      <trkpt lat="45.42983" lon="5.98152">
        <ele>321.72</ele>
        <time>2019-09-15T08:10:02.000Z</time>
      </trkpt>
      <trkpt lat="45.43014" lon="5.98154">
        <ele>323.68</ele>
        <time>2019-09-15T08:10:07.000Z</time>
      </trkpt>
      <trkpt lat="45.4304" lon="5.98151">
        <ele>325.24</ele>
        <time>2019-09-15T08:10:12.000Z</time>
      </trkpt>
      <trkpt lat="45.43066" lon="5.98151">
        <ele>325.09</ele>
        <time>2019-09-15T08:10:17.000Z</time>
      </trkpt>
      <trkpt lat="45.43099" lon="5.98149">
        <ele>327.24</ele>
        <time>2019-09-15T08:10:22.000Z</time>
      </trkpt>
      <trkpt lat="45.43126" lon="5.98149">
        <ele>324.61</ele>
        <time>2019-09-15T08:10:27.000Z</time>
      </trkpt>
      <trkpt lat="45.43156" lon="5.98157">
        <ele>326.68</ele>
        <time>2019-09-15T08:10:32.000Z</time>
      </trkpt>
      <trkpt lat="45.43182" lon="5.98168">
        <ele>327.2</ele>
        <time>2019-09-15T08:10:37.000Z</time>
      </trkpt>
      <trkpt lat="45.43212" lon="5.98177">
        <ele>331.02</ele>
        <time>2019-09-15T08:10:42.000Z</time>
      </trkpt>
      <trkpt lat="45.43239" lon="5.98187">
        <ele>331.46</ele>
        <time>2019-09-15T08:10:47.000Z</time>
      </trkpt>
      <trkpt lat="45.43266" lon="5.98196">
        <ele>330.36</ele>
        <time>2019-09-15T08:10:52.000Z</time>
      </trkpt>
      <trkpt lat="45.43293" lon="5.98204">
        <ele>332.07</ele>
        <time>2019-09-15T08:10:57.000Z</time>
      </trkpt>
      <trkpt lat="45.43321" lon="5.98214">
        <ele>332.23</ele>
        <time>2019-09-15T08:11:02.000Z</time>
      </trkpt>
      <trkpt lat="45.43349" lon="5.98233">
        <ele>331.13</ele>
        <time>2019-09-15T08:11:07.000Z</time>
      </trkpt>
      <trkpt lat="45.43378" lon="5.98241">
        <ele>332.97</ele>
        <time>2019-09-15T08:11:12.000Z</time>
      </trkpt>
      <trkpt lat="45.4341" lon="5.98247">
        <ele>331.52</ele>
        <time>2019-09-15T08:11:17.000Z</time>
      </trkpt>
      <trkpt lat="45.43438" lon="5.98259">
        <ele>335.51</ele>
        <time>2019-09-15T08:11:22.000Z</time>
      </trkpt>
      <trkpt lat="45.43467" lon="5.98268">
        <ele>336.53</ele>
        <time>2019-09-15T08:11:27.000Z</time>
      </trkpt>
      <trkpt lat="45.43497" lon="5.98278">
        <ele>336.58</ele>
        <time>2019-09-15T08:11:32.000Z</time>
      </trkpt>
      <trkpt lat="45.43527" lon="5.98288">
        <ele>337.33</ele>
        <time>2019-09-15T08:11:37.000Z</time>
      </trkpt>
      <trkpt lat="45.43552" lon="5.98299">
        <ele>336.58</ele>
        <time>2019-09-15T08:11:42.000Z</time>
      </trkpt>
      <trkpt lat="45.4358" lon="5.98307">
        <ele>337.76</ele>
        <time>2019-09-15T08:11:47.000Z</time>
      </trkpt>
      <trkpt lat="45.43609" lon="5.98316">
        <ele>338.72</ele>
        <time>2019-09-15T08:11:52.000Z</time>
      </trkpt>
      <trkpt lat="45.43637" lon="5.9833">
        <ele>337.49</ele>
        <time>2019-09-15T08:11:57.000Z</time>
      </trkpt>
      <trkpt lat="45.43667" lon="5.9834">
        <ele>338.39</ele>
        <time>2019-09-15T08:12:02.000Z</time>
      </trkpt>
      <trkpt lat="45.43698" lon="5.98352">
        <ele>335.67</ele>
        <time>2019-09-15T08:12:07.000Z</time>
      </trkpt>
      <trkpt lat="45.43727" lon="5.98365">
        <ele>336.69</ele>
        <time>2019-09-15T08:12:12.000Z</time>
      </trkpt>
      <trkpt lat="45.43762" lon="5.98376">
        <ele>337.62</ele>
        <time>2019-09-15T08:12:17.000Z</time>
      </trkpt>
      <trkpt lat="45.438" lon="5.98387">
        <ele>344.33</ele>
        <time>2019-09-15T08:12:22.000Z</time>
      </trkpt>
      <trkpt lat="45.43834" lon="5.984">
        <ele>343.3</ele>
        <time>2019-09-15T08:12:27.000Z</time>
      </trkpt>
      <trkpt lat="45.43871" lon="5.98412">
        <ele>341.31</ele>
        <time>2019-09-15T08:12:32.000Z</time>
      </trkpt>
      <trkpt lat="45.43906" lon="5.98426">
        <ele>342.63</ele>
        <time>2019-09-15T08:12:37.000Z</time>
      </trkpt>
      <trkpt lat="45.43943" lon="5.98438">
        <ele>343.47</ele>
        <time>2019-09-15T08:12:42.000Z</time>
      </trkpt>
      <trkpt lat="45.43982" lon="5.98454">
        <ele>341.75</ele>
        <time>2019-09-15T08:12:47.000Z</time>
      </trkpt>
      <trkpt lat="45.44019" lon="5.98469">
        <ele>341.02</ele>
        <time>2019-09-15T08:12:52.000Z</time>
      </trkpt>
      <trkpt lat="45.44059" lon="5.98481">
        <ele>337.83</ele>
        <time>2019-09-15T08:12:57.000Z</time>
      </trkpt>
      <trkpt lat="45.44094" lon="5.9849">
        <ele>336.1</ele>
        <time>2019-09-15T08:13:02.000Z</time>
      </trkpt>
      <trkpt lat="45.44125" lon="5.98498">
        <ele>336.03</ele>
        <time>2019-09-15T08:13:07.000Z</time>
      </trkpt>
      <trkpt lat="45.44158" lon="5.98507">
        <ele>335.86</ele>
        <time>2019-09-15T08:13:12.000Z</time>
      </trkpt>
      <trkpt lat="45.44195" lon="5.98523">
        <ele>337.5</ele>
        <time>2019-09-15T08:13:17.000Z</time>
      </trkpt>
      <trkpt lat="45.44231" lon="5.98537">
        <ele>337.96</ele>
        <time>2019-09-15T08:13:22.000Z</time>
      </trkpt>
      <trkpt lat="45.44266" lon="5.98549">
        <ele>342.04</ele>
        <time>2019-09-15T08:13:27.000Z</time>
      </trkpt>
      <trkpt lat="45.44301" lon="5.98564">
        <ele>342.13</ele>
        <time>2019-09-15T08:13:32.000Z</time>
      </trkpt>
      <trkpt lat="45.44332" lon="5.98573">
        <ele>340.05</ele>
        <time>2019-09-15T08:13:37.000Z</time>
      </trkpt>
      <trkpt lat="45.44367" lon="5.98587">
        <ele>339.04</ele>
        <time>2019-09-15T08:13:42.000Z</time>
      </trkpt>
      <trkpt lat="45.44397" lon="5.98613">
        <ele>335.99</ele>
        <time>2019-09-15T08:13:47.000Z</time>
      </trkpt>
      <trkpt lat="45.44426" lon="5.98645">
        <ele>333.64</ele>
        <time>2019-09-15T08:13:52.000Z</time>
      </trkpt>
      <trkpt lat="45.44451" lon="5.98675">
        <ele>333.15</ele>
        <time>2019-09-15T08:13:57.000Z</time>
      </trkpt>
      <trkpt lat="45.44476" lon="5.98705">
        <ele>331.59</ele>
        <time>2019-09-15T08:14:02.000Z</time>
      </trkpt>
      <trkpt lat="45.44503" lon="5.98734">
        <ele>332.42</ele>
        <time>2019-09-15T08:14:07.000Z</time>
      </trkpt>
      <trkpt lat="45.44531" lon="5.98761">
        <ele>331.36</ele>
        <time>2019-09-15T08:14:12.000Z</time>
      </trkpt>
      <trkpt lat="45.44558" lon="5.98796">
        <ele>331.59</ele>
        <time>2019-09-15T08:14:17.000Z</time>
      </trkpt>
      <trkpt lat="45.44583" lon="5.98822">
        <ele>330.19</ele>
        <time>2019-09-15T08:14:22.000Z</time>
      </trkpt>
      <trkpt lat="45.44608" lon="5.98853">
        <ele>332.09</ele>
        <time>2019-09-15T08:14:27.000Z</time>
      </trkpt>
      <trkpt lat="45.44639" lon="5.98883">
        <ele>334.82</ele>
        <time>2019-09-15T08:14:32.000Z</time>
      </trkpt>
      <trkpt lat="45.44668" lon="5.98915">
        <ele>335.14</ele>
        <time>2019-09-15T08:14:37.000Z</time>
      </trkpt>
      <trkpt lat="45.44693" lon="5.98948">
        <ele>335.73</ele>
        <time>2019-09-15T08:14:42.000Z</time>
      </trkpt>
      <trkpt lat="45.44723" lon="5.98976">
        <ele>337.6</ele>
        <time>2019-09-15T08:14:47.000Z</time>
      </trkpt>
      <trkpt lat="45.44744" lon="5.99004">
        <ele>336.49</ele>
        <time>2019-09-15T08:14:52.000Z</time>
      </trkpt>
      <trkpt lat="45.44768" lon="5.99029">
        <ele>336.84</ele>
        <time>2019-09-15T08:14:57.000Z</time>
      </trkpt>
      <trkpt lat="45.44797" lon="5.99062">
        <ele>335.41</ele>
        <time>2019-09-15T08:15:02.000Z</time>
      </trkpt>
      <trkpt lat="45.44826" lon="5.99091">
        <ele>338.75</ele>
        <time>2019-09-15T08:15:07.000Z</time>
      </trkpt>
      <trkpt lat="45.44854" lon="5.99121">
        <ele>336.91</ele>
        <time>2019-09-15T08:15:12.000Z</time>
      </trkpt>
      <trkpt lat="45.44882" lon="5.99153">
        <ele>336.74</ele>
        <time>2019-09-15T08:15:17.000Z</time>
      </trkpt>
      <trkpt lat="45.44905" lon="5.99183">
        <ele>336.23</ele>
        <time>2019-09-15T08:15:22.000Z</time>
      </trkpt>
      <trkpt lat="45.4493" lon="5.99211">
        <ele>335.87</ele>
        <time>2019-09-15T08:15:27.000Z</time>
      </trkpt>
      <trkpt lat="45.44959" lon="5.99231">
        <ele>334.79</ele>
        <time>2019-09-15T08:15:32.000Z</time>
      </trkpt>
      <trkpt lat="45.44988" lon="5.99246">
        <ele>336.17</ele>
        <time>2019-09-15T08:15:37.000Z</time>
      </trkpt>
      <trkpt lat="45.45023" lon="5.99253">
        <ele>338.25</ele>
        <time>2019-09-15T08:15:42.000Z</time>
      </trkpt>
      <trkpt lat="45.45057" lon="5.99261">
        <ele>333.54</ele>
        <time>2019-09-15T08:15:47.000Z</time>
      </trkpt>
      <trkpt lat="45.4509" lon="5.99252">
        <ele>332.39</ele>
        <time>2019-09-15T08:15:52.000Z</time>
      </trkpt>
      <trkpt lat="45.45131" lon="5.99242">
        <ele>331.16</ele>
        <time>2019-09-15T08:15:57.000Z</time>
      </trkpt>
      <trkpt lat="45.45169" lon="5.9923">
        <ele>328.34</ele>
        <time>2019-09-15T08:16:02.000Z</time>
      </trkpt>
      <trkpt lat="45.4521" lon="5.99224">
        <ele>330.88</ele>
        <time>2019-09-15T08:16:07.000Z</time>
      </trkpt>
      <trkpt lat="45.45246" lon="5.99215">
        <ele>331.44</ele>
        <time>2019-09-15T08:16:12.000Z</time>
      </trkpt>
      <trkpt lat="45.45283" lon="5.99208">
        <ele>333.39</ele>
        <time>2019-09-15T08:16:17.000Z</time>
      </trkpt>
      <trkpt lat="45.4532" lon="5.99203">
        <ele>335.22</ele>
        <time>2019-09-15T08:16:22.000Z</time>
      </trkpt>
      <trkpt lat="45.45356" lon="5.99196">
        <ele>334.85</ele>
        <time>2019-09-15T08:16:27.000Z</time>
      </trkpt>
      <trkpt lat="45.4539" lon="5.99186">
        <ele>334</ele>
        <time>2019-09-15T08:16:32.000Z</time>
      </trkpt>
      <trkpt lat="45.45422" lon="5.99184">
        <ele>330.17</ele>
        <time>2019-09-15T08:16:37.000Z</time>
      </trkpt>
      <trkpt lat="45.45453" lon="5.99176">
        <ele>327.72</ele>
        <time>2019-09-15T08:16:42.000Z</time>
      </trkpt>
      <trkpt lat="45.45488" lon="5.99167">
        <ele>326.83</ele>
        <time>2019-09-15T08:16:47.000Z</time>
      </trkpt>
      <trkpt lat="45.45529" lon="5.99157">
        <ele>327.04</ele>
        <time>2019-09-15T08:16:52.000Z</time>
      </trkpt>
      <trkpt lat="45.45574" lon="5.99149">
        <ele>323.51</ele>
        <time>2019-09-15T08:16:57.000Z</time>
      </trkpt>
      <trkpt lat="45.45621" lon="5.99139">
        <ele>321.89</ele>
        <time>2019-09-15T08:17:02.000Z</time>
      </trkpt>
      <trkpt lat="45.45665" lon="5.99128">
        <ele>322.94</ele>
        <time>2019-09-15T08:17:07.000Z</time>
      </trkpt>
      <trkpt lat="45.45705" lon="5.99117">
        <ele>319.32</ele>
        <time>2019-09-15T08:17:12.000Z</time>
      </trkpt>
      <trkpt lat="45.45751" lon="5.99107">
        <ele>311.59</ele>
        <time>2019-09-15T08:17:17.000Z</time>
      </trkpt>
      <trkpt lat="45.45793" lon="5.99095">
        <ele>308.42</ele>
        <time>2019-09-15T08:17:22.000Z</time>
      </trkpt>
      <trkpt lat="45.45848" lon="5.99086">
        <ele>307.22</ele>
        <time>2019-09-15T08:17:27.000Z</time>
      </trkpt>
      <trkpt lat="45.459" lon="5.99076">
        <ele>301.68</ele>
        <time>2019-09-15T08:17:32.000Z</time>
      </trkpt>
      <trkpt lat="45.45949" lon="5.99065">
        <ele>300.88</ele>
        <time>2019-09-15T08:17:37.000Z</time>
      </trkpt>
      <trkpt lat="45.45997" lon="5.99057">
        <ele>296.78</ele>
        <time>2019-09-15T08:17:42.000Z</time>
      </trkpt>
      <trkpt lat="45.46044" lon="5.99048">
        <ele>297.4</ele>
        <time>2019-09-15T08:17:47.000Z</time>
      </trkpt>
      <trkpt lat="45.46086" lon="5.99033">
        <ele>295.35</ele>
        <time>2019-09-15T08:17:52.000Z</time>
      </trkpt>
      <trkpt lat="45.4612" lon="5.99021">
        <ele>294.9</ele>
        <time>2019-09-15T08:17:57.000Z</time>
      </trkpt>
      <trkpt lat="45.46143" lon="5.9902">
        <ele>293.89</ele>
        <time>2019-09-15T08:18:02.000Z</time>
      </trkpt>
      <trkpt lat="45.46161" lon="5.99004">
        <ele>289.04</ele>
        <time>2019-09-15T08:18:07.000Z</time>
      </trkpt>
      <trkpt lat="45.46177" lon="5.98983">
        <ele>285.34</ele>
        <time>2019-09-15T08:18:12.000Z</time>
      </trkpt>
      <trkpt lat="45.46198" lon="5.98957">
        <ele>285.31</ele>
        <time>2019-09-15T08:18:17.000Z</time>
      </trkpt>
      <trkpt lat="45.4622" lon="5.98968">
        <ele>285.64</ele>
        <time>2019-09-15T08:18:22.000Z</time>
      </trkpt>
      <trkpt lat="45.46252" lon="5.98989">
        <ele>289.08</ele>
        <time>2019-09-15T08:18:27.000Z</time>
      </trkpt>
      <trkpt lat="45.46279" lon="5.9902">
        <ele>286.63</ele>
        <time>2019-09-15T08:18:32.000Z</time>
      </trkpt>
      <trkpt lat="45.46301" lon="5.99035">
        <ele>288.48</ele>
        <time>2019-09-15T08:18:37.000Z</time>
      </trkpt>
      <trkpt lat="45.46326" lon="5.99035">
        <ele>290.01</ele>
        <time>2019-09-15T08:18:42.000Z</time>
      </trkpt>
      <trkpt lat="45.4635" lon="5.99038">
        <ele>291.5</ele>
        <time>2019-09-15T08:18:47.000Z</time>
      </trkpt>
      <trkpt lat="45.46377" lon="5.99034">
        <ele>291.82</ele>
        <time>2019-09-15T08:18:52.000Z</time>
      </trkpt>
      <trkpt lat="45.46401" lon="5.99026">
        <ele>290.1</ele>
        <time>2019-09-15T08:18:57.000Z</time>
      </trkpt>
      <trkpt lat="45.4643" lon="5.99023">
        <ele>289</ele>
        <time>2019-09-15T08:19:02.000Z</time>
      </trkpt>
      <trkpt lat="45.46463" lon="5.99019">
        <ele>289.42</ele>
        <time>2019-09-15T08:19:07.000Z</time>
      </trkpt>
      <trkpt lat="45.46495" lon="5.99012">
        <ele>288.56</ele>
        <time>2019-09-15T08:19:12.000Z</time>
      </trkpt>
      <trkpt lat="45.46527" lon="5.99007">
        <ele>287.1</ele>
        <time>2019-09-15T08:19:17.000Z</time>
      </trkpt>
      <trkpt lat="45.46558" lon="5.99001">
        <ele>288.37</ele>
        <time>2019-09-15T08:19:22.000Z</time>
      </trkpt>
      <trkpt lat="45.46591" lon="5.98999">
        <ele>286.24</ele>
        <time>2019-09-15T08:19:27.000Z</time>
      </trkpt>
      <trkpt lat="45.46621" lon="5.98988">
        <ele>283.61</ele>
        <time>2019-09-15T08:19:32.000Z</time>
      </trkpt>
      <trkpt lat="45.46656" lon="5.98981">
        <ele>283.34</ele>
        <time>2019-09-15T08:19:37.000Z</time>
      </trkpt>
      <trkpt lat="45.46691" lon="5.98977">
        <ele>281.25</ele>
        <time>2019-09-15T08:19:42.000Z</time>
      </trkpt>
      <trkpt lat="45.46732" lon="5.9897">
        <ele>280.84</ele>
        <time>2019-09-15T08:19:47.000Z</time>
      </trkpt>
      <trkpt lat="45.46769" lon="5.98964">
        <ele>278.35</ele>
        <time>2019-09-15T08:19:52.000Z</time>
      </trkpt>
      <trkpt lat="45.46806" lon="5.98954">
        <ele>279.82</ele>
        <time>2019-09-15T08:19:57.000Z</time>
      </trkpt>
      <trkpt lat="45.46828" lon="5.98936">
        <ele>276.58</ele>
        <time>2019-09-15T08:20:02.000Z</time>
      </trkpt>
      <trkpt lat="45.46848" lon="5.98914">
        <ele>274</ele>
        <time>2019-09-15T08:20:07.000Z</time>
      </trkpt>
      <trkpt lat="45.46877" lon="5.98894">
        <ele>270.86</ele>
        <time>2019-09-15T08:20:12.000Z</time>
      </trkpt>
      <trkpt lat="45.46908" lon="5.98868">
        <ele>268.39</ele>
        <time>2019-09-15T08:20:17.000Z</time>
      </trkpt>
      <trkpt lat="45.46929" lon="5.98831">
        <ele>266.21</ele>
        <time>2019-09-15T08:20:22.000Z</time>
      </trkpt>
      <trkpt lat="45.46948" lon="5.98785">
        <ele>267.25</ele>
        <time>2019-09-15T08:20:27.000Z</time>
      </trkpt>
      <trkpt lat="45.46972" lon="5.98751">
        <ele>266.99</ele>
        <time>2019-09-15T08:20:32.000Z</time>
      </trkpt>
      <trkpt lat="45.46996" lon="5.98715">
        <ele>267.02</ele>
        <time>2019-09-15T08:20:37.000Z</time>
      </trkpt>
      <trkpt lat="45.47026" lon="5.98697">
        <ele>265.13</ele>
        <time>2019-09-15T08:20:42.000Z</time>
      </trkpt>
      <trkpt lat="45.47057" lon="5.98682">
        <ele>262.58</ele>
        <time>2019-09-15T08:20:47.000Z</time>
      </trkpt>
      <trkpt lat="45.4708" lon="5.9867">
        <ele>264.13</ele>
        <time>2019-09-15T08:20:52.000Z</time>
      </trkpt>
      <trkpt lat="45.47106" lon="5.98659">
        <ele>265.75</ele>
        <time>2019-09-15T08:20:57.000Z</time>
      </trkpt>
      <trkpt lat="45.4713" lon="5.98649">
        <ele>266.58</ele>
        <time>2019-09-15T08:21:02.000Z</time>
      </trkpt>
      <trkpt lat="45.47152" lon="5.98646">
        <ele>267.2</ele>
        <time>2019-09-15T08:21:07.000Z</time>
      </trkpt>
      <trkpt lat="45.47177" lon="5.98646">
        <ele>264.89</ele>
        <time>2019-09-15T08:21:12.000Z</time>
      </trkpt>
      <trkpt lat="45.47202" lon="5.98639">
        <ele>266.08</ele>
        <time>2019-09-15T08:21:17.000Z</time>
      </trkpt>
      <trkpt lat="45.47226" lon="5.98625">
        <ele>267.29</ele>
        <time>2019-09-15T08:21:22.000Z</time>
      </trkpt>
      <trkpt lat="45.47251" lon="5.98598">
        <ele>269.35</ele>
        <time>2019-09-15T08:21:27.000Z</time>
      </trkpt>
      <trkpt lat="45.47273" lon="5.98575">
        <ele>269.93</ele>
        <time>2019-09-15T08:21:32.000Z</time>
      </trkpt>
      <trkpt lat="45.47296" lon="5.9855">
        <ele>268.11</ele>
        <time>2019-09-15T08:21:37.000Z</time>
      </trkpt>
      <trkpt lat="45.47319" lon="5.98524">
        <ele>268.13</ele>
        <time>2019-09-15T08:21:42.000Z</time>
      </trkpt>
      <trkpt lat="45.47341" lon="5.98499">
        <ele>264.99</ele>
        <time>2019-09-15T08:21:47.000Z</time>
      </trkpt>
      <trkpt lat="45.47366" lon="5.98475">
        <ele>265.68</ele>
        <time>2019-09-15T08:21:52.000Z</time>
      </trkpt>
      <trkpt lat="45.47388" lon="5.98454">
        <ele>266.52</ele>
        <time>2019-09-15T08:21:57.000Z</time>
      </trkpt>
      <trkpt lat="45.47411" lon="5.98433">
        <ele>268.44</ele>
        <time>2019-09-15T08:22:02.000Z</time>
      </trkpt>
      <trkpt lat="45.47433" lon="5.98409">
        <ele>264.99</ele>
        <time>2019-09-15T08:22:07.000Z</time>
      </trkpt>
      <trkpt lat="45.47455" lon="5.98388">
        <ele>265.42</ele>
        <time>2019-09-15T08:22:12.000Z</time>
      </trkpt>
      <trkpt lat="45.47476" lon="5.98359">
        <ele>268.85</ele>
        <time>2019-09-15T08:22:17.000Z</time>
      </trkpt>
      <trkpt lat="45.47485" lon="5.98327">
        <ele>271.2</ele>
        <time>2019-09-15T08:22:22.000Z</time>
      </trkpt>
      <trkpt lat="45.47486" lon="5.98289">
        <ele>270.24</ele>
        <time>2019-09-15T08:22:27.000Z</time>
      </trkpt>
      <trkpt lat="45.475" lon="5.98258">
        <ele>269.29</ele>
        <time>2019-09-15T08:22:32.000Z</time>
      </trkpt>
      <trkpt lat="45.47522" lon="5.98245">
        <ele>272.07</ele>
        <time>2019-09-15T08:22:37.000Z</time>
      </trkpt>
      <trkpt lat="45.47545" lon="5.98229">
        <ele>274.35</ele>
        <time>2019-09-15T08:22:42.000Z</time>
      </trkpt>
      <trkpt lat="45.47569" lon="5.9821">
        <ele>274.23</ele>
        <time>2019-09-15T08:22:47.000Z</time>
      </trkpt>
      <trkpt lat="45.47592" lon="5.98191">
        <ele>273.98</ele>
        <time>2019-09-15T08:22:52.000Z</time>
      </trkpt>
      <trkpt lat="45.47625" lon="5.98179">
        <ele>271.73</ele>
        <time>2019-09-15T08:22:57.000Z</time>
      </trkpt>
      <trkpt lat="45.47657" lon="5.98167">
        <ele>270.31</ele>
        <time>2019-09-15T08:23:02.000Z</time>
      </trkpt>
      <trkpt lat="45.47688" lon="5.98157">
        <ele>267.75</ele>
        <time>2019-09-15T08:23:07.000Z</time>
      </trkpt>
      <trkpt lat="45.47723" lon="5.98146">
        <ele>266.82</ele>
        <time>2019-09-15T08:23:12.000Z</time>
      </trkpt>
      <trkpt lat="45.47763" lon="5.98146">
        <ele>263.55</ele>
        <time>2019-09-15T08:23:17.000Z</time>
      </trkpt>
      <trkpt lat="45.478" lon="5.98153">
        <ele>265.19</ele>
        <time>2019-09-15T08:23:22.000Z</time>
      </trkpt>
      <trkpt lat="45.47837" lon="5.98157">
        <ele>266.14</ele>
        <time>2019-09-15T08:23:27.000Z</time>
      </trkpt>
      <trkpt lat="45.47871" lon="5.98163">
        <ele>268.4</ele>
        <time>2019-09-15T08:23:32.000Z</time>
      </trkpt>
      <trkpt lat="45.47902" lon="5.98173">
        <ele>266.19</ele>
        <time>2019-09-15T08:23:37.000Z</time>
      </trkpt>
      <trkpt lat="45.47933" lon="5.9819">
        <ele>264.87</ele>
        <time>2019-09-15T08:23:42.000Z</time>
      </trkpt>
      <trkpt lat="45.47965" lon="5.98196">
        <ele>262.5</ele>
        <time>2019-09-15T08:23:47.000Z</time>
      </trkpt>
      <trkpt lat="45.47996" lon="5.98194">
        <ele>262.12</ele>
        <time>2019-09-15T08:23:52.000Z</time>
      </trkpt>
      <trkpt lat="45.4803" lon="5.98185">
        <ele>259.91</ele>
        <time>2019-09-15T08:23:57.000Z</time>
      </trkpt>
      <trkpt lat="45.48062" lon="5.98181">
        <ele>261.46</ele>
        <time>2019-09-15T08:24:02.000Z</time>
      </trkpt>
      <trkpt lat="45.48094" lon="5.98183">
        <ele>262.72</ele>
        <time>2019-09-15T08:24:07.000Z</time>
      </trkpt>
      <trkpt lat="45.48123" lon="5.98193">
        <ele>265.71</ele>
        <time>2019-09-15T08:24:12.000Z</time>
      </trkpt>
      <trkpt lat="45.48151" lon="5.98217">
        <ele>262.64</ele>
        <time>2019-09-15T08:24:17.000Z</time>
      </trkpt>
      <trkpt lat="45.48179" lon="5.98241">
        <ele>264.28</ele>
        <time>2019-09-15T08:24:22.000Z</time>
      </trkpt>
      <trkpt lat="45.48207" lon="5.98257">
        <ele>262.44</ele>
        <time>2019-09-15T08:24:27.000Z</time>
      </trkpt>
      <trkpt lat="45.48236" lon="5.98271">
        <ele>258.76</ele>
        <time>2019-09-15T08:24:32.000Z</time>
      </trkpt>
      <trkpt lat="45.48268" lon="5.98275">
        <ele>258.74</ele>
        <time>2019-09-15T08:24:37.000Z</time>
      </trkpt>
      <trkpt lat="45.48298" lon="5.98272">
        <ele>258.83</ele>
        <time>2019-09-15T08:24:42.000Z</time>
      </trkpt>
      <trkpt lat="45.48331" lon="5.98272">
        <ele>262.79</ele>
        <time>2019-09-15T08:24:47.000Z</time>
      </trkpt>
      <trkpt lat="45.48359" lon="5.98264">
        <ele>262.5</ele>
        <time>2019-09-15T08:24:52.000Z</time>
      </trkpt>
      <trkpt lat="45.48387" lon="5.98264">
        <ele>263.47</ele>
        <time>2019-09-15T08:24:57.000Z</time>
      </trkpt>
      <trkpt lat="45.48411" lon="5.9826">
        <ele>266.12</ele>
        <time>2019-09-15T08:25:02.000Z</time>
      </trkpt>
      <trkpt lat="45.48436" lon="5.98255">
        <ele>266.86</ele>
        <time>2019-09-15T08:25:07.000Z</time>
      </trkpt>
      <trkpt lat="45.48464" lon="5.98247">
        <ele>268.57</ele>
        <time>2019-09-15T08:25:12.000Z</time>
      </trkpt>
      <trkpt lat="45.4849" lon="5.98238">
        <ele>264.65</ele>
        <time>2019-09-15T08:25:17.000Z</time>
      </trkpt>
      <trkpt lat="45.48516" lon="5.98244">
        <ele>267.06</ele>
        <time>2019-09-15T08:25:22.000Z</time>
      </trkpt>
      <trkpt lat="45.4853" lon="5.98266">
        <ele>268.66</ele>
        <time>2019-09-15T08:25:27.000Z</time>
      </trkpt>
      <trkpt lat="45.48552" lon="5.98286">
        <ele>270.76</ele>
        <time>2019-09-15T08:25:32.000Z</time>
      </trkpt>
      <trkpt lat="45.48576" lon="5.98321">
        <ele>270.53</ele>
        <time>2019-09-15T08:25:37.000Z</time>
      </trkpt>
      <trkpt lat="45.48605" lon="5.98336">
        <ele>276.62</ele>
        <time>2019-09-15T08:25:42.000Z</time>
      </trkpt>
      <trkpt lat="45.48629" lon="5.9834">
        <ele>278.94</ele>
        <time>2019-09-15T08:25:47.000Z</time>
      </trkpt>
      <trkpt lat="45.4865" lon="5.98356">
        <ele>279.03</ele>
        <time>2019-09-15T08:25:52.000Z</time>
      </trkpt>
      <trkpt lat="45.48672" lon="5.98379">
        <ele>279.68</ele>
        <time>2019-09-15T08:25:57.000Z</time>
      </trkpt>
      <trkpt lat="45.48695" lon="5.98408">
        <ele>283.43</ele>
        <time>2019-09-15T08:26:02.000Z</time>
      </trkpt>
      <trkpt lat="45.48711" lon="5.98434">
        <ele>285.21</ele>
        <time>2019-09-15T08:26:07.000Z</time>
      </trkpt>
      <trkpt lat="45.48731" lon="5.98447">
        <ele>285.6</ele>
        <time>2019-09-15T08:26:12.000Z</time>
      </trkpt>
      <trkpt lat="45.48757" lon="5.98458">
        <ele>284.37</ele>
        <time>2019-09-15T08:26:17.000Z</time>
      </trkpt>
      <trkpt lat="45.48785" lon="5.98465">
        <ele>286.58</ele>
        <time>2019-09-15T08:26:22.000Z</time>
      </trkpt>
      <trkpt lat="45.48813" lon="5.98461">
        <ele>286.73</ele>
        <time>2019-09-15T08:26:27.000Z</time>
      </trkpt>
      <trkpt lat="45.48845" lon="5.98464">
        <ele>286.62</ele>
        <time>2019-09-15T08:26:32.000Z</time>
      </trkpt>
      <trkpt lat="45.48878" lon="5.98485">
        <ele>286.51</ele>
        <time>2019-09-15T08:26:37.000Z</time>
      </trkpt>
      <trkpt lat="45.48913" lon="5.98494">
        <ele>287.3</ele>
        <time>2019-09-15T08:26:42.000Z</time>
      </trkpt>
      <trkpt lat="45.48944" lon="5.98494">
        <ele>287.12</ele>
        <time>2019-09-15T08:26:47.000Z</time>
      </trkpt>
      <trkpt lat="45.48975" lon="5.98504">
        <ele>289.45</ele>
        <time>2019-09-15T08:26:52.000Z</time>
      </trkpt>
      <trkpt lat="45.48997" lon="5.98485">
        <ele>291.7</ele>
        <time>2019-09-15T08:26:57.000Z</time>
      </trkpt>
      <trkpt lat="45.49016" lon="5.98462">
        <ele>292.09</ele>
        <time>2019-09-15T08:27:02.000Z</time>
      </trkpt>
      <trkpt lat="45.49034" lon="5.98444">
        <ele>294.24</ele>
        <time>2019-09-15T08:27:07.000Z</time>
      </trkpt>
      <trkpt lat="45.49053" lon="5.98428">
        <ele>297</ele>
        <time>2019-09-15T08:27:12.000Z</time>
      </trkpt>
      <trkpt lat="45.49073" lon="5.98417">
        <ele>302.31</ele>
        <time>2019-09-15T08:27:17.000Z</time>
      </trkpt>
      <trkpt lat="45.49095" lon="5.98407">
        <ele>303.22</ele>
        <time>2019-09-15T08:27:22.000Z</time>
      </trkpt>
      <trkpt lat="45.49114" lon="5.98385">
        <ele>306.73</ele>
        <time>2019-09-15T08:27:27.000Z</time>
      </trkpt>
      <trkpt lat="45.49136" lon="5.98373">
        <ele>309.03</ele>
        <time>2019-09-15T08:27:32.000Z</time>
      </trkpt>
      <trkpt lat="45.49149" lon="5.98389">
        <ele>307.9</ele>
        <time>2019-09-15T08:27:37.000Z</time>
      </trkpt>
      <trkpt lat="45.49146" lon="5.98409">
        <ele>306.7</ele>
        <time>2019-09-15T08:27:42.000Z</time>
      </trkpt>
      <trkpt lat="45.49146" lon="5.98432">
        <ele>308.32</ele>
        <time>2019-09-15T08:27:47.000Z</time>
      </trkpt>
      <trkpt lat="45.49145" lon="5.98467">
        <ele>308.74</ele>
        <time>2019-09-15T08:27:52.000Z</time>
      </trkpt>
      <trkpt lat="45.4915" lon="5.98506">
        <ele>303.61</ele>
        <time>2019-09-15T08:27:57.000Z</time>
      </trkpt>
      <trkpt lat="45.49164" lon="5.98549">
        <ele>301.86</ele>
        <time>2019-09-15T08:28:02.000Z</time>
      </trkpt>
      <trkpt lat="45.49186" lon="5.98591">
        <ele>298.41</ele>
        <time>2019-09-15T08:28:07.000Z</time>
      </trkpt>
      <trkpt lat="45.49208" lon="5.98617">
        <ele>295.57</ele>
        <time>2019-09-15T08:28:12.000Z</time>
      </trkpt>
      <trkpt lat="45.49229" lon="5.98629">
        <ele>295.38</ele>
        <time>2019-09-15T08:28:17.000Z</time>
      </trkpt>
      <trkpt lat="45.49247" lon="5.98645">
        <ele>293.55</ele>
        <time>2019-09-15T08:28:22.000Z</time>
      </trkpt>
      <trkpt lat="45.49265" lon="5.98667">
        <ele>297.47</ele>
        <time>2019-09-15T08:28:27.000Z</time>
      </trkpt>
      <trkpt lat="45.49283" lon="5.98698">
        <ele>296.32</ele>
        <time>2019-09-15T08:28:32.000Z</time>
      </trkpt>
      <trkpt lat="45.49303" lon="5.98726">
        <ele>295.7</ele>
        <time>2019-09-15T08:28:37.000Z</time>
      </trkpt>
      <trkpt lat="45.49325" lon="5.98752">
        <ele>294.19</ele>
        <time>2019-09-15T08:28:42.000Z</time>
      </trkpt>
      <trkpt lat="45.49345" lon="5.98775">
        <ele>294.01</ele>
        <time>2019-09-15T08:28:47.000Z</time>
      </trkpt>
      <trkpt lat="45.49357" lon="5.98805">
        <ele>295.19</ele>
        <time>2019-09-15T08:28:52.000Z</time>
      </trkpt>
      <trkpt lat="45.4938" lon="5.98837">
        <ele>295.02</ele>
        <time>2019-09-15T08:28:57.000Z</time>
      </trkpt>
      <trkpt lat="45.49399" lon="5.98863">
        <ele>296.13</ele>
        <time>2019-09-15T08:29:02.000Z</time>
      </trkpt>
      <trkpt lat="45.49413" lon="5.98871">
        <ele>298.8</ele>
        <time>2019-09-15T08:29:07.000Z</time>
      </trkpt>
      <trkpt lat="45.49424" lon="5.98871">
        <ele>294.04</ele>
        <time>2019-09-15T08:31:36.000Z</time>
      </trkpt>
      <trkpt lat="45.49445" lon="5.98866">
        <ele>294.14</ele>
        <time>2019-09-15T08:31:41.000Z</time>
      </trkpt>
      <trkpt lat="45.49467" lon="5.98882">
        <ele>295.5</ele>
        <time>2019-09-15T08:31:46.000Z</time>
      </trkpt>
      <trkpt lat="45.49487" lon="5.98896">
        <ele>298.2</ele>
        <time>2019-09-15T08:31:51.000Z</time>
      </trkpt>
      <trkpt lat="45.49493" lon="5.98926">
        <ele>299.17</ele>
        <time>2019-09-15T08:31:56.000Z</time>
      </trkpt>
      <trkpt lat="45.49501" lon="5.98944">
        <ele>301.2</ele>
        <time>2019-09-15T08:32:01.000Z</time>
      </trkpt>
      <trkpt lat="45.4952" lon="5.98966">
        <ele>302.51</ele>
        <time>2019-09-15T08:32:06.000Z</time>
      </trkpt>
      <trkpt lat="45.49542" lon="5.99">
        <ele>301.3</ele>
        <time>2019-09-15T08:32:11.000Z</time>
      </trkpt>
      <trkpt lat="45.49561" lon="5.99028">
        <ele>297.08</ele>
        <time>2019-09-15T08:32:16.000Z</time>
      </trkpt>
      <trkpt lat="45.49584" lon="5.99019">
        <ele>296.83</ele>
        <time>2019-09-15T08:32:21.000Z</time>
      </trkpt>
      <trkpt lat="45.49607" lon="5.98998">
        <ele>296.49</ele>
        <time>2019-09-15T08:32:26.000Z</time>
      </trkpt>
      <trkpt lat="45.49634" lon="5.9898">
        <ele>297.8</ele>
        <time>2019-09-15T08:32:31.000Z</time>
      </trkpt>
      <trkpt lat="45.49662" lon="5.98964">
        <ele>296.13</ele>
        <time>2019-09-15T08:32:36.000Z</time>
      </trkpt>
      <trkpt lat="45.49687" lon="5.98948">
        <ele>297.03</ele>
        <time>2019-09-15T08:32:41.000Z</time>
      </trkpt>
      <trkpt lat="45.49711" lon="5.98936">
        <ele>296.48</ele>
        <time>2019-09-15T08:32:46.000Z</time>
      </trkpt>
      <trkpt lat="45.49733" lon="5.98922">
        <ele>294.74</ele>
        <time>2019-09-15T08:32:51.000Z</time>
      </trkpt>
      <trkpt lat="45.49757" lon="5.98906">
        <ele>294.81</ele>
        <time>2019-09-15T08:32:56.000Z</time>
      </trkpt>
      <trkpt lat="45.49783" lon="5.98887">
        <ele>296.66</ele>
        <time>2019-09-15T08:33:01.000Z</time>
      </trkpt>
      <trkpt lat="45.49806" lon="5.98866">
        <ele>298.53</ele>
        <time>2019-09-15T08:33:06.000Z</time>
      </trkpt>
      <trkpt lat="45.4983" lon="5.98846">
        <ele>298.72</ele>
        <time>2019-09-15T08:33:11.000Z</time>
      </trkpt>
      <trkpt lat="45.49856" lon="5.98832">
        <ele>297.6</ele>
        <time>2019-09-15T08:33:16.000Z</time>
      </trkpt>
      <trkpt lat="45.49882" lon="5.98812">
        <ele>298.83</ele>
        <time>2019-09-15T08:33:21.000Z</time>
      </trkpt>
      <trkpt lat="45.49908" lon="5.9879">
        <ele>296.47</ele>
        <time>2019-09-15T08:33:26.000Z</time>
      </trkpt>
      <trkpt lat="45.49935" lon="5.98772">
        <ele>301.74</ele>
        <time>2019-09-15T08:33:31.000Z</time>
      </trkpt>
      <trkpt lat="45.49966" lon="5.98754">
        <ele>300.86</ele>
        <time>2019-09-15T08:33:36.000Z</time>
      </trkpt>
      <trkpt lat="45.49995" lon="5.98737">
        <ele>295.3</ele>
        <time>2019-09-15T08:33:41.000Z</time>
      </trkpt>
      <trkpt lat="45.50024" lon="5.98713">
        <ele>296.23</ele>
        <time>2019-09-15T08:33:46.000Z</time>
      </trkpt>
      <trkpt lat="45.50051" lon="5.98693">
        <ele>299.55</ele>
        <time>2019-09-15T08:33:51.000Z</time>
      </trkpt>
      <trkpt lat="45.50079" lon="5.98673">
        <ele>298.42</ele>
        <time>2019-09-15T08:33:56.000Z</time>
      </trkpt>
      <trkpt lat="45.5011" lon="5.98675">
        <ele>300.36</ele>
        <time>2019-09-15T08:34:01.000Z</time>
      </trkpt>
      <trkpt lat="45.5013" lon="5.98664">
        <ele>301.68</ele>
        <time>2019-09-15T08:34:06.000Z</time>
      </trkpt>
      <trkpt lat="45.50151" lon="5.98645">
        <ele>298.94</ele>
        <time>2019-09-15T08:34:11.000Z</time>
      </trkpt>
      <trkpt lat="45.50178" lon="5.98623">
        <ele>298.42</ele>
        <time>2019-09-15T08:34:16.000Z</time>
      </trkpt>
      <trkpt lat="45.50199" lon="5.98606">
        <ele>297.65</ele>
        <time>2019-09-15T08:34:21.000Z</time>
      </trkpt>
      <trkpt lat="45.50218" lon="5.98594">
        <ele>299.39</ele>
        <time>2019-09-15T08:34:26.000Z</time>
      </trkpt>
      <trkpt lat="45.50238" lon="5.98578">
        <ele>303.52</ele>
        <time>2019-09-15T08:34:31.000Z</time>
      </trkpt>
      <trkpt lat="45.50253" lon="5.98562">
        <ele>304.26</ele>
        <time>2019-09-15T08:34:36.000Z</time>
      </trkpt>
      <trkpt lat="45.5027" lon="5.98542">
        <ele>308.01</ele>
        <time>2019-09-15T08:34:41.000Z</time>
      </trkpt>
      <trkpt lat="45.50293" lon="5.98521">
        <ele>306.97</ele>
        <time>2019-09-15T08:34:46.000Z</time>
      </trkpt>
      <trkpt lat="45.50303" lon="5.98478">
        <ele>306.7</ele>
        <time>2019-09-15T08:34:51.000Z</time>
      </trkpt>
      <trkpt lat="45.50322" lon="5.98449">
        <ele>304.69</ele>
        <time>2019-09-15T08:34:56.000Z</time>
      </trkpt>
      <trkpt lat="45.50322" lon="5.98409">
        <ele>304.86</ele>
        <time>2019-09-15T08:35:01.000Z</time>
      </trkpt>
      <trkpt lat="45.50332" lon="5.98372">
        <ele>306.96</ele>
        <time>2019-09-15T08:35:06.000Z</time>
      </trkpt>
      <trkpt lat="45.50352" lon="5.98343">
        <ele>304.3</ele>
        <time>2019-09-15T08:35:11.000Z</time>
      </trkpt>
      <trkpt lat="45.50352" lon="5.98308">
        <ele>306.93</ele>
        <time>2019-09-15T08:35:16.000Z</time>
      </trkpt>
      <trkpt lat="45.50378" lon="5.98293">
        <ele>309.37</ele>
        <time>2019-09-15T08:35:21.000Z</time>
      </trkpt>
      <trkpt lat="45.50407" lon="5.9828">
        <ele>310.51</ele>
        <time>2019-09-15T08:35:26.000Z</time>
      </trkpt>
      <trkpt lat="45.50442" lon="5.98268">
        <ele>309.26</ele>
        <time>2019-09-15T08:35:31.000Z</time>
      </trkpt>
      <trkpt lat="45.50466" lon="5.98281">
        <ele>312.05</ele>
        <time>2019-09-15T08:35:36.000Z</time>
      </trkpt>
      <trkpt lat="45.5049" lon="5.98293">
        <ele>312.12</ele>
        <time>2019-09-15T08:35:41.000Z</time>
      </trkpt>
      <trkpt lat="45.50514" lon="5.98291">
        <ele>310.57</ele>
        <time>2019-09-15T08:35:46.000Z</time>
      </trkpt>
      <trkpt lat="45.50536" lon="5.9829">
        <ele>308.98</ele>
        <time>2019-09-15T08:35:51.000Z</time>
      </trkpt>
      <trkpt lat="45.50559" lon="5.98305">
        <ele>309.1</ele>
        <time>2019-09-15T08:35:56.000Z</time>
      </trkpt>
      <trkpt lat="45.50586" lon="5.9832">
        <ele>309.4</ele>
        <time>2019-09-15T08:36:01.000Z</time>
      </trkpt>
      <trkpt lat="45.50614" lon="5.98327">
        <ele>310.94</ele>
        <time>2019-09-15T08:36:06.000Z</time>
      </trkpt>
      <trkpt lat="45.50645" lon="5.98329">
        <ele>311.65</ele>
        <time>2019-09-15T08:36:11.000Z</time>
      </trkpt>
      <trkpt lat="45.50675" lon="5.98312">
        <ele>313.96</ele>
        <time>2019-09-15T08:36:16.000Z</time>
      </trkpt>
      <trkpt lat="45.50708" lon="5.98308">
        <ele>312.34</ele>
        <time>2019-09-15T08:36:21.000Z</time>
      </trkpt>
      <trkpt lat="45.50733" lon="5.98315">
        <ele>313.34</ele>
        <time>2019-09-15T08:36:26.000Z</time>
      </trkpt>
      <trkpt lat="45.50754" lon="5.98338">
        <ele>309.67</ele>
        <time>2019-09-15T08:36:31.000Z</time>
      </trkpt>
      <trkpt lat="45.50768" lon="5.9836">
        <ele>308.56</ele>
        <time>2019-09-15T08:36:36.000Z</time>
      </trkpt>
      <trkpt lat="45.50785" lon="5.98382">
        <ele>311.73</ele>
        <time>2019-09-15T08:36:41.000Z</time>
      </trkpt>
      <trkpt lat="45.50787" lon="5.98406">
        <ele>316.22</ele>
        <time>2019-09-15T08:36:46.000Z</time>
      </trkpt>
      <trkpt lat="45.50805" lon="5.98398">
        <ele>319.85</ele>
        <time>2019-09-15T08:36:51.000Z</time>
      </trkpt>
      <trkpt lat="45.50826" lon="5.98383">
        <ele>323.45</ele>
        <time>2019-09-15T08:36:56.000Z</time>
      </trkpt>
      <trkpt lat="45.50845" lon="5.98366">
        <ele>324.5</ele>
        <time>2019-09-15T08:37:01.000Z</time>
      </trkpt>
      <trkpt lat="45.50864" lon="5.9835">
        <ele>323.2</ele>
        <time>2019-09-15T08:37:06.000Z</time>
      </trkpt>
      <trkpt lat="45.50888" lon="5.98335">
        <ele>326.54</ele>
        <time>2019-09-15T08:37:11.000Z</time>
      </trkpt>
      <trkpt lat="45.50908" lon="5.98316">
        <ele>327.09</ele>
        <time>2019-09-15T08:37:16.000Z</time>
      </trkpt>
      <trkpt lat="45.50931" lon="5.98294">
        <ele>330.81</ele>
        <time>2019-09-15T08:37:21.000Z</time>
      </trkpt>
      <trkpt lat="45.50957" lon="5.98289">
        <ele>331.66</ele>
        <time>2019-09-15T08:37:26.000Z</time>
      </trkpt>
      <trkpt lat="45.50991" lon="5.98294">
        <ele>326.56</ele>
        <time>2019-09-15T08:37:31.000Z</time>
      </trkpt>
      <trkpt lat="45.51012" lon="5.98294">
        <ele>325.62</ele>
        <time>2019-09-15T08:37:36.000Z</time>
      </trkpt>
      <trkpt lat="45.51022" lon="5.98263">
        <ele>325.9</ele>
        <time>2019-09-15T08:37:41.000Z</time>
      </trkpt>
      <trkpt lat="45.51019" lon="5.98227">
        <ele>324.48</ele>
        <time>2019-09-15T08:37:46.000Z</time>
      </trkpt>
      <trkpt lat="45.51014" lon="5.98186">
        <ele>326.93</ele>
        <time>2019-09-15T08:37:51.000Z</time>
      </trkpt>
      <trkpt lat="45.51013" lon="5.98149">
        <ele>325.17</ele>
        <time>2019-09-15T08:37:56.000Z</time>
      </trkpt>
      <trkpt lat="45.51008" lon="5.98108">
        <ele>325.69</ele>
        <time>2019-09-15T08:38:01.000Z</time>
      </trkpt>
      <trkpt lat="45.51019" lon="5.98075">
        <ele>326.88</ele>
        <time>2019-09-15T08:38:06.000Z</time>
      </trkpt>
      <trkpt lat="45.51043" lon="5.98056">
        <ele>325.14</ele>
        <time>2019-09-15T08:38:11.000Z</time>
      </trkpt>
      <trkpt lat="45.51065" lon="5.9803">
        <ele>328.4</ele>
        <time>2019-09-15T08:38:16.000Z</time>
      </trkpt>
      <trkpt lat="45.51097" lon="5.98015">
        <ele>327.98</ele>
        <time>2019-09-15T08:38:21.000Z</time>
      </trkpt>
      <trkpt lat="45.51126" lon="5.9799">
        <ele>327.61</ele>
        <time>2019-09-15T08:38:26.000Z</time>
      </trkpt>
      <trkpt lat="45.5115" lon="5.97969">
        <ele>329.42</ele>
        <time>2019-09-15T08:38:31.000Z</time>
      </trkpt>
      <trkpt lat="45.51169" lon="5.97956">
        <ele>330.74</ele>
        <time>2019-09-15T08:38:36.000Z</time>
      </trkpt>
      <trkpt lat="45.51161" lon="5.979">
        <ele>327.98</ele>
        <time>2019-09-15T08:38:41.000Z</time>
      </trkpt>
      <trkpt lat="45.51157" lon="5.97839">
        <ele>328.93</ele>
        <time>2019-09-15T08:38:46.000Z</time>
      </trkpt>
      <trkpt lat="45.51168" lon="5.97779">
        <ele>325.71</ele>
        <time>2019-09-15T08:38:51.000Z</time>
      </trkpt>
      <trkpt lat="45.51208" lon="5.97773">
        <ele>324.91</ele>
        <time>2019-09-15T08:38:56.000Z</time>
      </trkpt>
      <trkpt lat="45.51238" lon="5.97788">
        <ele>326.59</ele>
        <time>2019-09-15T08:39:01.000Z</time>
      </trkpt>
      <trkpt lat="45.51262" lon="5.97767">
        <ele>326.93</ele>
        <time>2019-09-15T08:39:06.000Z</time>
      </trkpt>
      <trkpt lat="45.5129" lon="5.97763">
        <ele>326.64</ele>
        <time>2019-09-15T08:39:11.000Z</time>
      </trkpt>
      <trkpt lat="45.51308" lon="5.97787">
        <ele>327.76</ele>
        <time>2019-09-15T08:39:16.000Z</time>
      </trkpt>
      <trkpt lat="45.51334" lon="5.97818">
        <ele>324.79</ele>
        <time>2019-09-15T08:39:21.000Z</time>
      </trkpt>
      <trkpt lat="45.51359" lon="5.97847">
        <ele>323.94</ele>
        <time>2019-09-15T08:39:26.000Z</time>
      </trkpt>
      <trkpt lat="45.51386" lon="5.97852">
        <ele>325.8</ele>
        <time>2019-09-15T08:39:31.000Z</time>
      </trkpt>
      <trkpt lat="45.514" lon="5.9785">
        <ele>324.81</ele>
        <time>2019-09-15T08:39:36.000Z</time>
      </trkpt>
      <trkpt lat="45.5141" lon="5.97852">
        <ele>328.09</ele>
        <time>2019-09-15T08:39:41.000Z</time>
      </trkpt>
      <trkpt lat="45.51422" lon="5.9785">
        <ele>327.32</ele>
        <time>2019-09-15T08:39:47.000Z</time>
      </trkpt>
      <trkpt lat="45.51442" lon="5.97847">
        <ele>330.44</ele>
        <time>2019-09-15T08:39:52.000Z</time>
      </trkpt>
      <trkpt lat="45.51463" lon="5.97833">
        <ele>330.61</ele>
        <time>2019-09-15T08:39:57.000Z</time>
      </trkpt>
      <trkpt lat="45.51492" lon="5.97821">
        <ele>327.92</ele>
        <time>2019-09-15T08:40:02.000Z</time>
      </trkpt>
      <trkpt lat="45.5152" lon="5.97808">
        <ele>326.28</ele>
        <time>2019-09-15T08:40:07.000Z</time>
      </trkpt>
      <trkpt lat="45.51544" lon="5.97794">
        <ele>327.28</ele>
        <time>2019-09-15T08:40:12.000Z</time>
      </trkpt>
      <trkpt lat="45.51571" lon="5.97783">
        <ele>325.63</ele>
        <time>2019-09-15T08:40:17.000Z</time>
      </trkpt>
      <trkpt lat="45.51603" lon="5.97772">
        <ele>323.1</ele>
        <time>2019-09-15T08:40:22.000Z</time>
      </trkpt>
      <trkpt lat="45.51634" lon="5.97757">
        <ele>324.7</ele>
        <time>2019-09-15T08:40:27.000Z</time>
      </trkpt>
      <trkpt lat="45.51661" lon="5.97742">
        <ele>322.19</ele>
        <time>2019-09-15T08:40:32.000Z</time>
      </trkpt>
      <trkpt lat="45.51692" lon="5.97734">
        <ele>321.36</ele>
        <time>2019-09-15T08:40:37.000Z</time>
      </trkpt>
      <trkpt lat="45.5173" lon="5.97726">
        <ele>320.25</ele>
        <time>2019-09-15T08:40:42.000Z</time>
      </trkpt>
      <trkpt lat="45.51764" lon="5.97737">
        <ele>322.37</ele>
        <time>2019-09-15T08:40:47.000Z</time>
      </trkpt>
      <trkpt lat="45.51802" lon="5.97755">
        <ele>318.31</ele>
        <time>2019-09-15T08:40:52.000Z</time>
      </trkpt>
      <trkpt lat="45.51822" lon="5.97799">
        <ele>319.35</ele>
        <time>2019-09-15T08:40:57.000Z</time>
      </trkpt>
      <trkpt lat="45.51846" lon="5.97838">
        <ele>319.72</ele>
        <time>2019-09-15T08:41:02.000Z</time>
      </trkpt>
      <trkpt lat="45.51864" lon="5.97836">
        <ele>317.43</ele>
        <time>2019-09-15T08:41:07.000Z</time>
      </trkpt>
      <trkpt lat="45.51883" lon="5.97803">
        <ele>318.74</ele>
        <time>2019-09-15T08:41:12.000Z</time>
      </trkpt>
      <trkpt lat="45.51903" lon="5.97774">
        <ele>319.59</ele>
        <time>2019-09-15T08:41:17.000Z</time>
      </trkpt>
      <trkpt lat="45.51923" lon="5.97751">
        <ele>319.43</ele>
        <time>2019-09-15T08:41:22.000Z</time>
      </trkpt>
      <trkpt lat="45.51946" lon="5.97765">
        <ele>317.41</ele>
        <time>2019-09-15T08:41:27.000Z</time>
      </trkpt>
      <trkpt lat="45.51968" lon="5.97792">
        <ele>316.78</ele>
        <time>2019-09-15T08:41:32.000Z</time>
      </trkpt>
      <trkpt lat="45.51988" lon="5.97823">
        <ele>314.87</ele>
        <time>2019-09-15T08:41:37.000Z</time>
      </trkpt>
      <trkpt lat="45.52012" lon="5.97857">
        <ele>315.01</ele>
        <time>2019-09-15T08:41:42.000Z</time>
      </trkpt>
      <trkpt lat="45.52038" lon="5.97892">
        <ele>316.39</ele>
        <time>2019-09-15T08:41:47.000Z</time>
      </trkpt>
      <trkpt lat="45.52064" lon="5.97924">
        <ele>315.1</ele>
        <time>2019-09-15T08:41:52.000Z</time>
      </trkpt>
      <trkpt lat="45.52084" lon="5.97965">
        <ele>315.41</ele>
        <time>2019-09-15T08:41:57.000Z</time>
      </trkpt>
      <trkpt lat="45.52061" lon="5.98003">
        <ele>310.51</ele>
        <time>2019-09-15T08:42:02.000Z</time>
      </trkpt>
      <trkpt lat="45.52033" lon="5.98025">
        <ele>309.61</ele>
        <time>2019-09-15T08:42:07.000Z</time>
      </trkpt>
      <trkpt lat="45.52014" lon="5.98069">
        <ele>311.08</ele>
        <time>2019-09-15T08:42:12.000Z</time>
      </trkpt>
      <trkpt lat="45.52039" lon="5.98114">
        <ele>309.62</ele>
        <time>2019-09-15T08:42:17.000Z</time>
      </trkpt>
      <trkpt lat="45.52068" lon="5.98142">
        <ele>311.58</ele>
        <time>2019-09-15T08:42:22.000Z</time>
      </trkpt>
      <trkpt lat="45.52097" lon="5.98142">
        <ele>310.05</ele>
        <time>2019-09-15T08:42:27.000Z</time>
      </trkpt>
      <trkpt lat="45.52107" lon="5.98111">
        <ele>307.37</ele>
        <time>2019-09-15T08:42:32.000Z</time>
      </trkpt>
      <trkpt lat="45.52114" lon="5.98079">
        <ele>305.9</ele>
        <time>2019-09-15T08:42:37.000Z</time>
      </trkpt>
      <trkpt lat="45.5212" lon="5.98045">
        <ele>306.18</ele>
        <time>2019-09-15T08:42:42.000Z</time>
      </trkpt>
      <trkpt lat="45.5214" lon="5.98032">
        <ele>308.08</ele>
        <time>2019-09-15T08:42:47.000Z</time>
      </trkpt>
      <trkpt lat="45.52168" lon="5.98047">
        <ele>312.42</ele>
        <time>2019-09-15T08:42:52.000Z</time>
      </trkpt>
      <trkpt lat="45.52192" lon="5.98081">
        <ele>312.7</ele>
        <time>2019-09-15T08:42:57.000Z</time>
      </trkpt>
      <trkpt lat="45.52207" lon="5.9812">
        <ele>311.09</ele>
        <time>2019-09-15T08:43:02.000Z</time>
      </trkpt>
      <trkpt lat="45.52237" lon="5.98147">
        <ele>313.16</ele>
        <time>2019-09-15T08:43:07.000Z</time>
      </trkpt>
      <trkpt lat="45.5227" lon="5.98138">
        <ele>313.13</ele>
        <time>2019-09-15T08:43:12.000Z</time>
      </trkpt>
      <trkpt lat="45.52298" lon="5.98114">
        <ele>314.22</ele>
        <time>2019-09-15T08:43:17.000Z</time>
      </trkpt>
      <trkpt lat="45.5232" lon="5.98082">
        <ele>315.69</ele>
        <time>2019-09-15T08:43:22.000Z</time>
      </trkpt>
      <trkpt lat="45.52342" lon="5.98055">
        <ele>316.85</ele>
        <time>2019-09-15T08:43:27.000Z</time>
      </trkpt>
      <trkpt lat="45.52363" lon="5.98031">
        <ele>317.02</ele>
        <time>2019-09-15T08:43:32.000Z</time>
      </trkpt>
      <trkpt lat="45.52381" lon="5.98">
        <ele>317.26</ele>
        <time>2019-09-15T08:43:37.000Z</time>
      </trkpt>
      <trkpt lat="45.52404" lon="5.97978">
        <ele>316.76</ele>
        <time>2019-09-15T08:43:42.000Z</time>
      </trkpt>
      <trkpt lat="45.5243" lon="5.97964">
        <ele>316.92</ele>
        <time>2019-09-15T08:43:47.000Z</time>
      </trkpt>
      <trkpt lat="45.52459" lon="5.97955">
        <ele>316.45</ele>
        <time>2019-09-15T08:43:52.000Z</time>
      </trkpt>
      <trkpt lat="45.52482" lon="5.97926">
        <ele>315.05</ele>
        <time>2019-09-15T08:43:57.000Z</time>
      </trkpt>
      <trkpt lat="45.5251" lon="5.97901">
        <ele>313.6</ele>
        <time>2019-09-15T08:44:02.000Z</time>
      </trkpt>
      <trkpt lat="45.52532" lon="5.97875">
        <ele>312.39</ele>
        <time>2019-09-15T08:44:07.000Z</time>
      </trkpt>
      <trkpt lat="45.52557" lon="5.97845">
        <ele>312.53</ele>
        <time>2019-09-15T08:44:12.000Z</time>
      </trkpt>
      <trkpt lat="45.52584" lon="5.97816">
        <ele>314.07</ele>
        <time>2019-09-15T08:44:17.000Z</time>
      </trkpt>
      <trkpt lat="45.52612" lon="5.97786">
        <ele>314.15</ele>
        <time>2019-09-15T08:44:22.000Z</time>
      </trkpt>
      <trkpt lat="45.52636" lon="5.97752">
        <ele>312.11</ele>
        <time>2019-09-15T08:44:27.000Z</time>
      </trkpt>
      <trkpt lat="45.52666" lon="5.97723">
        <ele>309.69</ele>
        <time>2019-09-15T08:44:32.000Z</time>
      </trkpt>
      <trkpt lat="45.52695" lon="5.97692">
        <ele>309.03</ele>
        <time>2019-09-15T08:44:37.000Z</time>
      </trkpt>
      <trkpt lat="45.52722" lon="5.97654">
        <ele>307.84</ele>
        <time>2019-09-15T08:44:42.000Z</time>
      </trkpt>
      <trkpt lat="45.52754" lon="5.97619">
        <ele>307.6</ele>
        <time>2019-09-15T08:44:47.000Z</time>
      </trkpt>
      <trkpt lat="45.52783" lon="5.97573">
        <ele>311.07</ele>
        <time>2019-09-15T08:44:52.000Z</time>
      </trkpt>
      <trkpt lat="45.52821" lon="5.97539">
        <ele>312.49</ele>
        <time>2019-09-15T08:44:57.000Z</time>
      </trkpt>
      <trkpt lat="45.52856" lon="5.97509">
        <ele>310.64</ele>
        <time>2019-09-15T08:45:02.000Z</time>
      </trkpt>
      <trkpt lat="45.52894" lon="5.97479">
        <ele>310.11</ele>
        <time>2019-09-15T08:45:07.000Z</time>
      </trkpt>
      <trkpt lat="45.52928" lon="5.97448">
        <ele>308.69</ele>
        <time>2019-09-15T08:45:12.000Z</time>
      </trkpt>
      <trkpt lat="45.52953" lon="5.97408">
        <ele>307.21</ele>
        <time>2019-09-15T08:45:17.000Z</time>
      </trkpt>
      <trkpt lat="45.52977" lon="5.97365">
        <ele>307.4</ele>
        <time>2019-09-15T08:45:22.000Z</time>
      </trkpt>
      <trkpt lat="45.53004" lon="5.97324">
        <ele>308.29</ele>
        <time>2019-09-15T08:45:27.000Z</time>
      </trkpt>
      <trkpt lat="45.53037" lon="5.97301">
        <ele>309.48</ele>
        <time>2019-09-15T08:45:32.000Z</time>
      </trkpt>
      <trkpt lat="45.53059" lon="5.9727">
        <ele>309.46</ele>
        <time>2019-09-15T08:45:37.000Z</time>
      </trkpt>
      <trkpt lat="45.53086" lon="5.97245">
        <ele>309.68</ele>
        <time>2019-09-15T08:45:42.000Z</time>
      </trkpt>
      <trkpt lat="45.53115" lon="5.97223">
        <ele>311.01</ele>
        <time>2019-09-15T08:45:47.000Z</time>
      </trkpt>
      <trkpt lat="45.53146" lon="5.97209">
        <ele>308.98</ele>
        <time>2019-09-15T08:45:52.000Z</time>
      </trkpt>
      <trkpt lat="45.53177" lon="5.97197">
        <ele>306.98</ele>
        <time>2019-09-15T08:45:57.000Z</time>
      </trkpt>
      <trkpt lat="45.53204" lon="5.97176">
        <ele>306.56</ele>
        <time>2019-09-15T08:46:02.000Z</time>
      </trkpt>
      <trkpt lat="45.53228" lon="5.97158">
        <ele>307.82</ele>
        <time>2019-09-15T08:46:07.000Z</time>
      </trkpt>
      <trkpt lat="45.53257" lon="5.97137">
        <ele>308.2</ele>
        <time>2019-09-15T08:46:12.000Z</time>
      </trkpt>
      <trkpt lat="45.5329" lon="5.97116">
        <ele>308.19</ele>
        <time>2019-09-15T08:46:17.000Z</time>
      </trkpt>
      <trkpt lat="45.53322" lon="5.97094">
        <ele>307.69</ele>
        <time>2019-09-15T08:46:22.000Z</time>
      </trkpt>
      <trkpt lat="45.53353" lon="5.97072">
        <ele>306.75</ele>
        <time>2019-09-15T08:46:27.000Z</time>
      </trkpt>
      <trkpt lat="45.53386" lon="5.97049">
        <ele>308.21</ele>
        <time>2019-09-15T08:46:32.000Z</time>
      </trkpt>
      <trkpt lat="45.53417" lon="5.97028">
        <ele>309.13</ele>
        <time>2019-09-15T08:46:37.000Z</time>
      </trkpt>
      <trkpt lat="45.53442" lon="5.97014">
        <ele>311.9</ele>
        <time>2019-09-15T08:46:42.000Z</time>
      </trkpt>
      <trkpt lat="45.53466" lon="5.97001">
        <ele>310.41</ele>
        <time>2019-09-15T08:46:47.000Z</time>
      </trkpt>
      <trkpt lat="45.53494" lon="5.96984">
        <ele>309.1</ele>
        <time>2019-09-15T08:46:52.000Z</time>
      </trkpt>
      <trkpt lat="45.53525" lon="5.96962">
        <ele>308.9</ele>
        <time>2019-09-15T08:46:57.000Z</time>
      </trkpt>
      <trkpt lat="45.53561" lon="5.96935">
        <ele>309.45</ele>
        <time>2019-09-15T08:47:02.000Z</time>
      </trkpt>
      <trkpt lat="45.53596" lon="5.96905">
        <ele>306.35</ele>
        <time>2019-09-15T08:47:07.000Z</time>
      </trkpt>
      <trkpt lat="45.53634" lon="5.9689">
        <ele>304.85</ele>
        <time>2019-09-15T08:47:12.000Z</time>
      </trkpt>
      <trkpt lat="45.53663" lon="5.96879">
        <ele>307.33</ele>
        <time>2019-09-15T08:47:17.000Z</time>
      </trkpt>
      <trkpt lat="45.53668" lon="5.96848">
        <ele>306.11</ele>
        <time>2019-09-15T08:47:22.000Z</time>
      </trkpt>
      <trkpt lat="45.5369" lon="5.96833">
        <ele>306.99</ele>
        <time>2019-09-15T08:47:27.000Z</time>
      </trkpt>
      <trkpt lat="45.53716" lon="5.96826">
        <ele>305.96</ele>
        <time>2019-09-15T08:47:32.000Z</time>
      </trkpt>
      <trkpt lat="45.53735" lon="5.96807">
        <ele>305.66</ele>
        <time>2019-09-15T08:47:37.000Z</time>
      </trkpt>
      <trkpt lat="45.53724" lon="5.96773">
        <ele>305.14</ele>
        <time>2019-09-15T08:47:42.000Z</time>
      </trkpt>
      <trkpt lat="45.53705" lon="5.96735">
        <ele>304.74</ele>
        <time>2019-09-15T08:47:47.000Z</time>
      </trkpt>
      <trkpt lat="45.53682" lon="5.96702">
        <ele>302.92</ele>
        <time>2019-09-15T08:47:52.000Z</time>
      </trkpt>
      <trkpt lat="45.53654" lon="5.96688">
        <ele>299.96</ele>
        <time>2019-09-15T08:47:57.000Z</time>
      </trkpt>
      <trkpt lat="45.5367" lon="5.96659">
        <ele>300.64</ele>
        <time>2019-09-15T08:48:02.000Z</time>
      </trkpt>
      <trkpt lat="45.53692" lon="5.96635">
        <ele>300</ele>
        <time>2019-09-15T08:48:07.000Z</time>
      </trkpt>
      <trkpt lat="45.53682" lon="5.96606">
        <ele>297.63</ele>
        <time>2019-09-15T08:48:12.000Z</time>
      </trkpt>
      <trkpt lat="45.53669" lon="5.96565">
        <ele>297.48</ele>
        <time>2019-09-15T08:48:17.000Z</time>
      </trkpt>
      <trkpt lat="45.53695" lon="5.96539">
        <ele>296.44</ele>
        <time>2019-09-15T08:48:22.000Z</time>
      </trkpt>
      <trkpt lat="45.53711" lon="5.96524">
        <ele>295.71</ele>
        <time>2019-09-15T08:48:27.000Z</time>
      </trkpt>
      <trkpt lat="45.53711" lon="5.9651">
        <ele>294.7</ele>
        <time>2019-09-15T08:48:32.000Z</time>
      </trkpt>
      <trkpt lat="45.53695" lon="5.96523">
        <ele>294.97</ele>
        <time>2019-09-15T08:48:37.000Z</time>
      </trkpt>
      <trkpt lat="45.53676" lon="5.96535">
        <ele>296.96</ele>
        <time>2019-09-15T08:48:42.000Z</time>
      </trkpt>
      <trkpt lat="45.53664" lon="5.96546">
        <ele>299.54</ele>
        <time>2019-09-15T08:48:47.000Z</time>
      </trkpt>
      <trkpt lat="45.53656" lon="5.9655">
        <ele>302.32</ele>
        <time>2019-09-15T08:48:53.000Z</time>
      </trkpt>
      <trkpt lat="45.53652" lon="5.96537">
        <ele>302.44</ele>
        <time>2019-09-15T08:48:58.000Z</time>
      </trkpt>
      <trkpt lat="45.53653" lon="5.965">
        <ele>300.08</ele>
        <time>2019-09-15T08:49:03.000Z</time>
      </trkpt>
      <trkpt lat="45.53647" lon="5.96447">
        <ele>298.27</ele>
        <time>2019-09-15T08:49:08.000Z</time>
      </trkpt>
      <trkpt lat="45.53642" lon="5.96378">
        <ele>295.85</ele>
        <time>2019-09-15T08:49:13.000Z</time>
      </trkpt>
      <trkpt lat="45.53637" lon="5.96309">
        <ele>296.29</ele>
        <time>2019-09-15T08:49:18.000Z</time>
      </trkpt>
      <trkpt lat="45.53634" lon="5.96249">
        <ele>292.76</ele>
        <time>2019-09-15T08:49:23.000Z</time>
      </trkpt>
      <trkpt lat="45.5363" lon="5.96196">
        <ele>293.28</ele>
        <time>2019-09-15T08:49:28.000Z</time>
      </trkpt>
      <trkpt lat="45.53628" lon="5.96148">
        <ele>293.89</ele>
        <time>2019-09-15T08:49:33.000Z</time>
      </trkpt>
      <trkpt lat="45.53628" lon="5.96102">
        <ele>291.57</ele>
        <time>2019-09-15T08:49:38.000Z</time>
      </trkpt>
      <trkpt lat="45.5363" lon="5.96053">
        <ele>290.59</ele>
        <time>2019-09-15T08:49:43.000Z</time>
      </trkpt>
      <trkpt lat="45.53635" lon="5.96008">
        <ele>290.9</ele>
        <time>2019-09-15T08:49:48.000Z</time>
      </trkpt>
      <trkpt lat="45.53641" lon="5.95964">
        <ele>293.82</ele>
        <time>2019-09-15T08:49:53.000Z</time>
      </trkpt>
      <trkpt lat="45.5363" lon="5.95927">
        <ele>293.3</ele>
        <time>2019-09-15T08:49:58.000Z</time>
      </trkpt>
      <trkpt lat="45.53628" lon="5.95893">
        <ele>293.26</ele>
        <time>2019-09-15T08:50:03.000Z</time>
      </trkpt>
      <trkpt lat="45.53629" lon="5.95855">
        <ele>294.8</ele>
        <time>2019-09-15T08:50:08.000Z</time>
      </trkpt>
      <trkpt lat="45.5363" lon="5.95824">
        <ele>292.33</ele>
        <time>2019-09-15T08:50:13.000Z</time>
      </trkpt>
      <trkpt lat="45.53629" lon="5.95787">
        <ele>293.01</ele>
        <time>2019-09-15T08:50:18.000Z</time>
      </trkpt>
      <trkpt lat="45.53628" lon="5.95748">
        <ele>293.99</ele>
        <time>2019-09-15T08:50:23.000Z</time>
      </trkpt>
      <trkpt lat="45.53631" lon="5.95719">
        <ele>294.81</ele>
        <time>2019-09-15T08:50:28.000Z</time>
      </trkpt>
      <trkpt lat="45.53622" lon="5.95684">
        <ele>293.35</ele>
        <time>2019-09-15T08:50:33.000Z</time>
      </trkpt>
      <trkpt lat="45.53607" lon="5.95646">
        <ele>295.76</ele>
        <time>2019-09-15T08:50:38.000Z</time>
      </trkpt>
      <trkpt lat="45.53604" lon="5.95606">
        <ele>295.77</ele>
        <time>2019-09-15T08:50:43.000Z</time>
      </trkpt>
      <trkpt lat="45.53613" lon="5.95575">
        <ele>293.82</ele>
        <time>2019-09-15T08:50:48.000Z</time>
      </trkpt>
      <trkpt lat="45.53613" lon="5.95548">
        <ele>299.09</ele>
        <time>2019-09-15T08:50:53.000Z</time>
      </trkpt>
      <trkpt lat="45.5361" lon="5.9553">
        <ele>298.81</ele>
        <time>2019-09-15T08:50:58.000Z</time>
      </trkpt>
      <trkpt lat="45.53606" lon="5.95517">
        <ele>296.36</ele>
        <time>2019-09-15T08:51:03.000Z</time>
      </trkpt>
      <trkpt lat="45.53596" lon="5.95511">
        <ele>298.74</ele>
        <time>2019-09-15T08:51:11.000Z</time>
      </trkpt>
      <trkpt lat="45.53586" lon="5.95492">
        <ele>299.81</ele>
        <time>2019-09-15T08:51:16.000Z</time>
      </trkpt>
      <trkpt lat="45.53575" lon="5.95471">
        <ele>300.77</ele>
        <time>2019-09-15T08:51:21.000Z</time>
      </trkpt>
      <trkpt lat="45.53564" lon="5.95451">
        <ele>304.59</ele>
        <time>2019-09-15T08:51:26.000Z</time>
      </trkpt>
      <trkpt lat="45.53546" lon="5.95432">
        <ele>306.57</ele>
        <time>2019-09-15T08:51:31.000Z</time>
      </trkpt>
      <trkpt lat="45.53534" lon="5.95403">
        <ele>306.62</ele>
        <time>2019-09-15T08:51:36.000Z</time>
      </trkpt>
      <trkpt lat="45.53517" lon="5.95381">
        <ele>306.02</ele>
        <time>2019-09-15T08:51:41.000Z</time>
      </trkpt>
      <trkpt lat="45.53501" lon="5.95352">
        <ele>307.54</ele>
        <time>2019-09-15T08:51:46.000Z</time>
      </trkpt>
      <trkpt lat="45.5351" lon="5.95327">
        <ele>304.08</ele>
        <time>2019-09-15T08:51:51.000Z</time>
      </trkpt>
      <trkpt lat="45.53522" lon="5.95302">
        <ele>304.62</ele>
        <time>2019-09-15T08:51:56.000Z</time>
      </trkpt>
      <trkpt lat="45.53542" lon="5.95282">
        <ele>304.33</ele>
        <time>2019-09-15T08:52:01.000Z</time>
      </trkpt>
      <trkpt lat="45.53549" lon="5.95252">
        <ele>308.13</ele>
        <time>2019-09-15T08:52:06.000Z</time>
      </trkpt>
      <trkpt lat="45.5356" lon="5.95224">
        <ele>311.96</ele>
        <time>2019-09-15T08:52:11.000Z</time>
      </trkpt>
      <trkpt lat="45.53576" lon="5.95196">
        <ele>312.92</ele>
        <time>2019-09-15T08:52:16.000Z</time>
      </trkpt>
      <trkpt lat="45.53594" lon="5.95178">
        <ele>315.68</ele>
        <time>2019-09-15T08:52:21.000Z</time>
      </trkpt>
      <trkpt lat="45.53612" lon="5.95161">
        <ele>318.92</ele>
        <time>2019-09-15T08:52:26.000Z</time>
      </trkpt>
      <trkpt lat="45.53625" lon="5.95134">
        <ele>321.68</ele>
        <time>2019-09-15T08:52:31.000Z</time>
      </trkpt>
      <trkpt lat="45.53634" lon="5.951">
        <ele>322.16</ele>
        <time>2019-09-15T08:52:36.000Z</time>
      </trkpt>
      <trkpt lat="45.53646" lon="5.95078">
        <ele>324.51</ele>
        <time>2019-09-15T08:52:41.000Z</time>
      </trkpt>
      <trkpt lat="45.5366" lon="5.95062">
        <ele>327.14</ele>
        <time>2019-09-15T08:52:46.000Z</time>
      </trkpt>
      <trkpt lat="45.53678" lon="5.95061">
        <ele>328.7</ele>
        <time>2019-09-15T08:52:51.000Z</time>
      </trkpt>
      <trkpt lat="45.53693" lon="5.95048">
        <ele>332.25</ele>
        <time>2019-09-15T08:52:56.000Z</time>
      </trkpt>
      <trkpt lat="45.53709" lon="5.95037">
        <ele>334.09</ele>
        <time>2019-09-15T08:53:01.000Z</time>
      </trkpt>
      <trkpt lat="45.53727" lon="5.95031">
        <ele>334.34</ele>
        <time>2019-09-15T08:53:06.000Z</time>
      </trkpt>
      <trkpt lat="45.53748" lon="5.95031">
        <ele>338.27</ele>
        <time>2019-09-15T08:53:11.000Z</time>
      </trkpt>
      <trkpt lat="45.53764" lon="5.95031">
        <ele>342.68</ele>
        <time>2019-09-15T08:53:16.000Z</time>
      </trkpt>
      <trkpt lat="45.53781" lon="5.95039">
        <ele>342.81</ele>
        <time>2019-09-15T08:53:21.000Z</time>
      </trkpt>
      <trkpt lat="45.538" lon="5.95023">
        <ele>344.25</ele>
        <time>2019-09-15T08:53:26.000Z</time>
      </trkpt>
      <trkpt lat="45.53813" lon="5.94999">
        <ele>345.29</ele>
        <time>2019-09-15T08:53:31.000Z</time>
      </trkpt>
      <trkpt lat="45.53829" lon="5.94977">
        <ele>347.21</ele>
        <time>2019-09-15T08:53:36.000Z</time>
      </trkpt>
      <trkpt lat="45.53845" lon="5.94969">
        <ele>348.69</ele>
        <time>2019-09-15T08:53:41.000Z</time>
      </trkpt>
      <trkpt lat="45.53861" lon="5.94962">
        <ele>351.9</ele>
        <time>2019-09-15T08:53:46.000Z</time>
      </trkpt>
      <trkpt lat="45.53878" lon="5.94961">
        <ele>354.17</ele>
        <time>2019-09-15T08:53:51.000Z</time>
      </trkpt>
      <trkpt lat="45.53896" lon="5.94948">
        <ele>353.9</ele>
        <time>2019-09-15T08:53:56.000Z</time>
      </trkpt>
      <trkpt lat="45.53913" lon="5.94934">
        <ele>354.47</ele>
        <time>2019-09-15T08:54:01.000Z</time>
      </trkpt>
      <trkpt lat="45.53931" lon="5.94919">
        <ele>358.12</ele>
        <time>2019-09-15T08:54:06.000Z</time>
      </trkpt>
      <trkpt lat="45.53951" lon="5.94907">
        <ele>359.32</ele>
        <time>2019-09-15T08:54:11.000Z</time>
      </trkpt>
      <trkpt lat="45.53972" lon="5.94901">
        <ele>358.57</ele>
        <time>2019-09-15T08:54:16.000Z</time>
      </trkpt>
      <trkpt lat="45.53992" lon="5.94898">
        <ele>356.34</ele>
        <time>2019-09-15T08:54:21.000Z</time>
      </trkpt>
      <trkpt lat="45.54015" lon="5.94891">
        <ele>360.31</ele>
        <time>2019-09-15T08:54:26.000Z</time>
      </trkpt>
      <trkpt lat="45.54037" lon="5.94885">
        <ele>362.15</ele>
        <time>2019-09-15T08:54:31.000Z</time>
      </trkpt>
      <trkpt lat="45.54066" lon="5.94877">
        <ele>360.93</ele>
        <time>2019-09-15T08:54:36.000Z</time>
      </trkpt>
      <trkpt lat="45.54084" lon="5.94856">
        <ele>362.8</ele>
        <time>2019-09-15T08:54:41.000Z</time>
      </trkpt>
      <trkpt lat="45.54097" lon="5.94829">
        <ele>365.58</ele>
        <time>2019-09-15T08:54:46.000Z</time>
      </trkpt>
      <trkpt lat="45.54108" lon="5.948">
        <ele>368.5</ele>
        <time>2019-09-15T08:54:51.000Z</time>
      </trkpt>
      <trkpt lat="45.54117" lon="5.94771">
        <ele>372.94</ele>
        <time>2019-09-15T08:54:56.000Z</time>
      </trkpt>
      <trkpt lat="45.54136" lon="5.94764">
        <ele>374.19</ele>
        <time>2019-09-15T08:55:01.000Z</time>
      </trkpt>
      <trkpt lat="45.5416" lon="5.94771">
        <ele>372.38</ele>
        <time>2019-09-15T08:55:06.000Z</time>
      </trkpt>
      <trkpt lat="45.54181" lon="5.94774">
        <ele>373.77</ele>
        <time>2019-09-15T08:55:11.000Z</time>
      </trkpt>
      <trkpt lat="45.54202" lon="5.94771">
        <ele>377.53</ele>
        <time>2019-09-15T08:55:16.000Z</time>
      </trkpt>
      <trkpt lat="45.54236" lon="5.94764">
        <ele>377.18</ele>
        <time>2019-09-15T08:55:21.000Z</time>
      </trkpt>
      <trkpt lat="45.54279" lon="5.94755">
        <ele>378.7</ele>
        <time>2019-09-15T08:55:26.000Z</time>
      </trkpt>
      <trkpt lat="45.54315" lon="5.94751">
        <ele>377.91</ele>
        <time>2019-09-15T08:55:31.000Z</time>
      </trkpt>
      <trkpt lat="45.54346" lon="5.94745">
        <ele>376.2</ele>
        <time>2019-09-15T08:55:36.000Z</time>
      </trkpt>
      <trkpt lat="45.5438" lon="5.9474">
        <ele>376.78</ele>
        <time>2019-09-15T08:55:41.000Z</time>
      </trkpt>
      <trkpt lat="45.54425" lon="5.94739">
        <ele>374.05</ele>
        <time>2019-09-15T08:55:46.000Z</time>
      </trkpt>
      <trkpt lat="45.5447" lon="5.94736">
        <ele>373.66</ele>
        <time>2019-09-15T08:55:51.000Z</time>
      </trkpt>
      <trkpt lat="45.54501" lon="5.94734">
        <ele>374.21</ele>
        <time>2019-09-15T08:55:56.000Z</time>
      </trkpt>
      <trkpt lat="45.54533" lon="5.94735">
        <ele>375.11</ele>
        <time>2019-09-15T08:56:01.000Z</time>
      </trkpt>
      <trkpt lat="45.54569" lon="5.94738">
        <ele>376.02</ele>
        <time>2019-09-15T08:56:06.000Z</time>
      </trkpt>
      <trkpt lat="45.54595" lon="5.94736">
        <ele>374.1</ele>
        <time>2019-09-15T08:56:11.000Z</time>
      </trkpt>
      <trkpt lat="45.54628" lon="5.94735">
        <ele>373.6</ele>
        <time>2019-09-15T08:56:16.000Z</time>
      </trkpt>
      <trkpt lat="45.54655" lon="5.94728">
        <ele>374.99</ele>
        <time>2019-09-15T08:56:21.000Z</time>
      </trkpt>
      <trkpt lat="45.54683" lon="5.94725">
        <ele>375.79</ele>
        <time>2019-09-15T08:56:26.000Z</time>
      </trkpt>
      <trkpt lat="45.54713" lon="5.94719">
        <ele>377.6</ele>
        <time>2019-09-15T08:56:31.000Z</time>
      </trkpt>
      <trkpt lat="45.54737" lon="5.94716">
        <ele>378.48</ele>
        <time>2019-09-15T08:56:36.000Z</time>
      </trkpt>
      <trkpt lat="45.5476" lon="5.94711">
        <ele>379.17</ele>
        <time>2019-09-15T08:56:41.000Z</time>
      </trkpt>
      <trkpt lat="45.54777" lon="5.94706">
        <ele>381.94</ele>
        <time>2019-09-15T08:56:46.000Z</time>
      </trkpt>
      <trkpt lat="45.54796" lon="5.94699">
        <ele>380.74</ele>
        <time>2019-09-15T08:56:51.000Z</time>
      </trkpt>
      <trkpt lat="45.54815" lon="5.9469">
        <ele>380.56</ele>
        <time>2019-09-15T08:56:56.000Z</time>
      </trkpt>
      <trkpt lat="45.54845" lon="5.94672">
        <ele>380.85</ele>
        <time>2019-09-15T08:57:01.000Z</time>
      </trkpt>
      <trkpt lat="45.54874" lon="5.94654">
        <ele>375.17</ele>
        <time>2019-09-15T08:57:06.000Z</time>
      </trkpt>
      <trkpt lat="45.54909" lon="5.94642">
        <ele>372.46</ele>
        <time>2019-09-15T08:57:11.000Z</time>
      </trkpt>
      <trkpt lat="45.54944" lon="5.94647">
        <ele>371.46</ele>
        <time>2019-09-15T08:57:16.000Z</time>
      </trkpt>
      <trkpt lat="45.5498" lon="5.94658">
        <ele>369.67</ele>
        <time>2019-09-15T08:57:21.000Z</time>
      </trkpt>
      <trkpt lat="45.55026" lon="5.94645">
        <ele>367.69</ele>
        <time>2019-09-15T08:57:26.000Z</time>
      </trkpt>
      <trkpt lat="45.55078" lon="5.94638">
        <ele>364.38</ele>
        <time>2019-09-15T08:57:31.000Z</time>
      </trkpt>
      <trkpt lat="45.55123" lon="5.94623">
        <ele>363.88</ele>
        <time>2019-09-15T08:57:36.000Z</time>
      </trkpt>
      <trkpt lat="45.55144" lon="5.9457">
        <ele>362.78</ele>
        <time>2019-09-15T08:57:41.000Z</time>
      </trkpt>
      <trkpt lat="45.55158" lon="5.94504">
        <ele>359.19</ele>
        <time>2019-09-15T08:57:46.000Z</time>
      </trkpt>
      <trkpt lat="45.5516" lon="5.94421">
        <ele>355.13</ele>
        <time>2019-09-15T08:57:51.000Z</time>
      </trkpt>
      <trkpt lat="45.5515" lon="5.94358">
        <ele>351.65</ele>
        <time>2019-09-15T08:57:56.000Z</time>
      </trkpt>
      <trkpt lat="45.55137" lon="5.9429">
        <ele>345.62</ele>
        <time>2019-09-15T08:58:01.000Z</time>
      </trkpt>
      <trkpt lat="45.55104" lon="5.94214">
        <ele>345.09</ele>
        <time>2019-09-15T08:58:06.000Z</time>
      </trkpt>
      <trkpt lat="45.5513" lon="5.94147">
        <ele>340.56</ele>
        <time>2019-09-15T08:58:11.000Z</time>
      </trkpt>
      <trkpt lat="45.55176" lon="5.94131">
        <ele>338.19</ele>
        <time>2019-09-15T08:58:16.000Z</time>
      </trkpt>
      <trkpt lat="45.55227" lon="5.94134">
        <ele>340.36</ele>
        <time>2019-09-15T08:58:21.000Z</time>
      </trkpt>
      <trkpt lat="45.5527" lon="5.94124">
        <ele>338.72</ele>
        <time>2019-09-15T08:58:26.000Z</time>
      </trkpt>
      <trkpt lat="45.55323" lon="5.94103">
        <ele>335.64</ele>
        <time>2019-09-15T08:58:31.000Z</time>
      </trkpt>
      <trkpt lat="45.55371" lon="5.94092">
        <ele>335.2</ele>
        <time>2019-09-15T08:58:36.000Z</time>
      </trkpt>
      <trkpt lat="45.55419" lon="5.94104">
        <ele>329.67</ele>
        <time>2019-09-15T08:58:41.000Z</time>
      </trkpt>
      <trkpt lat="45.55471" lon="5.94099">
        <ele>328.14</ele>
        <time>2019-09-15T08:58:46.000Z</time>
      </trkpt>
      <trkpt lat="45.55512" lon="5.94085">
        <ele>329.39</ele>
        <time>2019-09-15T08:58:51.000Z</time>
      </trkpt>
      <trkpt lat="45.55545" lon="5.94078">
        <ele>329.26</ele>
        <time>2019-09-15T08:58:56.000Z</time>
      </trkpt>
      <trkpt lat="45.55577" lon="5.94068">
        <ele>328.46</ele>
        <time>2019-09-15T08:59:01.000Z</time>
      </trkpt>
      <trkpt lat="45.55604" lon="5.94064">
        <ele>326.28</ele>
        <time>2019-09-15T08:59:06.000Z</time>
      </trkpt>
      <trkpt lat="45.5563" lon="5.94057">
        <ele>326.41</ele>
        <time>2019-09-15T08:59:11.000Z</time>
      </trkpt>
      <trkpt lat="45.55662" lon="5.94053">
        <ele>324.77</ele>
        <time>2019-09-15T08:59:16.000Z</time>
      </trkpt>
      <trkpt lat="45.55696" lon="5.94039">
        <ele>322.96</ele>
        <time>2019-09-15T08:59:21.000Z</time>
      </trkpt>
      <trkpt lat="45.55738" lon="5.94018">
        <ele>320.65</ele>
        <time>2019-09-15T08:59:26.000Z</time>
      </trkpt>
      <trkpt lat="45.55773" lon="5.93988">
        <ele>319.53</ele>
        <time>2019-09-15T08:59:31.000Z</time>
      </trkpt>
      <trkpt lat="45.55802" lon="5.93977">
        <ele>321.16</ele>
        <time>2019-09-15T08:59:36.000Z</time>
      </trkpt>
      <trkpt lat="45.55834" lon="5.93971">
        <ele>320.88</ele>
        <time>2019-09-15T08:59:41.000Z</time>
      </trkpt>
      <trkpt lat="45.55856" lon="5.93948">
        <ele>321.73</ele>
        <time>2019-09-15T08:59:46.000Z</time>
      </trkpt>
      <trkpt lat="45.5587" lon="5.93916">
        <ele>320.55</ele>
        <time>2019-09-15T08:59:51.000Z</time>
      </trkpt>
      <trkpt lat="45.55889" lon="5.93898">
        <ele>320.96</ele>
        <time>2019-09-15T08:59:56.000Z</time>
      </trkpt>
      <trkpt lat="45.55921" lon="5.93898">
        <ele>320.68</ele>
        <time>2019-09-15T09:00:01.000Z</time>
      </trkpt>
      <trkpt lat="45.55942" lon="5.9389">
        <ele>319.99</ele>
        <time>2019-09-15T09:00:06.000Z</time>
      </trkpt>
      <trkpt lat="45.55972" lon="5.93865">
        <ele>315.53</ele>
        <time>2019-09-15T09:00:11.000Z</time>
      </trkpt>
      <trkpt lat="45.56003" lon="5.93839">
        <ele>318.02</ele>
        <time>2019-09-15T09:00:16.000Z</time>
      </trkpt>
      <trkpt lat="45.56032" lon="5.93812">
        <ele>318.96</ele>
        <time>2019-09-15T09:00:21.000Z</time>
      </trkpt>
      <trkpt lat="45.5606" lon="5.93778">
        <ele>322.17</ele>
        <time>2019-09-15T09:00:26.000Z</time>
      </trkpt>
      <trkpt lat="45.56084" lon="5.93746">
        <ele>317.99</ele>
        <time>2019-09-15T09:00:31.000Z</time>
      </trkpt>
      <trkpt lat="45.56099" lon="5.93704">
        <ele>315.93</ele>
        <time>2019-09-15T09:00:36.000Z</time>
      </trkpt>
      <trkpt lat="45.5612" lon="5.93676">
        <ele>312.18</ele>
        <time>2019-09-15T09:00:41.000Z</time>
      </trkpt>
      <trkpt lat="45.56129" lon="5.93643">
        <ele>316.25</ele>
        <time>2019-09-15T09:00:46.000Z</time>
      </trkpt>
      <trkpt lat="45.56127" lon="5.93597">
        <ele>315.64</ele>
        <time>2019-09-15T09:00:51.000Z</time>
      </trkpt>
      <trkpt lat="45.56111" lon="5.93562">
        <ele>311.35</ele>
        <time>2019-09-15T09:00:56.000Z</time>
      </trkpt>
      <trkpt lat="45.56066" lon="5.93527">
        <ele>309.53</ele>
        <time>2019-09-15T09:01:01.000Z</time>
      </trkpt>
      <trkpt lat="45.56031" lon="5.93476">
        <ele>306.37</ele>
        <time>2019-09-15T09:01:06.000Z</time>
      </trkpt>
      <trkpt lat="45.56021" lon="5.93401">
        <ele>305.59</ele>
        <time>2019-09-15T09:01:11.000Z</time>
      </trkpt>
      <trkpt lat="45.56026" lon="5.9333">
        <ele>305.35</ele>
        <time>2019-09-15T09:01:16.000Z</time>
      </trkpt>
      <trkpt lat="45.56045" lon="5.93259">
        <ele>304.51</ele>
        <time>2019-09-15T09:01:21.000Z</time>
      </trkpt>
      <trkpt lat="45.56046" lon="5.93199">
        <ele>302.56</ele>
        <time>2019-09-15T09:01:26.000Z</time>
      </trkpt>
      <trkpt lat="45.56043" lon="5.93142">
        <ele>299.62</ele>
        <time>2019-09-15T09:01:31.000Z</time>
      </trkpt>
      <trkpt lat="45.56074" lon="5.93107">
        <ele>295.61</ele>
        <time>2019-09-15T09:01:36.000Z</time>
      </trkpt>
      <trkpt lat="45.56086" lon="5.93082">
        <ele>293.68</ele>
        <time>2019-09-15T09:01:41.000Z</time>
      </trkpt>
      <trkpt lat="45.56091" lon="5.93067">
        <ele>292.03</ele>
        <time>2019-09-15T09:01:46.000Z</time>
      </trkpt>
      <trkpt lat="45.56094" lon="5.93052">
        <ele>293.99</ele>
        <time>2019-09-15T09:01:51.000Z</time>
      </trkpt>
      <trkpt lat="45.56105" lon="5.93043">
        <ele>294.88</ele>
        <time>2019-09-15T09:01:56.000Z</time>
      </trkpt>
      <trkpt lat="45.56121" lon="5.93025">
        <ele>295.69</ele>
        <time>2019-09-15T09:02:01.000Z</time>
      </trkpt>
      <trkpt lat="45.5613" lon="5.93002">
        <ele>299.27</ele>
        <time>2019-09-15T09:02:06.000Z</time>
      </trkpt>
      <trkpt lat="45.56138" lon="5.92985">
        <ele>298.73</ele>
        <time>2019-09-15T09:02:11.000Z</time>
      </trkpt>
      <trkpt lat="45.56147" lon="5.92973">
        <ele>301.56</ele>
        <time>2019-09-15T09:02:16.000Z</time>
      </trkpt>
      <trkpt lat="45.5616" lon="5.92956">
        <ele>301.24</ele>
        <time>2019-09-15T09:02:21.000Z</time>
      </trkpt>
      <trkpt lat="45.56173" lon="5.92938">
        <ele>303.4</ele>
        <time>2019-09-15T09:02:26.000Z</time>
      </trkpt>
      <trkpt lat="45.56186" lon="5.9292">
        <ele>301.86</ele>
        <time>2019-09-15T09:02:31.000Z</time>
      </trkpt>
      <trkpt lat="45.5619" lon="5.9289">
        <ele>300.25</ele>
        <time>2019-09-15T09:02:36.000Z</time>
      </trkpt>
      <trkpt lat="45.56184" lon="5.92857">
        <ele>304.79</ele>
        <time>2019-09-15T09:02:41.000Z</time>
      </trkpt>
      <trkpt lat="45.56186" lon="5.92822">
        <ele>306.12</ele>
        <time>2019-09-15T09:02:46.000Z</time>
      </trkpt>
      <trkpt lat="45.56182" lon="5.92791">
        <ele>309.32</ele>
        <time>2019-09-15T09:02:51.000Z</time>
      </trkpt>
      <trkpt lat="45.56177" lon="5.92763">
        <ele>313.78</ele>
        <time>2019-09-15T09:02:56.000Z</time>
      </trkpt>
      <trkpt lat="45.56172" lon="5.92737">
        <ele>310.41</ele>
        <time>2019-09-15T09:03:01.000Z</time>
      </trkpt>
      <trkpt lat="45.5616" lon="5.92713">
        <ele>312.43</ele>
        <time>2019-09-15T09:03:06.000Z</time>
      </trkpt>
      <trkpt lat="45.56145" lon="5.92692">
        <ele>312.89</ele>
        <time>2019-09-15T09:03:11.000Z</time>
      </trkpt>
      <trkpt lat="45.5613" lon="5.92672">
        <ele>315.42</ele>
        <time>2019-09-15T09:03:16.000Z</time>
      </trkpt>
      <trkpt lat="45.56116" lon="5.92653">
        <ele>318.24</ele>
        <time>2019-09-15T09:03:21.000Z</time>
      </trkpt>
      <trkpt lat="45.56102" lon="5.92636">
        <ele>319.56</ele>
        <time>2019-09-15T09:03:26.000Z</time>
      </trkpt>
      <trkpt lat="45.56085" lon="5.92618">
        <ele>319.64</ele>
        <time>2019-09-15T09:03:31.000Z</time>
      </trkpt>
      <trkpt lat="45.5607" lon="5.92598">
        <ele>319.78</ele>
        <time>2019-09-15T09:03:36.000Z</time>
      </trkpt>
      <trkpt lat="45.56063" lon="5.92572">
        <ele>317.03</ele>
        <time>2019-09-15T09:03:41.000Z</time>
      </trkpt>
      <trkpt lat="45.56057" lon="5.92547">
        <ele>318.49</ele>
        <time>2019-09-15T09:03:46.000Z</time>
      </trkpt>
      <trkpt lat="45.56048" lon="5.92521">
        <ele>322.99</ele>
        <time>2019-09-15T09:03:51.000Z</time>
      </trkpt>
      <trkpt lat="45.56037" lon="5.92496">
        <ele>325.54</ele>
        <time>2019-09-15T09:03:56.000Z</time>
      </trkpt>
      <trkpt lat="45.5602" lon="5.92472">
        <ele>326.11</ele>
        <time>2019-09-15T09:04:01.000Z</time>
      </trkpt>
      <trkpt lat="45.56009" lon="5.9245">
        <ele>327.75</ele>
        <time>2019-09-15T09:04:06.000Z</time>
      </trkpt>
      <trkpt lat="45.55998" lon="5.92423">
        <ele>329.64</ele>
        <time>2019-09-15T09:04:11.000Z</time>
      </trkpt>
      <trkpt lat="45.5599" lon="5.92396">
        <ele>328.01</ele>
        <time>2019-09-15T09:04:16.000Z</time>
      </trkpt>
      <trkpt lat="45.55984" lon="5.92369">
        <ele>328.96</ele>
        <time>2019-09-15T09:04:21.000Z</time>
      </trkpt>
      <trkpt lat="45.55978" lon="5.92347">
        <ele>328.93</ele>
        <time>2019-09-15T09:04:26.000Z</time>
      </trkpt>
      <trkpt lat="45.55967" lon="5.92314">
        <ele>332.29</ele>
        <time>2019-09-15T09:04:31.000Z</time>
      </trkpt>
      <trkpt lat="45.55949" lon="5.92286">
        <ele>334.9</ele>
        <time>2019-09-15T09:04:36.000Z</time>
      </trkpt>
      <trkpt lat="45.55941" lon="5.92268">
        <ele>333.9</ele>
        <time>2019-09-15T09:04:41.000Z</time>
      </trkpt>
      <trkpt lat="45.55929" lon="5.9225">
        <ele>334.57</ele>
        <time>2019-09-15T09:04:46.000Z</time>
      </trkpt>
      <trkpt lat="45.55917" lon="5.92235">
        <ele>335.71</ele>
        <time>2019-09-15T09:04:51.000Z</time>
      </trkpt>
      <trkpt lat="45.55922" lon="5.92213">
        <ele>336.81</ele>
        <time>2019-09-15T09:04:56.000Z</time>
      </trkpt>
      <trkpt lat="45.55934" lon="5.92204">
        <ele>338.32</ele>
        <time>2019-09-15T09:05:01.000Z</time>
      </trkpt>
      <trkpt lat="45.55942" lon="5.92195">
        <ele>341.4</ele>
        <time>2019-09-15T09:05:07.000Z</time>
      </trkpt>
      <trkpt lat="45.55957" lon="5.92186">
        <ele>339.94</ele>
        <time>2019-09-15T09:05:12.000Z</time>
      </trkpt>
      <trkpt lat="45.55979" lon="5.92166">
        <ele>342.71</ele>
        <time>2019-09-15T09:05:17.000Z</time>
      </trkpt>
      <trkpt lat="45.55994" lon="5.92135">
        <ele>344.3</ele>
        <time>2019-09-15T09:05:22.000Z</time>
      </trkpt>
      <trkpt lat="45.56003" lon="5.92099">
        <ele>346.14</ele>
        <time>2019-09-15T09:05:27.000Z</time>
      </trkpt>
      <trkpt lat="45.56003" lon="5.92053">
        <ele>349.06</ele>
        <time>2019-09-15T09:05:32.000Z</time>
      </trkpt>
      <trkpt lat="45.55999" lon="5.92014">
        <ele>349.29</ele>
        <time>2019-09-15T09:05:37.000Z</time>
      </trkpt>
      <trkpt lat="45.56003" lon="5.9196">
        <ele>347.62</ele>
        <time>2019-09-15T09:05:42.000Z</time>
      </trkpt>
      <trkpt lat="45.56006" lon="5.91908">
        <ele>347.32</ele>
        <time>2019-09-15T09:05:47.000Z</time>
      </trkpt>
      <trkpt lat="45.56003" lon="5.91851">
        <ele>348.56</ele>
        <time>2019-09-15T09:05:52.000Z</time>
      </trkpt>
      <trkpt lat="45.56009" lon="5.91795">
        <ele>344.57</ele>
        <time>2019-09-15T09:05:57.000Z</time>
      </trkpt>
      <trkpt lat="45.56005" lon="5.91728">
        <ele>343.4</ele>
        <time>2019-09-15T09:06:02.000Z</time>
      </trkpt>
      <trkpt lat="45.56027" lon="5.91699">
        <ele>343.81</ele>
        <time>2019-09-15T09:06:07.000Z</time>
      </trkpt>
      <trkpt lat="45.56056" lon="5.91696">
        <ele>342.45</ele>
        <time>2019-09-15T09:06:12.000Z</time>
      </trkpt>
      <trkpt lat="45.56081" lon="5.91732">
        <ele>333.58</ele>
        <time>2019-09-15T09:06:17.000Z</time>
      </trkpt>
      <trkpt lat="45.56074" lon="5.91719">
        <ele>331.73</ele>
        <time>2019-09-15T09:06:26.000Z</time>
      </trkpt>
      <trkpt lat="45.56062" lon="5.91708">
        <ele>328.98</ele>
        <time>2019-09-15T09:06:31.000Z</time>
      </trkpt>
      <trkpt lat="45.56042" lon="5.91702">
        <ele>332.88</ele>
        <time>2019-09-15T09:06:36.000Z</time>
      </trkpt>
      <trkpt lat="45.56025" lon="5.917">
        <ele>334.08</ele>
        <time>2019-09-15T09:06:41.000Z</time>
      </trkpt>
      <trkpt lat="45.5602" lon="5.9168">
        <ele>329.77</ele>
        <time>2019-09-15T09:06:46.000Z</time>
      </trkpt>
      <trkpt lat="45.56026" lon="5.91667">
        <ele>331.99</ele>
        <time>2019-09-15T09:07:01.000Z</time>
      </trkpt>
      <trkpt lat="45.56027" lon="5.91641">
        <ele>329.21</ele>
        <time>2019-09-15T09:07:06.000Z</time>
      </trkpt>
      <trkpt lat="45.56028" lon="5.91611">
        <ele>327.8</ele>
        <time>2019-09-15T09:07:11.000Z</time>
      </trkpt>
      <trkpt lat="45.56048" lon="5.91616">
        <ele>324.6</ele>
        <time>2019-09-15T09:07:16.000Z</time>
      </trkpt>
      <trkpt lat="45.56058" lon="5.91653">
        <ele>325.27</ele>
        <time>2019-09-15T09:07:21.000Z</time>
      </trkpt>
      <trkpt lat="45.56088" lon="5.91634">
        <ele>324.35</ele>
        <time>2019-09-15T09:07:26.000Z</time>
      </trkpt>
      <trkpt lat="45.56077" lon="5.91598">
        <ele>324.93</ele>
        <time>2019-09-15T09:07:31.000Z</time>
      </trkpt>
      <trkpt lat="45.56065" lon="5.91558">
        <ele>325.05</ele>
        <time>2019-09-15T09:07:36.000Z</time>
      </trkpt>
      <trkpt lat="45.56073" lon="5.91547">
        <ele>325.66</ele>
        <time>2019-09-15T09:07:41.000Z</time>
      </trkpt>
      <trkpt lat="45.56101" lon="5.91553">
        <ele>325.66</ele>
        <time>2019-09-15T09:07:46.000Z</time>
      </trkpt>
      <trkpt lat="45.56131" lon="5.91564">
        <ele>323.78</ele>
        <time>2019-09-15T09:07:51.000Z</time>
      </trkpt>
      <trkpt lat="45.56159" lon="5.91564">
        <ele>324.63</ele>
        <time>2019-09-15T09:07:56.000Z</time>
      </trkpt>
      <trkpt lat="45.56191" lon="5.91562">
        <ele>316.09</ele>
        <time>2019-09-15T09:08:01.000Z</time>
      </trkpt>
      <trkpt lat="45.56218" lon="5.91554">
        <ele>312.05</ele>
        <time>2019-09-15T09:08:06.000Z</time>
      </trkpt>
      <trkpt lat="45.56246" lon="5.91543">
        <ele>309.22</ele>
        <time>2019-09-15T09:08:11.000Z</time>
      </trkpt>
      <trkpt lat="45.56237" lon="5.91512">
        <ele>305.18</ele>
        <time>2019-09-15T09:08:16.000Z</time>
      </trkpt>
      <trkpt lat="45.56216" lon="5.91468">
        <ele>302.68</ele>
        <time>2019-09-15T09:08:21.000Z</time>
      </trkpt>
      <trkpt lat="45.56188" lon="5.91432">
        <ele>298.73</ele>
        <time>2019-09-15T09:08:26.000Z</time>
      </trkpt>
      <trkpt lat="45.56156" lon="5.91408">
        <ele>296.82</ele>
        <time>2019-09-15T09:08:31.000Z</time>
      </trkpt>
      <trkpt lat="45.56138" lon="5.91369">
        <ele>295.31</ele>
        <time>2019-09-15T09:08:36.000Z</time>
      </trkpt>
      <trkpt lat="45.56123" lon="5.91329">
        <ele>295.77</ele>
        <time>2019-09-15T09:08:41.000Z</time>
      </trkpt>
      <trkpt lat="45.56112" lon="5.91298">
        <ele>293.7</ele>
        <time>2019-09-15T09:08:46.000Z</time>
      </trkpt>
      <trkpt lat="45.561" lon="5.91272">
        <ele>294.33</ele>
        <time>2019-09-15T09:08:51.000Z</time>
      </trkpt>
      <trkpt lat="45.56091" lon="5.91232">
        <ele>296.39</ele>
        <time>2019-09-15T09:08:56.000Z</time>
      </trkpt>
      <trkpt lat="45.56062" lon="5.91198">
        <ele>296.23</ele>
        <time>2019-09-15T09:09:01.000Z</time>
      </trkpt>
      <trkpt lat="45.56053" lon="5.9116">
        <ele>294.62</ele>
        <time>2019-09-15T09:09:06.000Z</time>
      </trkpt>
      <trkpt lat="45.56043" lon="5.91126">
        <ele>289.45</ele>
        <time>2019-09-15T09:09:11.000Z</time>
      </trkpt>
      <trkpt lat="45.56053" lon="5.91078">
        <ele>286.82</ele>
        <time>2019-09-15T09:09:16.000Z</time>
      </trkpt>
      <trkpt lat="45.56061" lon="5.91039">
        <ele>283.48</ele>
        <time>2019-09-15T09:09:21.000Z</time>
      </trkpt>
      <trkpt lat="45.56053" lon="5.90997">
        <ele>284.35</ele>
        <time>2019-09-15T09:09:26.000Z</time>
      </trkpt>
      <trkpt lat="45.56045" lon="5.90957">
        <ele>287.46</ele>
        <time>2019-09-15T09:09:31.000Z</time>
      </trkpt>
      <trkpt lat="45.56051" lon="5.90917">
        <ele>285.53</ele>
        <time>2019-09-15T09:09:36.000Z</time>
      </trkpt>
      <trkpt lat="45.56049" lon="5.90876">
        <ele>287.07</ele>
        <time>2019-09-15T09:09:41.000Z</time>
      </trkpt>
      <trkpt lat="45.56046" lon="5.90837">
        <ele>284.54</ele>
        <time>2019-09-15T09:09:46.000Z</time>
      </trkpt>
      <trkpt lat="45.56039" lon="5.908">
        <ele>281.44</ele>
        <time>2019-09-15T09:09:51.000Z</time>
      </trkpt>
      <trkpt lat="45.56038" lon="5.90767">
        <ele>283.82</ele>
        <time>2019-09-15T09:09:56.000Z</time>
      </trkpt>
      <trkpt lat="45.56034" lon="5.90749">
        <ele>287.72</ele>
        <time>2019-09-15T09:10:01.000Z</time>
      </trkpt>
      <trkpt lat="45.56024" lon="5.90741">
        <ele>293.12</ele>
        <time>2019-09-15T09:10:06.000Z</time>
      </trkpt>
      <trkpt lat="45.56018" lon="5.90728">
        <ele>293</ele>
        <time>2019-09-15T09:10:12.000Z</time>
      </trkpt>
      <trkpt lat="45.56012" lon="5.90716">
        <ele>296.44</ele>
        <time>2019-09-15T09:10:17.000Z</time>
      </trkpt>
      <trkpt lat="45.56004" lon="5.90693">
        <ele>297.72</ele>
        <time>2019-09-15T09:10:22.000Z</time>
      </trkpt>
      <trkpt lat="45.55993" lon="5.90672">
        <ele>301.21</ele>
        <time>2019-09-15T09:10:27.000Z</time>
      </trkpt>
      <trkpt lat="45.55986" lon="5.90653">
        <ele>301.99</ele>
        <time>2019-09-15T09:10:32.000Z</time>
      </trkpt>
      <trkpt lat="45.55985" lon="5.90627">
        <ele>302.24</ele>
        <time>2019-09-15T09:10:37.000Z</time>
      </trkpt>
      <trkpt lat="45.55988" lon="5.90613">
        <ele>304.86</ele>
        <time>2019-09-15T09:10:43.000Z</time>
      </trkpt>
      <trkpt lat="45.55978" lon="5.90607">
        <ele>303.32</ele>
        <time>2019-09-15T09:10:49.000Z</time>
      </trkpt>
      <trkpt lat="45.55964" lon="5.90595">
        <ele>303.81</ele>
        <time>2019-09-15T09:10:54.000Z</time>
      </trkpt>
      <trkpt lat="45.55957" lon="5.9058">
        <ele>303.79</ele>
        <time>2019-09-15T09:10:59.000Z</time>
      </trkpt>
      <trkpt lat="45.55954" lon="5.90563">
        <ele>300.47</ele>
        <time>2019-09-15T09:11:04.000Z</time>
      </trkpt>
      <trkpt lat="45.5595" lon="5.90545">
        <ele>300.9</ele>
        <time>2019-09-15T09:11:09.000Z</time>
      </trkpt>
      <trkpt lat="45.5594" lon="5.90526">
        <ele>300.97</ele>
        <time>2019-09-15T09:11:14.000Z</time>
      </trkpt>
      <trkpt lat="45.55926" lon="5.90501">
        <ele>301.92</ele>
        <time>2019-09-15T09:11:19.000Z</time>
      </trkpt>
      <trkpt lat="45.5591" lon="5.90474">
        <ele>301.49</ele>
        <time>2019-09-15T09:11:24.000Z</time>
      </trkpt>
      <trkpt lat="45.55895" lon="5.90445">
        <ele>300.67</ele>
        <time>2019-09-15T09:11:29.000Z</time>
      </trkpt>
      <trkpt lat="45.55891" lon="5.90432">
        <ele>302.27</ele>
        <time>2019-09-15T09:11:34.000Z</time>
      </trkpt>
      <trkpt lat="45.55893" lon="5.90398">
        <ele>299.87</ele>
        <time>2019-09-15T09:11:39.000Z</time>
      </trkpt>
      <trkpt lat="45.55911" lon="5.90368">
        <ele>296.35</ele>
        <time>2019-09-15T09:11:44.000Z</time>
      </trkpt>
      <trkpt lat="45.55931" lon="5.90342">
        <ele>293.9</ele>
        <time>2019-09-15T09:11:49.000Z</time>
      </trkpt>
      <trkpt lat="45.55952" lon="5.90331">
        <ele>293.25</ele>
        <time>2019-09-15T09:11:54.000Z</time>
      </trkpt>
      <trkpt lat="45.55967" lon="5.90331">
        <ele>291.34</ele>
        <time>2019-09-15T09:11:59.000Z</time>
      </trkpt>
      <trkpt lat="45.55996" lon="5.90325">
        <ele>294.75</ele>
        <time>2019-09-15T09:12:04.000Z</time>
      </trkpt>
      <trkpt lat="45.56027" lon="5.90318">
        <ele>299</ele>
        <time>2019-09-15T09:12:09.000Z</time>
      </trkpt>
      <trkpt lat="45.56054" lon="5.90314">
        <ele>299.3</ele>
        <time>2019-09-15T09:12:14.000Z</time>
      </trkpt>
      <trkpt lat="45.56081" lon="5.90306">
        <ele>304.96</ele>
        <time>2019-09-15T09:12:19.000Z</time>
      </trkpt>
      <trkpt lat="45.56106" lon="5.90298">
        <ele>304.03</ele>
        <time>2019-09-15T09:12:24.000Z</time>
      </trkpt>
      <trkpt lat="45.56136" lon="5.90285">
        <ele>301.48</ele>
        <time>2019-09-15T09:12:29.000Z</time>
      </trkpt>
      <trkpt lat="45.56162" lon="5.90263">
        <ele>305.13</ele>
        <time>2019-09-15T09:12:34.000Z</time>
      </trkpt>
      <trkpt lat="45.56179" lon="5.90239">
        <ele>306.46</ele>
        <time>2019-09-15T09:12:39.000Z</time>
      </trkpt>
      <trkpt lat="45.56197" lon="5.9022">
        <ele>300.54</ele>
        <time>2019-09-15T09:12:44.000Z</time>
      </trkpt>
      <trkpt lat="45.56227" lon="5.90196">
        <ele>298.64</ele>
        <time>2019-09-15T09:12:49.000Z</time>
      </trkpt>
      <trkpt lat="45.56252" lon="5.90179">
        <ele>304.77</ele>
        <time>2019-09-15T09:12:54.000Z</time>
      </trkpt>
      <trkpt lat="45.56261" lon="5.90169">
        <ele>304.34</ele>
        <time>2019-09-15T09:12:59.000Z</time>
      </trkpt>
      <trkpt lat="45.56246" lon="5.9014">
        <ele>303.93</ele>
        <time>2019-09-15T09:13:04.000Z</time>
      </trkpt>
      <trkpt lat="45.56236" lon="5.90111">
        <ele>302.29</ele>
        <time>2019-09-15T09:13:09.000Z</time>
      </trkpt>
      <trkpt lat="45.56209" lon="5.90101">
        <ele>299.02</ele>
        <time>2019-09-15T09:13:14.000Z</time>
      </trkpt>
      <trkpt lat="45.56201" lon="5.90085">
        <ele>292.41</ele>
        <time>2019-09-15T09:13:19.000Z</time>
      </trkpt>
      <trkpt lat="45.56193" lon="5.90069">
        <ele>289.16</ele>
        <time>2019-09-15T09:13:24.000Z</time>
      </trkpt>
      <trkpt lat="45.56183" lon="5.90053">
        <ele>289.38</ele>
        <time>2019-09-15T09:13:29.000Z</time>
      </trkpt>
      <trkpt lat="45.56176" lon="5.90034">
        <ele>287.5</ele>
        <time>2019-09-15T09:13:34.000Z</time>
      </trkpt>
      <trkpt lat="45.56166" lon="5.90001">
        <ele>287.75</ele>
        <time>2019-09-15T09:13:39.000Z</time>
      </trkpt>
      <trkpt lat="45.5617" lon="5.89964">
        <ele>287.28</ele>
        <time>2019-09-15T09:13:44.000Z</time>
      </trkpt>
      <trkpt lat="45.56169" lon="5.89928">
        <ele>282.08</ele>
        <time>2019-09-15T09:13:49.000Z</time>
      </trkpt>
      <trkpt lat="45.56165" lon="5.89892">
        <ele>283.13</ele>
        <time>2019-09-15T09:13:54.000Z</time>
      </trkpt>
      <trkpt lat="45.56172" lon="5.89877">
        <ele>280.81</ele>
        <time>2019-09-15T09:13:59.000Z</time>
      </trkpt>
      <trkpt lat="45.56166" lon="5.89868">
        <ele>295.15</ele>
        <time>2019-09-15T09:14:15.000Z</time>
      </trkpt>
      <trkpt lat="45.56157" lon="5.89862">
        <ele>294.48</ele>
        <time>2019-09-15T09:14:20.000Z</time>
      </trkpt>
      <trkpt lat="45.56145" lon="5.89848">
        <ele>290.86</ele>
        <time>2019-09-15T09:14:25.000Z</time>
      </trkpt>
      <trkpt lat="45.56132" lon="5.89833">
        <ele>288.37</ele>
        <time>2019-09-15T09:14:30.000Z</time>
      </trkpt>
      <trkpt lat="45.5613" lon="5.89819">
        <ele>289.54</ele>
        <time>2019-09-15T09:14:35.000Z</time>
      </trkpt>
      <trkpt lat="45.56138" lon="5.89802">
        <ele>288.58</ele>
        <time>2019-09-15T09:15:19.000Z</time>
      </trkpt>
      <trkpt lat="45.56155" lon="5.89742">
        <ele>292.47</ele>
        <time>2019-09-15T09:15:24.000Z</time>
      </trkpt>
      <trkpt lat="45.56161" lon="5.89713">
        <ele>293</ele>
        <time>2019-09-15T09:15:29.000Z</time>
      </trkpt>
      <trkpt lat="45.5617" lon="5.89685">
        <ele>288.96</ele>
        <time>2019-09-15T09:15:34.000Z</time>
      </trkpt>
      <trkpt lat="45.56179" lon="5.89651">
        <ele>290.63</ele>
        <time>2019-09-15T09:15:39.000Z</time>
      </trkpt>
      <trkpt lat="45.56188" lon="5.89624">
        <ele>289.8</ele>
        <time>2019-09-15T09:15:44.000Z</time>
      </trkpt>
      <trkpt lat="45.56198" lon="5.89594">
        <ele>289.32</ele>
        <time>2019-09-15T09:15:49.000Z</time>
      </trkpt>
      <trkpt lat="45.56206" lon="5.89563">
        <ele>290.44</ele>
        <time>2019-09-15T09:15:54.000Z</time>
      </trkpt>
      <trkpt lat="45.56215" lon="5.89528">
        <ele>289.42</ele>
        <time>2019-09-15T09:15:59.000Z</time>
      </trkpt>
      <trkpt lat="45.56219" lon="5.89492">
        <ele>287.61</ele>
        <time>2019-09-15T09:16:04.000Z</time>
      </trkpt>
      <trkpt lat="45.56228" lon="5.89455">
        <ele>287.63</ele>
        <time>2019-09-15T09:16:09.000Z</time>
      </trkpt>
      <trkpt lat="45.56231" lon="5.89428">
        <ele>283.88</ele>
        <time>2019-09-15T09:16:14.000Z</time>
      </trkpt>
      <trkpt lat="45.56239" lon="5.89406">
        <ele>284.9</ele>
        <time>2019-09-15T09:16:19.000Z</time>
      </trkpt>
      <trkpt lat="45.56251" lon="5.89384">
        <ele>283.76</ele>
        <time>2019-09-15T09:16:24.000Z</time>
      </trkpt>
      <trkpt lat="45.56277" lon="5.8937">
        <ele>283.06</ele>
        <time>2019-09-15T09:16:29.000Z</time>
      </trkpt>
      <trkpt lat="45.56307" lon="5.89358">
        <ele>282.13</ele>
        <time>2019-09-15T09:16:34.000Z</time>
      </trkpt>
      <trkpt lat="45.56339" lon="5.89353">
        <ele>280.48</ele>
        <time>2019-09-15T09:16:39.000Z</time>
      </trkpt>
      <trkpt lat="45.56376" lon="5.89352">
        <ele>281.34</ele>
        <time>2019-09-15T09:16:44.000Z</time>
      </trkpt>
      <trkpt lat="45.56409" lon="5.89349">
        <ele>282.67</ele>
        <time>2019-09-15T09:16:49.000Z</time>
      </trkpt>
      <trkpt lat="45.56439" lon="5.89346">
        <ele>289.2</ele>
        <time>2019-09-15T09:16:54.000Z</time>
      </trkpt>
      <trkpt lat="45.56458" lon="5.8935">
        <ele>286.57</ele>
        <time>2019-09-15T09:16:59.000Z</time>
      </trkpt>
      <trkpt lat="45.56484" lon="5.8935">
        <ele>288.11</ele>
        <time>2019-09-15T09:17:04.000Z</time>
      </trkpt>
      <trkpt lat="45.56514" lon="5.89346">
        <ele>290.23</ele>
        <time>2019-09-15T09:17:09.000Z</time>
      </trkpt>
      <trkpt lat="45.56544" lon="5.8935">
        <ele>286.03</ele>
        <time>2019-09-15T09:17:14.000Z</time>
      </trkpt>
      <trkpt lat="45.56574" lon="5.89344">
        <ele>284.88</ele>
        <time>2019-09-15T09:17:19.000Z</time>
      </trkpt>
      <trkpt lat="45.56598" lon="5.89333">
        <ele>284.32</ele>
        <time>2019-09-15T09:17:24.000Z</time>
      </trkpt>
      <trkpt lat="45.56625" lon="5.89328">
        <ele>283.18</ele>
        <time>2019-09-15T09:17:29.000Z</time>
      </trkpt>
      <trkpt lat="45.56651" lon="5.89314">
        <ele>284.52</ele>
        <time>2019-09-15T09:17:34.000Z</time>
      </trkpt>
      <trkpt lat="45.5668" lon="5.89307">
        <ele>284.33</ele>
        <time>2019-09-15T09:17:39.000Z</time>
      </trkpt>
      <trkpt lat="45.56702" lon="5.893">
        <ele>279.23</ele>
        <time>2019-09-15T09:17:44.000Z</time>
      </trkpt>
      <trkpt lat="45.56726" lon="5.89291">
        <ele>275.35</ele>
        <time>2019-09-15T09:17:49.000Z</time>
      </trkpt>
      <trkpt lat="45.5675" lon="5.89278">
        <ele>272.64</ele>
        <time>2019-09-15T09:17:54.000Z</time>
      </trkpt>
      <trkpt lat="45.56775" lon="5.89263">
        <ele>272.5</ele>
        <time>2019-09-15T09:17:59.000Z</time>
      </trkpt>
      <trkpt lat="45.56801" lon="5.8925">
        <ele>270.86</ele>
        <time>2019-09-15T09:18:04.000Z</time>
      </trkpt>
      <trkpt lat="45.56826" lon="5.89241">
        <ele>271.21</ele>
        <time>2019-09-15T09:18:09.000Z</time>
      </trkpt>
      <trkpt lat="45.56845" lon="5.89235">
        <ele>270.3</ele>
        <time>2019-09-15T09:18:14.000Z</time>
      </trkpt>
      <trkpt lat="45.56865" lon="5.89214">
        <ele>273.41</ele>
        <time>2019-09-15T09:18:19.000Z</time>
      </trkpt>
      <trkpt lat="45.56882" lon="5.89207">
        <ele>276.28</ele>
        <time>2019-09-15T09:18:24.000Z</time>
      </trkpt>
      <trkpt lat="45.56903" lon="5.89207">
        <ele>275.05</ele>
        <time>2019-09-15T09:18:29.000Z</time>
      </trkpt>
      <trkpt lat="45.56927" lon="5.89201">
        <ele>275.97</ele>
        <time>2019-09-15T09:18:34.000Z</time>
      </trkpt>
      <trkpt lat="45.56954" lon="5.89194">
        <ele>278.87</ele>
        <time>2019-09-15T09:18:39.000Z</time>
      </trkpt>
      <trkpt lat="45.56986" lon="5.89182">
        <ele>282.09</ele>
        <time>2019-09-15T09:18:44.000Z</time>
      </trkpt>
      <trkpt lat="45.57017" lon="5.89169">
        <ele>283.64</ele>
        <time>2019-09-15T09:18:49.000Z</time>
      </trkpt>
      <trkpt lat="45.57047" lon="5.89153">
        <ele>282.35</ele>
        <time>2019-09-15T09:18:54.000Z</time>
      </trkpt>
      <trkpt lat="45.57079" lon="5.89135">
        <ele>282.12</ele>
        <time>2019-09-15T09:18:59.000Z</time>
      </trkpt>
      <trkpt lat="45.57105" lon="5.89116">
        <ele>281.97</ele>
        <time>2019-09-15T09:19:04.000Z</time>
      </trkpt>
      <trkpt lat="45.57131" lon="5.89097">
        <ele>281.37</ele>
        <time>2019-09-15T09:19:09.000Z</time>
      </trkpt>
      <trkpt lat="45.57156" lon="5.89078">
        <ele>281.35</ele>
        <time>2019-09-15T09:19:14.000Z</time>
      </trkpt>
      <trkpt lat="45.57177" lon="5.89054">
        <ele>284.45</ele>
        <time>2019-09-15T09:19:19.000Z</time>
      </trkpt>
      <trkpt lat="45.57189" lon="5.89025">
        <ele>285.13</ele>
        <time>2019-09-15T09:19:24.000Z</time>
      </trkpt>
      <trkpt lat="45.57198" lon="5.89003">
        <ele>281.83</ele>
        <time>2019-09-15T09:19:29.000Z</time>
      </trkpt>
      <trkpt lat="45.57214" lon="5.89006">
        <ele>280.57</ele>
        <time>2019-09-15T09:19:34.000Z</time>
      </trkpt>
      <trkpt lat="45.57237" lon="5.89008">
        <ele>278.01</ele>
        <time>2019-09-15T09:19:39.000Z</time>
      </trkpt>
      <trkpt lat="45.57262" lon="5.88981">
        <ele>276.68</ele>
        <time>2019-09-15T09:19:44.000Z</time>
      </trkpt>
      <trkpt lat="45.57293" lon="5.88958">
        <ele>274.66</ele>
        <time>2019-09-15T09:19:49.000Z</time>
      </trkpt>
      <trkpt lat="45.57321" lon="5.88942">
        <ele>272.33</ele>
        <time>2019-09-15T09:19:54.000Z</time>
      </trkpt>
      <trkpt lat="45.57348" lon="5.88924">
        <ele>274.13</ele>
        <time>2019-09-15T09:19:59.000Z</time>
      </trkpt>
      <trkpt lat="45.57378" lon="5.88905">
        <ele>277.32</ele>
        <time>2019-09-15T09:20:04.000Z</time>
      </trkpt>
      <trkpt lat="45.57405" lon="5.88887">
        <ele>276.91</ele>
        <time>2019-09-15T09:20:09.000Z</time>
      </trkpt>
      <trkpt lat="45.57432" lon="5.88872">
        <ele>276.63</ele>
        <time>2019-09-15T09:20:14.000Z</time>
      </trkpt>
      <trkpt lat="45.57458" lon="5.88854">
        <ele>272.45</ele>
        <time>2019-09-15T09:20:19.000Z</time>
      </trkpt>
      <trkpt lat="45.57486" lon="5.8884">
        <ele>268.16</ele>
        <time>2019-09-15T09:20:24.000Z</time>
      </trkpt>
      <trkpt lat="45.57515" lon="5.88823">
        <ele>264.56</ele>
        <time>2019-09-15T09:20:29.000Z</time>
      </trkpt>
      <trkpt lat="45.57542" lon="5.88803">
        <ele>266.25</ele>
        <time>2019-09-15T09:20:34.000Z</time>
      </trkpt>
      <trkpt lat="45.57576" lon="5.88798">
        <ele>268.53</ele>
        <time>2019-09-15T09:20:39.000Z</time>
      </trkpt>
      <trkpt lat="45.57613" lon="5.88799">
        <ele>265.29</ele>
        <time>2019-09-15T09:20:44.000Z</time>
      </trkpt>
      <trkpt lat="45.57649" lon="5.88787">
        <ele>265.99</ele>
        <time>2019-09-15T09:20:49.000Z</time>
      </trkpt>
      <trkpt lat="45.5768" lon="5.88776">
        <ele>261.31</ele>
        <time>2019-09-15T09:20:54.000Z</time>
      </trkpt>
      <trkpt lat="45.57709" lon="5.88759">
        <ele>260.75</ele>
        <time>2019-09-15T09:20:59.000Z</time>
      </trkpt>
      <trkpt lat="45.57737" lon="5.88742">
        <ele>261.1</ele>
        <time>2019-09-15T09:21:04.000Z</time>
      </trkpt>
      <trkpt lat="45.57769" lon="5.88733">
        <ele>262.78</ele>
        <time>2019-09-15T09:21:09.000Z</time>
      </trkpt>
      <trkpt lat="45.57801" lon="5.88731">
        <ele>261.81</ele>
        <time>2019-09-15T09:21:14.000Z</time>
      </trkpt>
      <trkpt lat="45.57829" lon="5.88738">
        <ele>259.68</ele>
        <time>2019-09-15T09:21:19.000Z</time>
      </trkpt>
      <trkpt lat="45.5786" lon="5.8874">
        <ele>257.14</ele>
        <time>2019-09-15T09:21:24.000Z</time>
      </trkpt>
      <trkpt lat="45.57891" lon="5.88743">
        <ele>257.82</ele>
        <time>2019-09-15T09:21:29.000Z</time>
      </trkpt>
      <trkpt lat="45.57925" lon="5.8874">
        <ele>257.78</ele>
        <time>2019-09-15T09:21:34.000Z</time>
      </trkpt>
      <trkpt lat="45.57955" lon="5.88745">
        <ele>260.8</ele>
        <time>2019-09-15T09:21:39.000Z</time>
      </trkpt>
      <trkpt lat="45.57983" lon="5.88746">
        <ele>260.34</ele>
        <time>2019-09-15T09:21:44.000Z</time>
      </trkpt>
      <trkpt lat="45.58007" lon="5.88745">
        <ele>261.42</ele>
        <time>2019-09-15T09:21:49.000Z</time>
      </trkpt>
      <trkpt lat="45.58035" lon="5.88744">
        <ele>262.44</ele>
        <time>2019-09-15T09:21:54.000Z</time>
      </trkpt>
      <trkpt lat="45.58064" lon="5.8875">
        <ele>266.68</ele>
        <time>2019-09-15T09:21:59.000Z</time>
      </trkpt>
      <trkpt lat="45.58087" lon="5.88748">
        <ele>268.84</ele>
        <time>2019-09-15T09:22:04.000Z</time>
      </trkpt>
      <trkpt lat="45.58113" lon="5.88746">
        <ele>273.87</ele>
        <time>2019-09-15T09:22:09.000Z</time>
      </trkpt>
      <trkpt lat="45.58142" lon="5.88751">
        <ele>272.91</ele>
        <time>2019-09-15T09:22:14.000Z</time>
      </trkpt>
      <trkpt lat="45.5816" lon="5.88734">
        <ele>267.11</ele>
        <time>2019-09-15T09:22:19.000Z</time>
      </trkpt>
      <trkpt lat="45.5817" lon="5.88724">
        <ele>264.73</ele>
        <time>2019-09-15T09:22:24.000Z</time>
      </trkpt>
      <trkpt lat="45.5819" lon="5.88718">
        <ele>265.83</ele>
        <time>2019-09-15T09:22:29.000Z</time>
      </trkpt>
      <trkpt lat="45.5821" lon="5.88703">
        <ele>266.66</ele>
        <time>2019-09-15T09:22:34.000Z</time>
      </trkpt>
      <trkpt lat="45.58222" lon="5.8869">
        <ele>268.93</ele>
        <time>2019-09-15T09:22:39.000Z</time>
      </trkpt>
      <trkpt lat="45.58244" lon="5.88673">
        <ele>268.52</ele>
        <time>2019-09-15T09:22:44.000Z</time>
      </trkpt>
      <trkpt lat="45.58272" lon="5.88647">
        <ele>268.6</ele>
        <time>2019-09-15T09:22:49.000Z</time>
      </trkpt>
      <trkpt lat="45.58297" lon="5.88628">
        <ele>269.74</ele>
        <time>2019-09-15T09:22:54.000Z</time>
      </trkpt>
      <trkpt lat="45.58327" lon="5.88603">
        <ele>272.14</ele>
        <time>2019-09-15T09:22:59.000Z</time>
      </trkpt>
      <trkpt lat="45.5835" lon="5.88585">
        <ele>271.01</ele>
        <time>2019-09-15T09:23:04.000Z</time>
      </trkpt>
      <trkpt lat="45.5838" lon="5.88578">
        <ele>266.94</ele>
        <time>2019-09-15T09:23:09.000Z</time>
      </trkpt>
      <trkpt lat="45.58398" lon="5.88568">
        <ele>266.83</ele>
        <time>2019-09-15T09:23:14.000Z</time>
      </trkpt>
      <trkpt lat="45.58428" lon="5.88551">
        <ele>266.59</ele>
        <time>2019-09-15T09:23:19.000Z</time>
      </trkpt>
      <trkpt lat="45.58457" lon="5.8853">
        <ele>260.76</ele>
        <time>2019-09-15T09:23:24.000Z</time>
      </trkpt>
      <trkpt lat="45.58486" lon="5.88508">
        <ele>260.66</ele>
        <time>2019-09-15T09:23:29.000Z</time>
      </trkpt>
      <trkpt lat="45.58515" lon="5.88487">
        <ele>256.97</ele>
        <time>2019-09-15T09:23:34.000Z</time>
      </trkpt>
      <trkpt lat="45.58545" lon="5.88468">
        <ele>254.93</ele>
        <time>2019-09-15T09:23:39.000Z</time>
      </trkpt>
      <trkpt lat="45.58576" lon="5.88445">
        <ele>257.54</ele>
        <time>2019-09-15T09:23:44.000Z</time>
      </trkpt>
      <trkpt lat="45.58608" lon="5.88425">
        <ele>255.71</ele>
        <time>2019-09-15T09:23:49.000Z</time>
      </trkpt>
      <trkpt lat="45.58637" lon="5.88405">
        <ele>253.03</ele>
        <time>2019-09-15T09:23:54.000Z</time>
      </trkpt>
      <trkpt lat="45.58665" lon="5.88385">
        <ele>253.11</ele>
        <time>2019-09-15T09:23:59.000Z</time>
      </trkpt>
      <trkpt lat="45.58691" lon="5.88365">
        <ele>253.37</ele>
        <time>2019-09-15T09:24:04.000Z</time>
      </trkpt>
      <trkpt lat="45.58719" lon="5.88345">
        <ele>253.15</ele>
        <time>2019-09-15T09:24:09.000Z</time>
      </trkpt>
      <trkpt lat="45.58748" lon="5.88325">
        <ele>252.33</ele>
        <time>2019-09-15T09:24:14.000Z</time>
      </trkpt>
      <trkpt lat="45.58777" lon="5.88307">
        <ele>252.33</ele>
        <time>2019-09-15T09:24:19.000Z</time>
      </trkpt>
      <trkpt lat="45.58805" lon="5.88284">
        <ele>252.56</ele>
        <time>2019-09-15T09:24:24.000Z</time>
      </trkpt>
      <trkpt lat="45.58823" lon="5.88264">
        <ele>249.81</ele>
        <time>2019-09-15T09:24:29.000Z</time>
      </trkpt>
      <trkpt lat="45.58847" lon="5.88239">
        <ele>249.96</ele>
        <time>2019-09-15T09:24:34.000Z</time>
      </trkpt>
      <trkpt lat="45.58872" lon="5.88227">
        <ele>251.76</ele>
        <time>2019-09-15T09:24:39.000Z</time>
      </trkpt>
      <trkpt lat="45.589" lon="5.88216">
        <ele>252</ele>
        <time>2019-09-15T09:24:44.000Z</time>
      </trkpt>
      <trkpt lat="45.58928" lon="5.88202">
        <ele>251.22</ele>
        <time>2019-09-15T09:24:49.000Z</time>
      </trkpt>
      <trkpt lat="45.58955" lon="5.88188">
        <ele>252.75</ele>
        <time>2019-09-15T09:24:54.000Z</time>
      </trkpt>
      <trkpt lat="45.58984" lon="5.88176">
        <ele>252.88</ele>
        <time>2019-09-15T09:24:59.000Z</time>
      </trkpt>
      <trkpt lat="45.59012" lon="5.88159">
        <ele>251.83</ele>
        <time>2019-09-15T09:25:04.000Z</time>
      </trkpt>
      <trkpt lat="45.59033" lon="5.88142">
        <ele>251.18</ele>
        <time>2019-09-15T09:25:09.000Z</time>
      </trkpt>
      <trkpt lat="45.59055" lon="5.88135">
        <ele>251.28</ele>
        <time>2019-09-15T09:25:14.000Z</time>
      </trkpt>
      <trkpt lat="45.59072" lon="5.88119">
        <ele>249.46</ele>
        <time>2019-09-15T09:25:19.000Z</time>
      </trkpt>
      <trkpt lat="45.59094" lon="5.88101">
        <ele>250.39</ele>
        <time>2019-09-15T09:25:24.000Z</time>
      </trkpt>
      <trkpt lat="45.59115" lon="5.88086">
        <ele>249.18</ele>
        <time>2019-09-15T09:25:29.000Z</time>
      </trkpt>
      <trkpt lat="45.59139" lon="5.88068">
        <ele>250.15</ele>
        <time>2019-09-15T09:25:34.000Z</time>
      </trkpt>
      <trkpt lat="45.5916" lon="5.88049">
        <ele>249.72</ele>
        <time>2019-09-15T09:25:39.000Z</time>
      </trkpt>
      <trkpt lat="45.59177" lon="5.88021">
        <ele>250.03</ele>
        <time>2019-09-15T09:25:44.000Z</time>
      </trkpt>
      <trkpt lat="45.59191" lon="5.88004">
        <ele>252.43</ele>
        <time>2019-09-15T09:25:49.000Z</time>
      </trkpt>
      <trkpt lat="45.5921" lon="5.88005">
        <ele>255.22</ele>
        <time>2019-09-15T09:25:54.000Z</time>
      </trkpt>
      <trkpt lat="45.59227" lon="5.88003">
        <ele>255.28</ele>
        <time>2019-09-15T09:25:59.000Z</time>
      </trkpt>
      <trkpt lat="45.59251" lon="5.87987">
        <ele>251.41</ele>
        <time>2019-09-15T09:26:04.000Z</time>
      </trkpt>
      <trkpt lat="45.59278" lon="5.87976">
        <ele>248.9</ele>
        <time>2019-09-15T09:26:09.000Z</time>
      </trkpt>
      <trkpt lat="45.59304" lon="5.87954">
        <ele>249.64</ele>
        <time>2019-09-15T09:26:14.000Z</time>
      </trkpt>
      <trkpt lat="45.59318" lon="5.87926">
        <ele>248.64</ele>
        <time>2019-09-15T09:26:19.000Z</time>
      </trkpt>
      <trkpt lat="45.59332" lon="5.87897">
        <ele>251.01</ele>
        <time>2019-09-15T09:26:24.000Z</time>
      </trkpt>
      <trkpt lat="45.59346" lon="5.8789">
        <ele>253.34</ele>
        <time>2019-09-15T09:26:29.000Z</time>
      </trkpt>
      <trkpt lat="45.59356" lon="5.87896">
        <ele>251.43</ele>
        <time>2019-09-15T09:26:34.000Z</time>
      </trkpt>
      <trkpt lat="45.59359" lon="5.87908">
        <ele>253.97</ele>
        <time>2019-09-15T09:26:40.000Z</time>
      </trkpt>
      <trkpt lat="45.59364" lon="5.87923">
        <ele>256.55</ele>
        <time>2019-09-15T09:26:45.000Z</time>
      </trkpt>
      <trkpt lat="45.59386" lon="5.87914">
        <ele>254.16</ele>
        <time>2019-09-15T09:26:50.000Z</time>
      </trkpt>
      <trkpt lat="45.59411" lon="5.87908">
        <ele>255.92</ele>
        <time>2019-09-15T09:26:55.000Z</time>
      </trkpt>
      <trkpt lat="45.59434" lon="5.87909">
        <ele>259.43</ele>
        <time>2019-09-15T09:27:00.000Z</time>
      </trkpt>
      <trkpt lat="45.59455" lon="5.87902">
        <ele>260.44</ele>
        <time>2019-09-15T09:27:05.000Z</time>
      </trkpt>
      <trkpt lat="45.59477" lon="5.87894">
        <ele>259.25</ele>
        <time>2019-09-15T09:27:10.000Z</time>
      </trkpt>
      <trkpt lat="45.59501" lon="5.87888">
        <ele>255.5</ele>
        <time>2019-09-15T09:27:15.000Z</time>
      </trkpt>
      <trkpt lat="45.59524" lon="5.87875">
        <ele>252.43</ele>
        <time>2019-09-15T09:27:20.000Z</time>
      </trkpt>
      <trkpt lat="45.59549" lon="5.87859">
        <ele>253.58</ele>
        <time>2019-09-15T09:27:25.000Z</time>
      </trkpt>
      <trkpt lat="45.59578" lon="5.87849">
        <ele>252.95</ele>
        <time>2019-09-15T09:27:30.000Z</time>
      </trkpt>
      <trkpt lat="45.59606" lon="5.87839">
        <ele>256.46</ele>
        <time>2019-09-15T09:27:35.000Z</time>
      </trkpt>
      <trkpt lat="45.59627" lon="5.87829">
        <ele>256.01</ele>
        <time>2019-09-15T09:27:40.000Z</time>
      </trkpt>
      <trkpt lat="45.59648" lon="5.8782">
        <ele>256.98</ele>
        <time>2019-09-15T09:27:45.000Z</time>
      </trkpt>
      <trkpt lat="45.59671" lon="5.87807">
        <ele>255.57</ele>
        <time>2019-09-15T09:27:50.000Z</time>
      </trkpt>
      <trkpt lat="45.59693" lon="5.878">
        <ele>260.3</ele>
        <time>2019-09-15T09:27:55.000Z</time>
      </trkpt>
      <trkpt lat="45.59708" lon="5.87771">
        <ele>259.02</ele>
        <time>2019-09-15T09:28:00.000Z</time>
      </trkpt>
      <trkpt lat="45.59712" lon="5.87734">
        <ele>256.13</ele>
        <time>2019-09-15T09:28:05.000Z</time>
      </trkpt>
      <trkpt lat="45.59714" lon="5.87695">
        <ele>255.27</ele>
        <time>2019-09-15T09:28:10.000Z</time>
      </trkpt>
      <trkpt lat="45.59722" lon="5.87651">
        <ele>256.31</ele>
        <time>2019-09-15T09:28:15.000Z</time>
      </trkpt>
      <trkpt lat="45.59723" lon="5.87606">
        <ele>256.08</ele>
        <time>2019-09-15T09:28:20.000Z</time>
      </trkpt>
      <trkpt lat="45.59728" lon="5.87566">
        <ele>255.56</ele>
        <time>2019-09-15T09:28:25.000Z</time>
      </trkpt>
      <trkpt lat="45.59734" lon="5.87522">
        <ele>254.9</ele>
        <time>2019-09-15T09:28:30.000Z</time>
      </trkpt>
      <trkpt lat="45.59744" lon="5.87483">
        <ele>257.82</ele>
        <time>2019-09-15T09:28:35.000Z</time>
      </trkpt>
      <trkpt lat="45.59764" lon="5.87472">
        <ele>255.6</ele>
        <time>2019-09-15T09:28:40.000Z</time>
      </trkpt>
      <trkpt lat="45.5978" lon="5.87455">
        <ele>257.74</ele>
        <time>2019-09-15T09:28:45.000Z</time>
      </trkpt>
      <trkpt lat="45.59794" lon="5.87446">
        <ele>255.51</ele>
        <time>2019-09-15T09:28:50.000Z</time>
      </trkpt>
      <trkpt lat="45.59812" lon="5.87438">
        <ele>258.54</ele>
        <time>2019-09-15T09:28:55.000Z</time>
      </trkpt>
      <trkpt lat="45.59841" lon="5.87424">
        <ele>255.74</ele>
        <time>2019-09-15T09:29:00.000Z</time>
      </trkpt>
      <trkpt lat="45.59869" lon="5.87417">
        <ele>252.34</ele>
        <time>2019-09-15T09:29:05.000Z</time>
      </trkpt>
      <trkpt lat="45.599" lon="5.87398">
        <ele>251.49</ele>
        <time>2019-09-15T09:29:10.000Z</time>
      </trkpt>
      <trkpt lat="45.59927" lon="5.8738">
        <ele>252.64</ele>
        <time>2019-09-15T09:29:15.000Z</time>
      </trkpt>
      <trkpt lat="45.59957" lon="5.87363">
        <ele>252.21</ele>
        <time>2019-09-15T09:29:20.000Z</time>
      </trkpt>
      <trkpt lat="45.59984" lon="5.87342">
        <ele>252.71</ele>
        <time>2019-09-15T09:29:25.000Z</time>
      </trkpt>
      <trkpt lat="45.60011" lon="5.87327">
        <ele>254</ele>
        <time>2019-09-15T09:29:30.000Z</time>
      </trkpt>
      <trkpt lat="45.60039" lon="5.87318">
        <ele>254.5</ele>
        <time>2019-09-15T09:29:35.000Z</time>
      </trkpt>
      <trkpt lat="45.60062" lon="5.87318">
        <ele>252.1</ele>
        <time>2019-09-15T09:29:40.000Z</time>
      </trkpt>
      <trkpt lat="45.60092" lon="5.87317">
        <ele>253.91</ele>
        <time>2019-09-15T09:29:45.000Z</time>
      </trkpt>
      <trkpt lat="45.6011" lon="5.87291">
        <ele>253.8</ele>
        <time>2019-09-15T09:29:50.000Z</time>
      </trkpt>
      <trkpt lat="45.60111" lon="5.87257">
        <ele>254.08</ele>
        <time>2019-09-15T09:29:55.000Z</time>
      </trkpt>
      <trkpt lat="45.60117" lon="5.87236">
        <ele>256.27</ele>
        <time>2019-09-15T09:30:00.000Z</time>
      </trkpt>
      <trkpt lat="45.60123" lon="5.87206">
        <ele>257.24</ele>
        <time>2019-09-15T09:30:05.000Z</time>
      </trkpt>
      <trkpt lat="45.60131" lon="5.87177">
        <ele>259.75</ele>
        <time>2019-09-15T09:30:10.000Z</time>
      </trkpt>
      <trkpt lat="45.60138" lon="5.87146">
        <ele>261.59</ele>
        <time>2019-09-15T09:30:15.000Z</time>
      </trkpt>
      <trkpt lat="45.60142" lon="5.87118">
        <ele>262.96</ele>
        <time>2019-09-15T09:30:20.000Z</time>
      </trkpt>
      <trkpt lat="45.60151" lon="5.87094">
        <ele>265.02</ele>
        <time>2019-09-15T09:30:25.000Z</time>
      </trkpt>
      <trkpt lat="45.60159" lon="5.87072">
        <ele>265.88</ele>
        <time>2019-09-15T09:30:30.000Z</time>
      </trkpt>
      <trkpt lat="45.6017" lon="5.87047">
        <ele>267.05</ele>
        <time>2019-09-15T09:30:35.000Z</time>
      </trkpt>
      <trkpt lat="45.60186" lon="5.87017">
        <ele>265.16</ele>
        <time>2019-09-15T09:30:40.000Z</time>
      </trkpt>
      <trkpt lat="45.6021" lon="5.86992">
        <ele>265.33</ele>
        <time>2019-09-15T09:30:45.000Z</time>
      </trkpt>
      <trkpt lat="45.6023" lon="5.86966">
        <ele>262.22</ele>
        <time>2019-09-15T09:30:50.000Z</time>
      </trkpt>
      <trkpt lat="45.60247" lon="5.86941">
        <ele>262.03</ele>
        <time>2019-09-15T09:30:55.000Z</time>
      </trkpt>
      <trkpt lat="45.6027" lon="5.8692">
        <ele>258.14</ele>
        <time>2019-09-15T09:31:00.000Z</time>
      </trkpt>
      <trkpt lat="45.60285" lon="5.86896">
        <ele>256.68</ele>
        <time>2019-09-15T09:31:05.000Z</time>
      </trkpt>
      <trkpt lat="45.60303" lon="5.86878">
        <ele>255.77</ele>
        <time>2019-09-15T09:31:10.000Z</time>
      </trkpt>
      <trkpt lat="45.60325" lon="5.86854">
        <ele>257.08</ele>
        <time>2019-09-15T09:31:15.000Z</time>
      </trkpt>
      <trkpt lat="45.60345" lon="5.86821">
        <ele>255.21</ele>
        <time>2019-09-15T09:31:20.000Z</time>
      </trkpt>
      <trkpt lat="45.6037" lon="5.86786">
        <ele>254.46</ele>
        <time>2019-09-15T09:31:25.000Z</time>
      </trkpt>
      <trkpt lat="45.60396" lon="5.8676">
        <ele>256.85</ele>
        <time>2019-09-15T09:31:30.000Z</time>
      </trkpt>
      <trkpt lat="45.60423" lon="5.86736">
        <ele>258.67</ele>
        <time>2019-09-15T09:31:35.000Z</time>
      </trkpt>
      <trkpt lat="45.6045" lon="5.86729">
        <ele>258.11</ele>
        <time>2019-09-15T09:31:40.000Z</time>
      </trkpt>
      <trkpt lat="45.60478" lon="5.86708">
        <ele>260.43</ele>
        <time>2019-09-15T09:31:45.000Z</time>
      </trkpt>
      <trkpt lat="45.60505" lon="5.8669">
        <ele>259.56</ele>
        <time>2019-09-15T09:31:50.000Z</time>
      </trkpt>
      <trkpt lat="45.60536" lon="5.86668">
        <ele>257.87</ele>
        <time>2019-09-15T09:31:55.000Z</time>
      </trkpt>
      <trkpt lat="45.60569" lon="5.86651">
        <ele>253.8</ele>
        <time>2019-09-15T09:32:00.000Z</time>
      </trkpt>
      <trkpt lat="45.60602" lon="5.86625">
        <ele>251.81</ele>
        <time>2019-09-15T09:32:05.000Z</time>
      </trkpt>
      <trkpt lat="45.60637" lon="5.86592">
        <ele>247.03</ele>
        <time>2019-09-15T09:32:10.000Z</time>
      </trkpt>
      <trkpt lat="45.60667" lon="5.86549">
        <ele>245.88</ele>
        <time>2019-09-15T09:32:15.000Z</time>
      </trkpt>
      <trkpt lat="45.60685" lon="5.86524">
        <ele>240.14</ele>
        <time>2019-09-15T09:32:20.000Z</time>
      </trkpt>
      <trkpt lat="45.60693" lon="5.8653">
        <ele>245.61</ele>
        <time>2019-09-15T09:32:25.000Z</time>
      </trkpt>
      <trkpt lat="45.60686" lon="5.86521">
        <ele>245.73</ele>
        <time>2019-09-15T09:33:39.000Z</time>
      </trkpt>
      <trkpt lat="45.60693" lon="5.86486">
        <ele>243.81</ele>
        <time>2019-09-15T09:33:44.000Z</time>
      </trkpt>
      <trkpt lat="45.60701" lon="5.86447">
        <ele>248.86</ele>
        <time>2019-09-15T09:33:49.000Z</time>
      </trkpt>
      <trkpt lat="45.60709" lon="5.86411">
        <ele>248.54</ele>
        <time>2019-09-15T09:33:54.000Z</time>
      </trkpt>
      <trkpt lat="45.60712" lon="5.86366">
        <ele>246.37</ele>
        <time>2019-09-15T09:33:59.000Z</time>
      </trkpt>
      <trkpt lat="45.60709" lon="5.86321">
        <ele>249.84</ele>
        <time>2019-09-15T09:34:04.000Z</time>
      </trkpt>
      <trkpt lat="45.60716" lon="5.86281">
        <ele>251.59</ele>
        <time>2019-09-15T09:34:09.000Z</time>
      </trkpt>
      <trkpt lat="45.60711" lon="5.86241">
        <ele>252.43</ele>
        <time>2019-09-15T09:34:14.000Z</time>
      </trkpt>
      <trkpt lat="45.60712" lon="5.86207">
        <ele>254.79</ele>
        <time>2019-09-15T09:34:19.000Z</time>
      </trkpt>
      <trkpt lat="45.60717" lon="5.86182">
        <ele>254.67</ele>
        <time>2019-09-15T09:34:24.000Z</time>
      </trkpt>
      <trkpt lat="45.60719" lon="5.86155">
        <ele>256.87</ele>
        <time>2019-09-15T09:34:29.000Z</time>
      </trkpt>
      <trkpt lat="45.60709" lon="5.86128">
        <ele>262.19</ele>
        <time>2019-09-15T09:34:34.000Z</time>
      </trkpt>
      <trkpt lat="45.60716" lon="5.86099">
        <ele>261.38</ele>
        <time>2019-09-15T09:34:39.000Z</time>
      </trkpt>
      <trkpt lat="45.60722" lon="5.86069">
        <ele>266.89</ele>
        <time>2019-09-15T09:34:44.000Z</time>
      </trkpt>
      <trkpt lat="45.60731" lon="5.86043">
        <ele>264.51</ele>
        <time>2019-09-15T09:34:49.000Z</time>
      </trkpt>
      <trkpt lat="45.60737" lon="5.86013">
        <ele>264.75</ele>
        <time>2019-09-15T09:34:54.000Z</time>
      </trkpt>
      <trkpt lat="45.60742" lon="5.85986">
        <ele>263.83</ele>
        <time>2019-09-15T09:34:59.000Z</time>
      </trkpt>
      <trkpt lat="45.60748" lon="5.85964">
        <ele>263.63</ele>
        <time>2019-09-15T09:35:04.000Z</time>
      </trkpt>
      <trkpt lat="45.60759" lon="5.85942">
        <ele>267.26</ele>
        <time>2019-09-15T09:35:09.000Z</time>
      </trkpt>
      <trkpt lat="45.60767" lon="5.85924">
        <ele>269.89</ele>
        <time>2019-09-15T09:35:14.000Z</time>
      </trkpt>
      <trkpt lat="45.60777" lon="5.85906">
        <ele>272.38</ele>
        <time>2019-09-15T09:35:19.000Z</time>
      </trkpt>
      <trkpt lat="45.60788" lon="5.85889">
        <ele>272.73</ele>
        <time>2019-09-15T09:35:24.000Z</time>
      </trkpt>
      <trkpt lat="45.60797" lon="5.85873">
        <ele>275.31</ele>
        <time>2019-09-15T09:35:29.000Z</time>
      </trkpt>
      <trkpt lat="45.60806" lon="5.85853">
        <ele>277.07</ele>
        <time>2019-09-15T09:35:34.000Z</time>
      </trkpt>
      <trkpt lat="45.60814" lon="5.85834">
        <ele>277.81</ele>
        <time>2019-09-15T09:35:39.000Z</time>
      </trkpt>
      <trkpt lat="45.60822" lon="5.85815">
        <ele>279.94</ele>
        <time>2019-09-15T09:35:44.000Z</time>
      </trkpt>
      <trkpt lat="45.60833" lon="5.858">
        <ele>283.99</ele>
        <time>2019-09-15T09:35:49.000Z</time>
      </trkpt>
      <trkpt lat="45.60849" lon="5.8579">
        <ele>285.43</ele>
        <time>2019-09-15T09:35:54.000Z</time>
      </trkpt>
      <trkpt lat="45.60866" lon="5.85792">
        <ele>287.74</ele>
        <time>2019-09-15T09:35:59.000Z</time>
      </trkpt>
      <trkpt lat="45.60882" lon="5.858">
        <ele>290.77</ele>
        <time>2019-09-15T09:36:04.000Z</time>
      </trkpt>
      <trkpt lat="45.60899" lon="5.8581">
        <ele>290.62</ele>
        <time>2019-09-15T09:36:09.000Z</time>
      </trkpt>
      <trkpt lat="45.60914" lon="5.85816">
        <ele>294.05</ele>
        <time>2019-09-15T09:36:14.000Z</time>
      </trkpt>
      <trkpt lat="45.60931" lon="5.8582">
        <ele>296.14</ele>
        <time>2019-09-15T09:36:19.000Z</time>
      </trkpt>
      <trkpt lat="45.60949" lon="5.85819">
        <ele>296.57</ele>
        <time>2019-09-15T09:36:24.000Z</time>
      </trkpt>
      <trkpt lat="45.60968" lon="5.85817">
        <ele>296.11</ele>
        <time>2019-09-15T09:36:29.000Z</time>
      </trkpt>
      <trkpt lat="45.60987" lon="5.85814">
        <ele>296.24</ele>
        <time>2019-09-15T09:36:34.000Z</time>
      </trkpt>
      <trkpt lat="45.61" lon="5.85796">
        <ele>297.82</ele>
        <time>2019-09-15T09:36:39.000Z</time>
      </trkpt>
      <trkpt lat="45.60998" lon="5.85765">
        <ele>297.16</ele>
        <time>2019-09-15T09:36:44.000Z</time>
      </trkpt>
      <trkpt lat="45.60995" lon="5.85736">
        <ele>299.94</ele>
        <time>2019-09-15T09:36:49.000Z</time>
      </trkpt>
      <trkpt lat="45.60997" lon="5.85709">
        <ele>299.49</ele>
        <time>2019-09-15T09:36:54.000Z</time>
      </trkpt>
      <trkpt lat="45.60998" lon="5.85679">
        <ele>299.08</ele>
        <time>2019-09-15T09:36:59.000Z</time>
      </trkpt>
      <trkpt lat="45.60999" lon="5.85643">
        <ele>299.26</ele>
        <time>2019-09-15T09:37:04.000Z</time>
      </trkpt>
      <trkpt lat="45.61002" lon="5.85612">
        <ele>299.17</ele>
        <time>2019-09-15T09:37:09.000Z</time>
      </trkpt>
      <trkpt lat="45.61002" lon="5.85578">
        <ele>302.53</ele>
        <time>2019-09-15T09:37:14.000Z</time>
      </trkpt>
      <trkpt lat="45.61007" lon="5.85547">
        <ele>304.14</ele>
        <time>2019-09-15T09:37:19.000Z</time>
      </trkpt>
      <trkpt lat="45.61013" lon="5.85513">
        <ele>308.85</ele>
        <time>2019-09-15T09:37:24.000Z</time>
      </trkpt>
      <trkpt lat="45.61015" lon="5.85481">
        <ele>309.72</ele>
        <time>2019-09-15T09:37:29.000Z</time>
      </trkpt>
      <trkpt lat="45.61018" lon="5.85459">
        <ele>310.93</ele>
        <time>2019-09-15T09:37:34.000Z</time>
      </trkpt>
      <trkpt lat="45.6102" lon="5.85437">
        <ele>315.93</ele>
        <time>2019-09-15T09:37:39.000Z</time>
      </trkpt>
      <trkpt lat="45.61025" lon="5.85416">
        <ele>318.82</ele>
        <time>2019-09-15T09:37:44.000Z</time>
      </trkpt>
      <trkpt lat="45.61029" lon="5.85396">
        <ele>319.89</ele>
        <time>2019-09-15T09:37:49.000Z</time>
      </trkpt>
      <trkpt lat="45.61035" lon="5.85376">
        <ele>322.94</ele>
        <time>2019-09-15T09:37:54.000Z</time>
      </trkpt>
      <trkpt lat="45.6104" lon="5.85355">
        <ele>325.09</ele>
        <time>2019-09-15T09:37:59.000Z</time>
      </trkpt>
      <trkpt lat="45.61043" lon="5.85331">
        <ele>324.9</ele>
        <time>2019-09-15T09:38:04.000Z</time>
      </trkpt>
      <trkpt lat="45.6105" lon="5.85312">
        <ele>329.06</ele>
        <time>2019-09-15T09:38:09.000Z</time>
      </trkpt>
      <trkpt lat="45.61056" lon="5.85292">
        <ele>333.77</ele>
        <time>2019-09-15T09:38:14.000Z</time>
      </trkpt>
      <trkpt lat="45.61059" lon="5.85271">
        <ele>335.58</ele>
        <time>2019-09-15T09:38:19.000Z</time>
      </trkpt>
      <trkpt lat="45.61063" lon="5.85249">
        <ele>337.7</ele>
        <time>2019-09-15T09:38:24.000Z</time>
      </trkpt>
      <trkpt lat="45.61061" lon="5.85226">
        <ele>339.8</ele>
        <time>2019-09-15T09:38:29.000Z</time>
      </trkpt>
      <trkpt lat="45.61043" lon="5.85215">
        <ele>340.85</ele>
        <time>2019-09-15T09:38:34.000Z</time>
      </trkpt>
      <trkpt lat="45.61026" lon="5.85203">
        <ele>343.79</ele>
        <time>2019-09-15T09:38:39.000Z</time>
      </trkpt>
      <trkpt lat="45.6103" lon="5.85188">
        <ele>346.69</ele>
        <time>2019-09-15T09:39:00.000Z</time>
      </trkpt>
      <trkpt lat="45.61042" lon="5.85152">
        <ele>345.04</ele>
        <time>2019-09-15T09:39:05.000Z</time>
      </trkpt>
      <trkpt lat="45.61054" lon="5.85119">
        <ele>345.18</ele>
        <time>2019-09-15T09:39:10.000Z</time>
      </trkpt>
      <trkpt lat="45.61078" lon="5.85097">
        <ele>345.24</ele>
        <time>2019-09-15T09:39:15.000Z</time>
      </trkpt>
      <trkpt lat="45.61096" lon="5.85079">
        <ele>348.32</ele>
        <time>2019-09-15T09:39:20.000Z</time>
      </trkpt>
      <trkpt lat="45.61118" lon="5.85055">
        <ele>351.17</ele>
        <time>2019-09-15T09:39:25.000Z</time>
      </trkpt>
      <trkpt lat="45.61138" lon="5.85031">
        <ele>354.42</ele>
        <time>2019-09-15T09:39:30.000Z</time>
      </trkpt>
      <trkpt lat="45.6116" lon="5.85002">
        <ele>354.08</ele>
        <time>2019-09-15T09:39:35.000Z</time>
      </trkpt>
      <trkpt lat="45.61186" lon="5.84978">
        <ele>352.1</ele>
        <time>2019-09-15T09:39:40.000Z</time>
      </trkpt>
      <trkpt lat="45.61215" lon="5.84971">
        <ele>350.81</ele>
        <time>2019-09-15T09:39:45.000Z</time>
      </trkpt>
      <trkpt lat="45.6124" lon="5.84956">
        <ele>351.93</ele>
        <time>2019-09-15T09:39:50.000Z</time>
      </trkpt>
      <trkpt lat="45.61263" lon="5.8493">
        <ele>355.16</ele>
        <time>2019-09-15T09:39:55.000Z</time>
      </trkpt>
      <trkpt lat="45.61294" lon="5.84912">
        <ele>359.26</ele>
        <time>2019-09-15T09:40:00.000Z</time>
      </trkpt>
      <trkpt lat="45.6133" lon="5.84907">
        <ele>359.34</ele>
        <time>2019-09-15T09:40:05.000Z</time>
      </trkpt>
      <trkpt lat="45.61371" lon="5.84899">
        <ele>359.64</ele>
        <time>2019-09-15T09:40:10.000Z</time>
      </trkpt>
      <trkpt lat="45.6141" lon="5.84918">
        <ele>361</ele>
        <time>2019-09-15T09:40:15.000Z</time>
      </trkpt>
      <trkpt lat="45.61427" lon="5.84935">
        <ele>362.71</ele>
        <time>2019-09-15T09:40:20.000Z</time>
      </trkpt>
      <trkpt lat="45.61462" lon="5.84957">
        <ele>362.29</ele>
        <time>2019-09-15T09:40:25.000Z</time>
      </trkpt>
      <trkpt lat="45.61489" lon="5.84955">
        <ele>360.96</ele>
        <time>2019-09-15T09:40:30.000Z</time>
      </trkpt>
      <trkpt lat="45.615" lon="5.84938">
        <ele>356.3</ele>
        <time>2019-09-15T09:40:35.000Z</time>
      </trkpt>
      <trkpt lat="45.61532" lon="5.8493">
        <ele>354.74</ele>
        <time>2019-09-15T09:40:40.000Z</time>
      </trkpt>
      <trkpt lat="45.61552" lon="5.84963">
        <ele>355.82</ele>
        <time>2019-09-15T09:40:45.000Z</time>
      </trkpt>
      <trkpt lat="45.61552" lon="5.85">
        <ele>359.81</ele>
        <time>2019-09-15T09:40:50.000Z</time>
      </trkpt>
      <trkpt lat="45.61567" lon="5.85024">
        <ele>362.35</ele>
        <time>2019-09-15T09:40:55.000Z</time>
      </trkpt>
      <trkpt lat="45.61595" lon="5.85021">
        <ele>363.66</ele>
        <time>2019-09-15T09:41:00.000Z</time>
      </trkpt>
      <trkpt lat="45.61618" lon="5.85">
        <ele>363.3</ele>
        <time>2019-09-15T09:41:05.000Z</time>
      </trkpt>
      <trkpt lat="45.61637" lon="5.84978">
        <ele>366.54</ele>
        <time>2019-09-15T09:41:10.000Z</time>
      </trkpt>
      <trkpt lat="45.61653" lon="5.84957">
        <ele>371.93</ele>
        <time>2019-09-15T09:41:15.000Z</time>
      </trkpt>
      <trkpt lat="45.61679" lon="5.84939">
        <ele>372.01</ele>
        <time>2019-09-15T09:41:20.000Z</time>
      </trkpt>
      <trkpt lat="45.61707" lon="5.84932">
        <ele>373.05</ele>
        <time>2019-09-15T09:41:25.000Z</time>
      </trkpt>
      <trkpt lat="45.61741" lon="5.84934">
        <ele>371.35</ele>
        <time>2019-09-15T09:41:30.000Z</time>
      </trkpt>
      <trkpt lat="45.6178" lon="5.84928">
        <ele>365.91</ele>
        <time>2019-09-15T09:41:35.000Z</time>
      </trkpt>
      <trkpt lat="45.61819" lon="5.84933">
        <ele>361.14</ele>
        <time>2019-09-15T09:41:40.000Z</time>
      </trkpt>
      <trkpt lat="45.61855" lon="5.84938">
        <ele>358.83</ele>
        <time>2019-09-15T09:41:45.000Z</time>
      </trkpt>
      <trkpt lat="45.61872" lon="5.84908">
        <ele>359.53</ele>
        <time>2019-09-15T09:41:50.000Z</time>
      </trkpt>
      <trkpt lat="45.61885" lon="5.84883">
        <ele>354.38</ele>
        <time>2019-09-15T09:41:55.000Z</time>
      </trkpt>
      <trkpt lat="45.61886" lon="5.84854">
        <ele>356.54</ele>
        <time>2019-09-15T09:42:00.000Z</time>
      </trkpt>
      <trkpt lat="45.61882" lon="5.84825">
        <ele>360.59</ele>
        <time>2019-09-15T09:42:05.000Z</time>
      </trkpt>
      <trkpt lat="45.61877" lon="5.84786">
        <ele>361.44</ele>
        <time>2019-09-15T09:42:10.000Z</time>
      </trkpt>
      <trkpt lat="45.619" lon="5.8478">
        <ele>358.99</ele>
        <time>2019-09-15T09:42:15.000Z</time>
      </trkpt>
      <trkpt lat="45.61901" lon="5.84753">
        <ele>358.06</ele>
        <time>2019-09-15T09:42:20.000Z</time>
      </trkpt>
      <trkpt lat="45.61912" lon="5.84714">
        <ele>356.66</ele>
        <time>2019-09-15T09:42:25.000Z</time>
      </trkpt>
      <trkpt lat="45.61914" lon="5.84693">
        <ele>359.18</ele>
        <time>2019-09-15T09:42:30.000Z</time>
      </trkpt>
      <trkpt lat="45.61917" lon="5.84653">
        <ele>361.29</ele>
        <time>2019-09-15T09:42:35.000Z</time>
      </trkpt>
      <trkpt lat="45.61927" lon="5.84615">
        <ele>362.54</ele>
        <time>2019-09-15T09:42:40.000Z</time>
      </trkpt>
      <trkpt lat="45.61938" lon="5.84571">
        <ele>366.21</ele>
        <time>2019-09-15T09:42:45.000Z</time>
      </trkpt>
      <trkpt lat="45.61948" lon="5.84529">
        <ele>372.25</ele>
        <time>2019-09-15T09:42:50.000Z</time>
      </trkpt>
      <trkpt lat="45.61951" lon="5.84485">
        <ele>374.05</ele>
        <time>2019-09-15T09:42:55.000Z</time>
      </trkpt>
      <trkpt lat="45.61961" lon="5.84439">
        <ele>375.13</ele>
        <time>2019-09-15T09:43:00.000Z</time>
      </trkpt>
      <trkpt lat="45.61978" lon="5.84405">
        <ele>377.22</ele>
        <time>2019-09-15T09:43:05.000Z</time>
      </trkpt>
      <trkpt lat="45.61995" lon="5.84395">
        <ele>379.25</ele>
        <time>2019-09-15T09:43:10.000Z</time>
      </trkpt>
      <trkpt lat="45.62014" lon="5.8439">
        <ele>381.3</ele>
        <time>2019-09-15T09:43:15.000Z</time>
      </trkpt>
      <trkpt lat="45.62031" lon="5.84389">
        <ele>383.15</ele>
        <time>2019-09-15T09:43:20.000Z</time>
      </trkpt>
      <trkpt lat="45.62047" lon="5.84391">
        <ele>382.12</ele>
        <time>2019-09-15T09:43:25.000Z</time>
      </trkpt>
      <trkpt lat="45.62064" lon="5.84385">
        <ele>380.17</ele>
        <time>2019-09-15T09:43:30.000Z</time>
      </trkpt>
      <trkpt lat="45.62082" lon="5.8438">
        <ele>381.47</ele>
        <time>2019-09-15T09:43:35.000Z</time>
      </trkpt>
      <trkpt lat="45.62096" lon="5.84381">
        <ele>382.42</ele>
        <time>2019-09-15T09:43:40.000Z</time>
      </trkpt>
      <trkpt lat="45.62119" lon="5.84383">
        <ele>380.19</ele>
        <time>2019-09-15T09:43:45.000Z</time>
      </trkpt>
      <trkpt lat="45.62139" lon="5.8439">
        <ele>376.9</ele>
        <time>2019-09-15T09:43:50.000Z</time>
      </trkpt>
      <trkpt lat="45.62156" lon="5.84391">
        <ele>377.24</ele>
        <time>2019-09-15T09:43:55.000Z</time>
      </trkpt>
      <trkpt lat="45.62177" lon="5.84395">
        <ele>375.91</ele>
        <time>2019-09-15T09:44:00.000Z</time>
      </trkpt>
      <trkpt lat="45.62197" lon="5.84394">
        <ele>377.76</ele>
        <time>2019-09-15T09:44:05.000Z</time>
      </trkpt>
      <trkpt lat="45.62215" lon="5.84401">
        <ele>378.12</ele>
        <time>2019-09-15T09:44:10.000Z</time>
      </trkpt>
      <trkpt lat="45.62234" lon="5.84405">
        <ele>381.4</ele>
        <time>2019-09-15T09:44:15.000Z</time>
      </trkpt>
      <trkpt lat="45.62254" lon="5.84407">
        <ele>389.07</ele>
        <time>2019-09-15T09:44:20.000Z</time>
      </trkpt>
      <trkpt lat="45.62274" lon="5.84408">
        <ele>390.31</ele>
        <time>2019-09-15T09:44:25.000Z</time>
      </trkpt>
      <trkpt lat="45.6229" lon="5.84414">
        <ele>392.27</ele>
        <time>2019-09-15T09:44:30.000Z</time>
      </trkpt>
      <trkpt lat="45.62306" lon="5.84423">
        <ele>392.98</ele>
        <time>2019-09-15T09:44:35.000Z</time>
      </trkpt>
      <trkpt lat="45.62325" lon="5.84427">
        <ele>393.58</ele>
        <time>2019-09-15T09:44:40.000Z</time>
      </trkpt>
      <trkpt lat="45.62346" lon="5.84428">
        <ele>395.47</ele>
        <time>2019-09-15T09:44:45.000Z</time>
      </trkpt>
      <trkpt lat="45.62369" lon="5.84427">
        <ele>401.24</ele>
        <time>2019-09-15T09:44:50.000Z</time>
      </trkpt>
      <trkpt lat="45.62386" lon="5.84426">
        <ele>405.56</ele>
        <time>2019-09-15T09:44:55.000Z</time>
      </trkpt>
      <trkpt lat="45.62402" lon="5.84423">
        <ele>409.15</ele>
        <time>2019-09-15T09:45:00.000Z</time>
      </trkpt>
      <trkpt lat="45.62414" lon="5.84423">
        <ele>411.57</ele>
        <time>2019-09-15T09:45:05.000Z</time>
      </trkpt>
      <trkpt lat="45.62449" lon="5.84432">
        <ele>412.73</ele>
        <time>2019-09-15T09:45:10.000Z</time>
      </trkpt>
      <trkpt lat="45.62466" lon="5.84437">
        <ele>416.78</ele>
        <time>2019-09-15T09:45:15.000Z</time>
      </trkpt>
      <trkpt lat="45.62484" lon="5.84435">
        <ele>419.49</ele>
        <time>2019-09-15T09:45:20.000Z</time>
      </trkpt>
      <trkpt lat="45.62503" lon="5.84429">
        <ele>423.54</ele>
        <time>2019-09-15T09:45:25.000Z</time>
      </trkpt>
      <trkpt lat="45.62517" lon="5.84411">
        <ele>425.46</ele>
        <time>2019-09-15T09:45:30.000Z</time>
      </trkpt>
      <trkpt lat="45.62498" lon="5.84398">
        <ele>431.33</ele>
        <time>2019-09-15T09:45:35.000Z</time>
      </trkpt>
      <trkpt lat="45.62473" lon="5.84395">
        <ele>433.36</ele>
        <time>2019-09-15T09:45:40.000Z</time>
      </trkpt>
      <trkpt lat="45.6245" lon="5.84386">
        <ele>435.32</ele>
        <time>2019-09-15T09:45:45.000Z</time>
      </trkpt>
      <trkpt lat="45.62456" lon="5.84363">
        <ele>436.1</ele>
        <time>2019-09-15T09:45:50.000Z</time>
      </trkpt>
      <trkpt lat="45.62485" lon="5.84354">
        <ele>438.65</ele>
        <time>2019-09-15T09:45:55.000Z</time>
      </trkpt>
      <trkpt lat="45.62496" lon="5.84334">
        <ele>441.69</ele>
        <time>2019-09-15T09:46:00.000Z</time>
      </trkpt>
      <trkpt lat="45.6251" lon="5.84314">
        <ele>442.32</ele>
        <time>2019-09-15T09:46:05.000Z</time>
      </trkpt>
      <trkpt lat="45.62524" lon="5.84292">
        <ele>435.57</ele>
        <time>2019-09-15T09:46:10.000Z</time>
      </trkpt>
      <trkpt lat="45.62544" lon="5.84286">
        <ele>441.47</ele>
        <time>2019-09-15T09:46:15.000Z</time>
      </trkpt>
      <trkpt lat="45.6256" lon="5.84281">
        <ele>447.18</ele>
        <time>2019-09-15T09:46:20.000Z</time>
      </trkpt>
      <trkpt lat="45.62573" lon="5.84278">
        <ele>451.16</ele>
        <time>2019-09-15T09:46:25.000Z</time>
      </trkpt>
      <trkpt lat="45.62591" lon="5.8427">
        <ele>455.25</ele>
        <time>2019-09-15T09:46:30.000Z</time>
      </trkpt>
      <trkpt lat="45.62615" lon="5.84269">
        <ele>454.93</ele>
        <time>2019-09-15T09:46:35.000Z</time>
      </trkpt>
      <trkpt lat="45.62637" lon="5.84264">
        <ele>453.46</ele>
        <time>2019-09-15T09:46:40.000Z</time>
      </trkpt>
      <trkpt lat="45.62657" lon="5.84264">
        <ele>454.87</ele>
        <time>2019-09-15T09:46:45.000Z</time>
      </trkpt>
      <trkpt lat="45.62687" lon="5.84272">
        <ele>457.49</ele>
        <time>2019-09-15T09:46:50.000Z</time>
      </trkpt>
      <trkpt lat="45.62712" lon="5.8427">
        <ele>459.36</ele>
        <time>2019-09-15T09:46:55.000Z</time>
      </trkpt>
      <trkpt lat="45.6273" lon="5.84266">
        <ele>460.09</ele>
        <time>2019-09-15T09:47:00.000Z</time>
      </trkpt>
      <trkpt lat="45.62751" lon="5.84256">
        <ele>459.96</ele>
        <time>2019-09-15T09:47:05.000Z</time>
      </trkpt>
      <trkpt lat="45.6277" lon="5.84242">
        <ele>457.7</ele>
        <time>2019-09-15T09:47:10.000Z</time>
      </trkpt>
      <trkpt lat="45.62787" lon="5.84232">
        <ele>462.14</ele>
        <time>2019-09-15T09:47:15.000Z</time>
      </trkpt>
      <trkpt lat="45.6281" lon="5.84228">
        <ele>462.8</ele>
        <time>2019-09-15T09:47:20.000Z</time>
      </trkpt>
      <trkpt lat="45.62829" lon="5.84222">
        <ele>461.21</ele>
        <time>2019-09-15T09:47:25.000Z</time>
      </trkpt>
      <trkpt lat="45.62852" lon="5.84219">
        <ele>463.44</ele>
        <time>2019-09-15T09:47:30.000Z</time>
      </trkpt>
      <trkpt lat="45.62875" lon="5.84218">
        <ele>469.32</ele>
        <time>2019-09-15T09:47:35.000Z</time>
      </trkpt>
      <trkpt lat="45.62895" lon="5.84218">
        <ele>475.12</ele>
        <time>2019-09-15T09:47:40.000Z</time>
      </trkpt>
      <trkpt lat="45.62925" lon="5.84217">
        <ele>475.53</ele>
        <time>2019-09-15T09:47:45.000Z</time>
      </trkpt>
      <trkpt lat="45.62945" lon="5.84206">
        <ele>475.52</ele>
        <time>2019-09-15T09:47:50.000Z</time>
      </trkpt>
      <trkpt lat="45.62968" lon="5.84204">
        <ele>473.33</ele>
        <time>2019-09-15T09:47:55.000Z</time>
      </trkpt>
      <trkpt lat="45.62987" lon="5.84205">
        <ele>472.56</ele>
        <time>2019-09-15T09:48:00.000Z</time>
      </trkpt>
      <trkpt lat="45.63008" lon="5.84215">
        <ele>471.61</ele>
        <time>2019-09-15T09:48:05.000Z</time>
      </trkpt>
      <trkpt lat="45.63027" lon="5.84217">
        <ele>471.43</ele>
        <time>2019-09-15T09:48:10.000Z</time>
      </trkpt>
      <trkpt lat="45.63047" lon="5.84217">
        <ele>475.18</ele>
        <time>2019-09-15T09:48:15.000Z</time>
      </trkpt>
      <trkpt lat="45.63065" lon="5.84219">
        <ele>479.33</ele>
        <time>2019-09-15T09:48:20.000Z</time>
      </trkpt>
      <trkpt lat="45.63086" lon="5.84222">
        <ele>476.47</ele>
        <time>2019-09-15T09:48:25.000Z</time>
      </trkpt>
      <trkpt lat="45.63105" lon="5.84227">
        <ele>478.92</ele>
        <time>2019-09-15T09:48:30.000Z</time>
      </trkpt>
      <trkpt lat="45.63125" lon="5.84231">
        <ele>482.63</ele>
        <time>2019-09-15T09:48:35.000Z</time>
      </trkpt>
      <trkpt lat="45.63146" lon="5.84235">
        <ele>482.03</ele>
        <time>2019-09-15T09:48:40.000Z</time>
      </trkpt>
      <trkpt lat="45.63164" lon="5.84238">
        <ele>483.92</ele>
        <time>2019-09-15T09:48:45.000Z</time>
      </trkpt>
      <trkpt lat="45.63183" lon="5.84242">
        <ele>488.91</ele>
        <time>2019-09-15T09:48:50.000Z</time>
      </trkpt>
      <trkpt lat="45.63202" lon="5.84244">
        <ele>494.03</ele>
        <time>2019-09-15T09:48:55.000Z</time>
      </trkpt>
      <trkpt lat="45.63218" lon="5.84247">
        <ele>499.22</ele>
        <time>2019-09-15T09:49:00.000Z</time>
      </trkpt>
      <trkpt lat="45.63235" lon="5.84252">
        <ele>500.41</ele>
        <time>2019-09-15T09:49:05.000Z</time>
      </trkpt>
      <trkpt lat="45.63252" lon="5.84254">
        <ele>501.27</ele>
        <time>2019-09-15T09:49:10.000Z</time>
      </trkpt>
      <trkpt lat="45.63273" lon="5.84257">
        <ele>501.78</ele>
        <time>2019-09-15T09:49:15.000Z</time>
      </trkpt>
      <trkpt lat="45.63293" lon="5.84258">
        <ele>504.21</ele>
        <time>2019-09-15T09:49:20.000Z</time>
      </trkpt>
      <trkpt lat="45.63316" lon="5.84256">
        <ele>505.34</ele>
        <time>2019-09-15T09:49:25.000Z</time>
      </trkpt>
      <trkpt lat="45.63338" lon="5.84257">
        <ele>512.93</ele>
        <time>2019-09-15T09:49:30.000Z</time>
      </trkpt>
      <trkpt lat="45.63359" lon="5.84259">
        <ele>515.03</ele>
        <time>2019-09-15T09:49:35.000Z</time>
      </trkpt>
      <trkpt lat="45.63378" lon="5.84259">
        <ele>519.19</ele>
        <time>2019-09-15T09:49:40.000Z</time>
      </trkpt>
      <trkpt lat="45.63398" lon="5.8426">
        <ele>519.16</ele>
        <time>2019-09-15T09:49:45.000Z</time>
      </trkpt>
      <trkpt lat="45.6342" lon="5.84255">
        <ele>522.72</ele>
        <time>2019-09-15T09:49:50.000Z</time>
      </trkpt>
      <trkpt lat="45.63439" lon="5.84254">
        <ele>525.33</ele>
        <time>2019-09-15T09:49:55.000Z</time>
      </trkpt>
      <trkpt lat="45.63453" lon="5.84253">
        <ele>527.34</ele>
        <time>2019-09-15T09:50:00.000Z</time>
      </trkpt>
      <trkpt lat="45.63467" lon="5.84252">
        <ele>529.67</ele>
        <time>2019-09-15T09:50:05.000Z</time>
      </trkpt>
      <trkpt lat="45.63484" lon="5.84251">
        <ele>527.86</ele>
        <time>2019-09-15T09:50:10.000Z</time>
      </trkpt>
      <trkpt lat="45.635" lon="5.84252">
        <ele>526.4</ele>
        <time>2019-09-15T09:50:15.000Z</time>
      </trkpt>
      <trkpt lat="45.63521" lon="5.84249">
        <ele>523.08</ele>
        <time>2019-09-15T09:50:20.000Z</time>
      </trkpt>
      <trkpt lat="45.63543" lon="5.84245">
        <ele>523.52</ele>
        <time>2019-09-15T09:50:25.000Z</time>
      </trkpt>
      <trkpt lat="45.63584" lon="5.84245">
        <ele>522.95</ele>
        <time>2019-09-15T09:50:30.000Z</time>
      </trkpt>
      <trkpt lat="45.63608" lon="5.84233">
        <ele>521.78</ele>
        <time>2019-09-15T09:50:35.000Z</time>
      </trkpt>
      <trkpt lat="45.63635" lon="5.84219">
        <ele>519.98</ele>
        <time>2019-09-15T09:50:40.000Z</time>
      </trkpt>
      <trkpt lat="45.63673" lon="5.84221">
        <ele>519.9</ele>
        <time>2019-09-15T09:50:45.000Z</time>
      </trkpt>
      <trkpt lat="45.63711" lon="5.84224">
        <ele>515.55</ele>
        <time>2019-09-15T09:50:50.000Z</time>
      </trkpt>
      <trkpt lat="45.63733" lon="5.84229">
        <ele>510.25</ele>
        <time>2019-09-15T09:50:55.000Z</time>
      </trkpt>
      <trkpt lat="45.63747" lon="5.84224">
        <ele>510.65</ele>
        <time>2019-09-15T09:51:00.000Z</time>
      </trkpt>
      <trkpt lat="45.63754" lon="5.84231">
        <ele>509</ele>
        <time>2019-09-15T09:52:39.000Z</time>
      </trkpt>
    </trkseg>
  </trk>
</gpx>